source: josm/trunk/test/data/regress/2147/WG20080203171807.log.nmea

Last change on this file was 10906, checked in by Don-vip, 5 years ago

add more non-regression NMEA unit tests

File size: 208.7 KB
Line 
1@Sonygps/ver1.0/wgs-84
2$GPGGA,171807,0645.0673,S,03707.7834,W,1,06,01.1,00241.0,M,-011.9,M,,*6E
3$GPGSA,A,3,04,10,13,17,25,27,,,,,,,02.2,01.1,01.8*08
4$GPGSV,3,1,12,02,01,327,00,04,19,358,43,08,35,149,34,10,20,273,42*7E
5$GPGSV,3,2,12,11,14,102,46,13,34,033,38,15,01,215,00,17,79,012,53*7F
6$GPGSV,3,3,12,25,25,093,41,26,09,213,00,27,34,112,46,28,38,188,50*7F
7$GPRMC,171807,A,0645.0673,S,03707.7834,W,000.0,352.7,030208,,,A*73
8$GPVTG,352.7,T,,M,000.0,N,000.0,K,A*0E
9$GPGGA,171837,0645.0327,S,03707.8008,W,1,05,01.3,00226.9,M,-011.9,M,,*68
10$GPGSA,A,3,04,10,17,25,27,,,,,,,,02.3,01.3,01.9*08
11$GPGSV,3,1,12,02,02,327,00,04,19,358,42,08,36,149,46,10,20,273,47*7F
12$GPGSV,3,2,12,11,14,102,40,13,33,033,30,15,01,215,00,17,79,012,52*77
13$GPGSV,3,3,12,25,25,092,46,26,09,213,00,27,34,112,48,28,38,188,35*74
14$GPRMC,171837,A,0645.0327,S,03707.8008,W,010.4,334.8,030208,,,A*76
15$GPVTG,334.8,T,,M,010.4,N,019.3,K,A*0F
16$GPGGA,171852,0644.9881,S,03707.8150,W,1,05,01.3,00231.2,M,-011.9,M,,*65
17$GPGSA,A,3,04,10,13,17,27,,,,,,,,02.4,01.3,02.0*00
18$GPGSV,3,1,12,02,02,327,00,04,19,358,35,08,36,149,37,10,20,274,48*71
19$GPGSV,3,2,12,11,14,102,33,13,33,033,35,15,01,215,00,17,79,013,54*71
20$GPGSV,3,3,12,25,25,092,34,26,09,213,00,27,34,111,46,28,38,188,51*7E
21$GPRMC,171852,A,0644.9881,S,03707.8150,W,011.3,345.7,030208,,,A*79
22$GPVTG,345.7,T,,M,011.3,N,021.0,K,A*08
23$GPGGA,171907,0644.9327,S,03707.8329,W,1,05,01.5,00233.3,M,-011.9,M,,*6A
24$GPGSA,A,3,10,13,17,25,27,,,,,,,,02.5,01.5,02.0*04
25$GPGSV,3,1,12,02,02,327,00,04,19,358,31,08,36,149,46,10,20,274,45*7E
26$GPGSV,3,2,12,11,13,103,28,13,33,033,42,15,01,215,00,17,79,013,53*7A
27$GPGSV,3,3,12,25,25,092,36,26,09,213,00,27,34,111,40,28,38,188,34*79
28$GPRMC,171907,A,0644.9327,S,03707.8329,W,013.8,333.6,030208,,,A*7A
29$GPVTG,333.6,T,,M,013.8,N,025.6,K,A*03
30$GPGGA,171922,0644.8943,S,03707.8559,W,1,05,01.5,00230.1,M,-011.9,M,,*64
31$GPGSA,A,3,10,13,17,25,27,,,,,,,,02.5,01.5,02.0*04
32$GPGSV,3,1,12,02,02,327,00,04,19,358,31,08,36,149,43,10,20,274,45*7B
33$GPGSV,3,2,12,11,13,103,28,13,33,033,44,15,02,215,00,17,79,013,52*7E
34$GPGSV,3,3,12,25,25,092,39,26,09,213,00,27,34,111,38,28,38,188,35*78
35$GPRMC,171922,A,0644.8943,S,03707.8559,W,007.8,328.3,030208,,,A*7F
36$GPVTG,328.3,T,,M,007.8,N,014.4,K,A*09
37$GPGGA,171942,0644.8381,S,03707.8897,W,1,05,01.4,00231.7,M,-011.9,M,,*6F
38$GPGSA,A,3,04,10,13,17,25,,,,,,,,02.3,01.4,01.9*08
39$GPGSV,3,1,12,02,02,327,00,04,19,358,33,08,36,148,43,10,20,274,39*73
40$GPGSV,3,2,12,11,13,103,00,13,33,033,38,15,02,215,00,17,79,013,52*7F
41$GPGSV,3,3,12,25,25,092,41,26,09,213,00,27,34,111,31,28,38,188,46*7A
42$GPRMC,171942,A,0644.8381,S,03707.8897,W,011.8,324.9,030208,,,A*73
43$GPVTG,324.9,T,,M,011.8,N,022.0,K,A*09
44$GPGGA,171957,0644.8137,S,03707.9334,W,1,05,01.5,00228.1,M,-011.9,M,,*68
45$GPGSA,A,3,10,13,17,25,27,,,,,,,,02.5,01.5,02.0*04
46$GPGSV,3,1,12,02,02,327,00,04,19,358,32,08,36,148,46,10,20,274,40*79
47$GPGSV,3,2,12,11,13,103,00,13,33,033,38,15,02,215,00,17,80,014,52*7E
48$GPGSV,3,3,12,25,25,092,38,26,09,213,00,27,34,111,38,28,38,187,46*72
49$GPRMC,171957,A,0644.8137,S,03707.9334,W,010.9,307.7,030208,,,A*74
50$GPVTG,307.7,T,,M,010.9,N,020.2,K,A*06
51$GPGGA,172012,0644.7744,S,03707.9649,W,1,06,01.2,00231.6,M,-011.9,M,,*6A
52$GPGSA,A,3,04,10,13,17,25,27,,,,,,,02.2,01.2,01.9*0A
53$GPGSV,3,1,12,02,02,327,00,04,19,358,35,08,36,148,44,10,20,274,44*78
54$GPGSV,3,2,12,11,13,103,00,13,33,033,35,15,02,215,00,17,80,014,52*73
55$GPGSV,3,3,12,25,25,092,37,26,10,213,00,27,34,111,35,28,38,187,35*7C
56$GPRMC,172012,A,0644.7744,S,03707.9649,W,015.2,330.1,030208,,,A*71
57$GPVTG,330.1,T,,M,015.2,N,028.3,K,A*03
58$GPGGA,172027,0644.7284,S,03707.9908,W,1,06,01.2,00232.0,M,-011.9,M,,*6A
59$GPGSA,A,3,04,10,13,17,25,27,,,,,,,02.2,01.2,01.9*0A
60$GPGSV,3,1,12,02,02,328,00,04,19,359,39,08,36,148,44,10,20,274,38*71
61$GPGSV,3,2,12,11,13,103,00,13,33,033,41,15,02,215,00,17,80,014,54*76
62$GPGSV,3,3,12,25,25,091,41,26,10,213,00,27,34,111,39,28,38,187,46*76
63$GPRMC,172027,A,0644.7284,S,03707.9908,W,010.1,323.9,030208,,,A*78
64$GPVTG,323.9,T,,M,010.1,N,018.7,K,A*08
65$GPGGA,172042,0644.6932,S,03708.0192,W,1,06,01.2,00236.9,M,-011.9,M,,*6E
66$GPGSA,A,3,04,10,13,17,25,27,,,,,,,02.2,01.2,01.9*0A
67$GPGSV,3,1,12,02,02,328,00,04,19,359,33,08,36,148,44,10,20,275,41*74
68$GPGSV,3,2,12,11,13,103,00,13,32,033,36,15,02,215,00,17,80,014,52*71
69$GPGSV,3,3,12,25,25,091,40,26,10,213,00,27,34,110,39,28,38,187,43*73
70$GPRMC,172042,A,0644.6932,S,03708.0192,W,009.9,319.3,030208,,,A*72
71$GPVTG,319.3,T,,M,009.9,N,018.3,K,A*0F
72$GPGGA,172057,0644.6651,S,03708.0488,W,1,06,01.2,00237.2,M,-011.9,M,,*64
73$GPGSA,A,3,04,10,13,17,25,27,,,,,,,02.2,01.2,01.9*0A
74$GPGSV,3,1,12,02,02,328,00,04,19,359,38,08,36,148,46,10,20,275,38*73
75$GPGSV,3,2,12,11,13,103,00,13,32,033,41,15,02,215,00,17,80,015,52*70
76$GPGSV,3,3,12,25,25,091,41,26,10,213,00,27,34,110,41,28,38,187,35*7C
77$GPRMC,172057,A,0644.6651,S,03708.0488,W,012.8,304.6,030208,,,A*70
78$GPVTG,304.6,T,,M,012.8,N,023.7,K,A*01
79$GPGGA,172112,0644.6335,S,03708.0815,W,1,06,01.2,00236.7,M,-011.9,M,,*6F
80$GPGSA,A,3,04,10,13,17,25,27,,,,,,,02.2,01.2,01.9*0A
81$GPGSV,3,1,12,02,02,328,00,04,19,359,34,08,36,148,41,10,20,275,46*71
82$GPGSV,3,2,12,11,13,103,00,13,32,033,36,15,02,215,00,17,80,015,51*73
83$GPGSV,3,3,12,25,25,091,46,26,10,213,00,27,34,110,49,28,38,187,31*77
84$GPRMC,172112,A,0644.6335,S,03708.0815,W,007.3,324.1,030208,,,A*75
85$GPVTG,324.1,T,,M,007.3,N,013.6,K,A*09
86$GPGGA,172127,0644.5967,S,03708.1090,W,1,06,01.2,00237.1,M,-011.9,M,,*64
87$GPGSA,A,3,04,10,13,17,25,27,,,,,,,02.2,01.2,01.9*0A
88$GPGSV,3,1,12,02,02,328,00,04,19,359,40,08,36,148,42,10,20,275,45*72
89$GPGSV,3,2,12,11,13,104,00,13,32,033,46,15,02,215,00,17,80,015,50*72
90$GPGSV,3,3,12,25,25,091,46,26,10,213,00,27,34,110,40,28,37,187,42*75
91$GPRMC,172127,A,0644.5967,S,03708.1090,W,009.0,332.3,030208,,,A*71
92$GPVTG,332.3,T,,M,009.0,N,016.6,K,A*04
93$GPGGA,172142,0644.5759,S,03708.1045,W,1,05,03.3,00236.0,M,-011.9,M,,*6C
94$GPGSA,A,3,04,13,17,25,27,,,,,,,,04.6,03.3,03.3*02
95$GPGSV,3,1,12,02,02,328,00,04,19,359,43,08,36,147,36,10,20,275,32*7D
96$GPGSV,3,2,12,11,13,104,00,13,32,032,45,15,02,215,00,17,80,016,53*70
97$GPGSV,3,3,12,25,25,091,37,26,10,213,00,27,34,110,34,28,37,187,50*73
98$GPRMC,172142,A,0644.5759,S,03708.1045,W,003.5,051.0,030208,,,A*73
99$GPVTG,051.0,T,,M,003.5,N,006.6,K,A*0F
100$GPGGA,172157,0644.5694,S,03708.0786,W,1,05,03.3,00235.8,M,-011.9,M,,*6A
101$GPGSA,A,3,04,13,17,25,27,,,,,,,,04.7,03.3,03.3*03
102$GPGSV,3,1,12,02,02,328,00,04,19,359,45,08,36,147,45,10,20,275,30*7D
103$GPGSV,3,2,12,11,13,104,00,13,32,032,45,15,02,215,00,17,81,016,53*71
104$GPGSV,3,3,12,25,25,091,36,26,10,213,00,27,34,110,41,28,37,187,49*78
105$GPRMC,172157,A,0644.5694,S,03708.0786,W,012.8,068.6,030208,,,A*7F
106$GPVTG,068.6,T,,M,012.8,N,023.7,K,A*08
107$GPGGA,172212,0644.5518,S,03708.0331,W,1,04,04.9,00235.2,M,-011.9,M,,*61
108$GPGSA,A,3,04,10,13,17,,,,,,,,,06.9,04.9,04.8*0D
109$GPGSV,3,1,12,02,02,328,00,04,19,359,42,08,36,147,41,10,20,275,40*79
110$GPGSV,3,2,12,11,13,104,00,13,32,032,40,15,03,215,00,17,81,016,54*72
111$GPGSV,3,3,12,25,25,091,31,26,10,213,00,27,34,110,35,28,37,186,52*77
112$GPRMC,172212,A,0644.5518,S,03708.0331,W,010.9,057.8,030208,,,A*73
113$GPVTG,057.8,T,,M,010.9,N,020.2,K,A*0F
114$GPGGA,172227,0644.5364,S,03708.0024,W,1,06,01.2,00235.3,M,-011.9,M,,*60
115$GPGSA,A,3,04,10,13,17,25,27,,,,,,,02.2,01.2,01.9*0A
116$GPGSV,3,1,12,02,02,328,00,04,20,359,40,08,36,147,40,10,20,275,43*73
117$GPGSV,3,2,12,11,13,104,00,13,32,032,41,15,03,215,00,17,81,016,54*73
118$GPGSV,3,3,12,25,25,090,35,26,10,213,00,27,34,109,40,28,37,186,51*7B
119$GPRMC,172227,A,0644.5364,S,03708.0024,W,009.3,059.0,030208,,,A*7B
120$GPVTG,059.0,T,,M,009.3,N,017.2,K,A*0F
121$GPGGA,172242,0644.5317,S,03707.9956,W,1,04,03.9,00237.9,M,-011.9,M,,*6E
122$GPGSA,A,3,04,13,17,25,,,,,,,,,05.5,03.9,03.8*04
123$GPGSV,3,1,12,02,02,328,00,04,20,359,41,08,36,147,45,10,20,276,31*71
124$GPGSV,3,2,12,11,13,104,00,13,32,032,46,15,03,215,00,17,81,017,54*75
125$GPGSV,3,3,12,25,25,090,38,26,10,213,00,27,34,109,34,28,37,186,41*74
126$GPRMC,172242,A,0644.5317,S,03707.9956,W,002.6,218.1,030208,,,A*7E
127$GPVTG,218.1,T,,M,002.6,N,004.8,K,A*0F
128$GPGGA,172257,0644.5292,S,03707.9944,W,1,06,01.2,00238.6,M,-011.9,M,,*6E
129$GPGSA,A,3,04,10,13,17,25,27,,,,,,,02.2,01.2,01.9*0A
130$GPGSV,3,1,12,02,02,328,00,04,20,359,41,08,36,147,41,10,20,276,35*71
131$GPGSV,3,2,12,11,13,104,00,13,31,032,45,15,03,215,00,17,81,017,54*75
132$GPGSV,3,3,12,25,25,090,41,26,11,213,00,27,34,109,35,28,37,186,48*73
133$GPRMC,172257,A,0644.5292,S,03707.9944,W,001.8,197.9,030208,,,A*74
134$GPVTG,197.9,T,,M,001.8,N,003.3,K,A*02
135$GPGGA,172312,0644.5258,S,03707.9890,W,1,04,03.5,00239.8,M,-011.9,M,,*68
136$GPGSA,A,3,04,13,17,27,,,,,,,,,04.9,03.5,03.5*0A
137$GPGSV,3,1,12,02,02,328,00,04,20,000,46,08,36,147,44,10,20,276,33*7A
138$GPGSV,3,2,12,11,13,104,00,13,31,032,46,15,03,216,00,17,81,017,53*72
139$GPGSV,3,3,12,25,25,090,33,26,11,213,00,27,34,109,36,28,37,186,49*74
140$GPRMC,172312,A,0644.5258,S,03707.9890,W,002.9,066.2,030208,,,A*7C
141$GPVTG,066.2,T,,M,002.9,N,005.4,K,A*05
142$GPGGA,172327,0644.5173,S,03707.9831,W,1,06,01.2,00239.2,M,-011.9,M,,*62
143$GPGSA,A,3,04,10,13,17,25,27,,,,,,,02.2,01.2,01.9*0A
144$GPGSV,3,1,12,02,02,329,00,04,20,000,43,08,36,147,40,10,20,276,35*7C
145$GPGSV,3,2,12,11,13,104,00,13,31,032,45,15,03,216,00,17,81,018,53*7E
146$GPGSV,3,3,12,25,25,090,37,26,11,213,00,27,34,109,34,28,37,186,35*79
147$GPRMC,172327,A,0644.5173,S,03707.9831,W,002.7,053.3,030208,,,A*72
148$GPVTG,053.3,T,,M,002.7,N,005.1,K,A*09
149$GPGGA,172342,0644.5083,S,03707.9730,W,1,03,02.6,00240.9,M,-011.9,M,,*66
150$GPGSA,A,2,13,17,25,,,,,,,,,,02.8,02.6,00.9*07
151$GPGSV,3,1,12,02,02,329,00,04,20,000,35,08,36,146,37,10,20,276,34*7D
152$GPGSV,3,2,12,11,13,104,00,13,31,032,46,15,03,216,00,17,81,018,55*7B
153$GPGSV,3,3,12,25,25,090,40,26,11,213,00,27,34,109,28,28,37,186,50*77
154$GPRMC,172342,A,0644.5083,S,03707.9730,W,009.0,055.3,030208,,,A*7B
155$GPVTG,055.3,T,,M,009.0,N,016.8,K,A*08
156$GPGGA,172357,0644.4911,S,03707.9458,W,1,05,03.4,00243.1,M,-011.9,M,,*62
157$GPGSA,A,3,04,13,17,25,27,,,,,,,,04.9,03.4,03.5*0C
158$GPGSV,3,1,12,02,02,329,00,04,20,000,39,08,36,146,35,10,20,276,33*74
159$GPGSV,3,2,12,11,13,105,00,13,31,032,46,15,03,216,00,17,82,019,53*7E
160$GPGSV,3,3,12,25,25,090,40,26,11,213,00,27,34,109,42,28,37,186,47*7D
161$GPRMC,172357,A,0644.4911,S,03707.9458,W,008.4,048.2,030208,,,A*79
162$GPVTG,048.2,T,,M,008.4,N,015.6,K,A*0D
163$GPGGA,172412,0644.4562,S,03707.9377,W,1,05,03.4,00244.5,M,-011.9,M,,*65
164$GPGSA,A,3,04,13,17,25,27,,,,,,,,05.0,03.4,03.6*07
165$GPGSV,3,1,12,02,03,329,00,04,20,000,40,08,36,146,34,10,20,276,35*7C
166$GPGSV,3,2,12,11,13,105,00,13,31,032,44,15,03,216,00,17,82,019,55*7A
167$GPGSV,3,3,12,25,25,089,38,26,11,213,00,27,34,108,37,28,37,186,47*79
168$GPRMC,172412,A,0644.4562,S,03707.9377,W,009.0,340.2,030208,,,A*73
169$GPVTG,340.2,T,,M,009.0,N,016.7,K,A*01
170$GPGGA,172427,0644.4109,S,03707.9569,W,1,06,01.2,00244.2,M,-011.9,M,,*63
171$GPGSA,A,3,04,10,13,17,25,27,,,,,,,02.2,01.2,01.9*0A
172$GPGSV,3,1,12,02,03,329,00,04,20,000,40,08,36,146,45,10,20,276,46*7E
173$GPGSV,3,2,12,11,13,105,00,13,31,032,39,15,03,216,00,17,82,019,54*71
174$GPGSV,3,3,12,25,25,089,46,26,11,213,00,27,34,108,48,28,37,185,35*7E
175$GPRMC,172427,A,0644.4109,S,03707.9569,W,013.6,333.4,030208,,,A*7A
176$GPVTG,333.4,T,,M,013.6,N,025.2,K,A*0B
177$GPGGA,172442,0644.3759,S,03707.9964,W,1,06,01.2,00241.0,M,-011.9,M,,*62
178$GPGSA,A,3,04,10,13,17,25,27,,,,,,,02.2,01.2,01.9*0A
179$GPGSV,3,1,12,02,03,329,00,04,20,000,36,08,36,146,47,10,20,277,42*78
180$GPGSV,3,2,12,11,13,105,00,13,31,032,46,15,03,216,00,17,82,020,52*75
181$GPGSV,3,3,12,25,25,089,46,26,11,213,00,27,34,108,35,28,37,185,47*71
182$GPRMC,172442,A,0644.3759,S,03707.9964,W,009.4,326.1,030208,,,A*74
183$GPVTG,326.1,T,,M,009.4,N,017.4,K,A*04
184$GPGGA,172457,0644.3385,S,03708.0163,W,1,05,01.4,00242.7,M,-011.9,M,,*6B
185$GPGSA,A,3,04,10,13,17,25,,,,,,,,02.4,01.4,01.9*0F
186$GPGSV,3,1,12,02,03,329,00,04,20,000,40,08,36,146,47,10,20,277,42*79
187$GPGSV,3,2,12,11,13,105,00,13,31,032,39,15,04,216,00,17,82,020,54*7C
188$GPGSV,3,3,12,25,25,089,48,26,11,213,00,27,34,108,30,28,37,185,43*7E
189$GPRMC,172457,A,0644.3385,S,03708.0163,W,009.6,316.6,030208,,,A*7A
190$GPVTG,316.6,T,,M,009.6,N,017.8,K,A*0E
191$GPGGA,172512,0644.3105,S,03708.0455,W,1,05,01.5,00245.5,M,-011.9,M,,*65
192$GPGSA,A,3,10,13,17,25,27,,,,,,,,02.5,01.5,01.9*0E
193$GPGSV,3,1,12,02,03,329,00,04,20,000,33,08,36,146,48,10,20,277,34*73
194$GPGSV,3,2,12,11,13,105,00,13,31,032,43,15,04,216,00,17,82,021,54*70
195$GPGSV,3,3,12,25,25,089,49,26,11,213,00,27,34,108,35,28,36,185,46*7E
196$GPRMC,172512,A,0644.3105,S,03708.0455,W,011.1,317.3,030208,,,A*7A
197$GPVTG,317.3,T,,M,011.1,N,020.6,K,A*0E
198$GPGGA,172532,0644.2745,S,03708.0929,W,1,06,01.2,00248.5,M,-011.9,M,,*6B
199$GPGSA,A,3,04,10,13,17,25,27,,,,,,,02.2,01.2,01.9*0A
200$GPGSV,3,1,12,02,03,329,00,04,20,000,35,08,36,145,50,10,20,277,40*7C
201$GPGSV,3,2,12,11,13,105,00,13,30,032,41,15,04,216,00,17,82,021,53*74
202$GPGSV,3,3,12,25,25,089,51,26,11,213,00,27,34,108,36,28,36,185,45*77
203$GPRMC,172532,A,0644.2745,S,03708.0929,W,011.9,317.8,030208,,,A*7E
204$GPVTG,317.8,T,,M,011.9,N,022.1,K,A*08
205$GPGGA,172547,0644.2434,S,03708.1229,W,1,06,01.2,00250.9,M,-011.9,M,,*63
206$GPGSA,A,3,04,10,13,17,25,27,,,,,,,02.2,01.2,01.9*0A
207$GPGSV,3,1,12,02,03,329,00,04,20,000,39,08,36,145,46,10,20,277,35*75
208$GPGSV,3,2,12,11,13,105,00,13,30,032,38,15,04,216,00,17,82,022,53*79
209$GPGSV,3,3,12,25,25,089,51,26,12,213,00,27,34,107,34,28,36,185,35*7E
210$GPRMC,172547,A,0644.2434,S,03708.1229,W,007.9,308.8,030208,,,A*7A
211$GPVTG,308.8,T,,M,007.9,N,014.6,K,A*03
212$GPGGA,172602,0644.2046,S,03708.1597,W,1,05,01.4,00252.7,M,-011.9,M,,*6B
213$GPGSA,A,3,04,10,13,17,25,,,,,,,,02.4,01.4,01.9*0F
214$GPGSV,3,1,12,02,03,329,00,04,20,001,43,08,37,145,47,10,20,277,39*75
215$GPGSV,3,2,12,11,13,105,00,13,30,032,38,15,04,216,00,17,83,022,54*7F
216$GPGSV,3,3,12,25,25,089,50,26,12,213,00,27,34,107,34,28,36,185,38*72
217$GPRMC,172602,A,0644.2046,S,03708.1597,W,013.4,313.0,030208,,,A*71
218$GPVTG,313.0,T,,M,013.4,N,024.9,K,A*05
219$GPGGA,172617,0644.1709,S,03708.2029,W,1,06,01.2,00255.4,M,-011.9,M,,*62
220$GPGSA,A,3,04,10,13,17,25,27,,,,,,,02.2,01.2,01.9*0A
221$GPGSV,3,1,12,02,03,329,00,04,20,001,35,08,37,145,33,10,20,277,46*7F
222$GPGSV,3,2,12,11,13,106,00,13,30,031,44,15,04,216,00,17,83,023,52*73
223$GPGSV,3,3,12,25,25,088,35,26,12,213,00,27,34,107,34,28,36,185,48*77
224$GPRMC,172617,A,0644.1709,S,03708.2029,W,013.5,284.7,030208,,,A*70
225$GPVTG,284.7,T,,M,013.5,N,025.1,K,A*05
226$GPGGA,172632,0644.1582,S,03708.2436,W,1,06,01.2,00256.2,M,-011.9,M,,*6B
227$GPGSA,A,3,04,10,13,17,25,27,,,,,,,02.2,01.2,01.9*0A
228$GPGSV,3,1,12,02,03,330,00,04,20,001,35,08,37,145,35,10,20,277,36*76
229$GPGSV,3,2,12,11,13,106,00,13,30,031,45,15,04,216,00,17,83,023,52*72
230$GPGSV,3,3,12,25,25,088,36,26,12,213,00,27,34,107,36,28,36,184,50*7E
231$GPRMC,172632,A,0644.1582,S,03708.2436,W,007.0,287.3,030208,,,A*7B
232$GPVTG,287.3,T,,M,007.0,N,013.0,K,A*06
233$GPGGA,172647,0644.1383,S,03708.2796,W,1,05,01.5,00257.1,M,-011.9,M,,*61
234$GPGSA,A,3,10,13,17,25,27,,,,,,,,02.5,01.5,01.9*0E
235$GPGSV,3,1,12,02,03,330,00,04,20,001,31,08,37,145,49,10,20,278,46*71
236$GPGSV,3,2,12,11,13,106,00,13,30,031,47,15,04,216,00,17,83,024,52*77
237$GPGSV,3,3,12,25,25,088,41,26,12,213,00,27,34,107,37,28,36,184,47*79
238$GPRMC,172647,A,0644.1383,S,03708.2796,W,011.3,297.0,030208,,,A*71
239$GPVTG,297.0,T,,M,011.3,N,021.0,K,A*01
240$GPGGA,172702,0644.1165,S,03708.3070,W,1,06,01.2,00256.9,M,-011.9,M,,*68
241$GPGSA,A,3,04,10,13,17,25,27,,,,,,,02.3,01.2,01.9*0B
242$GPGSV,3,1,12,02,03,330,00,04,20,001,36,08,37,145,47,10,20,278,43*7D
243$GPGSV,3,2,12,11,13,106,00,13,30,031,42,15,04,216,00,17,83,024,52*72
244$GPGSV,3,3,12,25,25,088,52,26,12,213,00,27,34,107,37,28,36,184,35*7E
245$GPRMC,172702,A,0644.1165,S,03708.3070,W,008.1,313.0,030208,,,A*72
246$GPVTG,313.0,T,,M,008.1,N,015.1,K,A*00
247$GPGGA,172717,0644.0846,S,03708.3404,W,1,06,01.2,00255.4,M,-011.9,M,,*6C
248$GPGSA,A,3,04,10,13,17,25,27,,,,,,,02.3,01.2,01.9*0B
249$GPGSV,3,1,12,02,03,330,00,04,21,001,40,08,37,144,46,10,20,278,47*79
250$GPGSV,3,2,12,11,13,106,00,13,30,031,38,15,04,216,00,17,83,025,52*7E
251$GPGSV,3,3,12,25,25,088,48,26,12,213,00,27,34,107,45,28,36,184,32*77
252$GPRMC,172717,A,0644.0846,S,03708.3404,W,012.5,315.0,030208,,,A*71
253$GPVTG,315.0,T,,M,012.5,N,023.3,K,A*0E
254$GPGGA,172732,0644.0523,S,03708.3716,W,1,06,01.2,00254.5,M,-011.9,M,,*65
255$GPGSA,A,3,04,10,13,17,25,27,,,,,,,02.3,01.2,01.9*0B
256$GPGSV,3,1,12,02,03,330,00,04,21,001,34,08,37,144,50,10,20,278,41*7B
257$GPGSV,3,2,12,11,13,106,00,13,30,031,39,15,05,216,00,17,83,026,52*7D
258$GPGSV,3,3,12,25,25,088,51,26,12,213,00,27,34,106,40,28,36,184,36*7F
259$GPRMC,172732,A,0644.0523,S,03708.3716,W,010.3,317.7,030208,,,A*79
260$GPVTG,317.7,T,,M,010.3,N,019.2,K,A*07
261$GPGGA,172747,0644.0234,S,03708.4205,W,1,06,01.2,00253.4,M,-011.9,M,,*60
262$GPGSA,A,3,04,10,13,17,25,27,,,,,,,02.3,01.2,01.9*0B
263$GPGSV,3,1,12,02,03,330,00,04,21,001,34,08,37,144,42,10,20,278,45*7C
264$GPGSV,3,2,12,11,13,106,00,13,29,031,45,15,05,216,00,17,83,026,52*7E
265$GPGSV,3,3,12,25,24,088,41,26,12,213,00,27,34,106,41,28,36,184,49*76
266$GPRMC,172747,A,0644.0234,S,03708.4205,W,016.4,299.5,030208,,,A*7E
267$GPVTG,299.5,T,,M,016.4,N,030.4,K,A*0E
268$GPGGA,172802,0644.0150,S,03708.4391,W,1,06,01.2,00253.2,M,-011.9,M,,*65
269$GPGSA,A,3,04,10,13,17,25,27,,,,,,,02.3,01.2,01.9*0B
270$GPGSV,3,1,12,02,03,330,00,04,21,001,33,08,37,144,45,10,20,278,45*7C
271$GPGSV,3,2,12,11,13,106,00,13,29,031,46,15,05,216,00,17,84,027,52*7B
272$GPGSV,3,3,12,25,24,088,41,26,12,213,00,27,34,106,38,28,36,184,47*76
273$GPRMC,172802,A,0644.0150,S,03708.4391,W,004.2,286.0,030208,,,A*73
274$GPVTG,286.0,T,,M,004.2,N,007.9,K,A*09
275$GPGGA,172817,0643.9915,S,03708.4781,W,1,06,01.2,00253.9,M,-011.9,M,,*68
276$GPGSA,A,3,04,10,13,17,25,27,,,,,,,02.3,01.2,01.9*0B
277$GPGSV,3,1,12,02,03,330,00,04,21,001,41,08,37,144,41,10,20,278,42*7A
278$GPGSV,3,2,12,11,13,106,00,13,29,031,43,15,05,216,00,17,84,028,51*72
279$GPGSV,3,3,12,25,24,087,41,26,13,213,00,27,34,106,39,28,36,184,49*77
280$GPRMC,172817,A,0643.9915,S,03708.4781,W,012.9,294.1,030208,,,A*7B
281$GPVTG,294.1,T,,M,012.9,N,024.0,K,A*0F
282$GPGGA,172832,0643.9752,S,03708.5188,W,1,06,01.2,00252.6,M,-011.9,M,,*62
283$GPGSA,A,3,04,10,13,17,25,27,,,,,,,02.3,01.2,01.9*0B
284$GPGSV,3,1,12,02,03,330,00,04,21,001,34,08,37,144,45,10,20,278,42*7C
285$GPGSV,3,2,12,11,13,106,00,13,29,031,42,15,05,216,00,17,84,028,49*7A
286$GPGSV,3,3,12,25,24,087,40,26,13,213,00,27,34,106,41,28,36,183,50*76
287$GPRMC,172832,A,0643.9752,S,03708.5188,W,007.3,295.3,030208,,,A*72
288$GPVTG,295.3,T,,M,007.3,N,013.5,K,A*03
289$GPGGA,172847,0643.9571,S,03708.5632,W,1,06,01.2,00251.5,M,-011.9,M,,*65
290$GPGSA,A,3,04,10,13,17,25,27,,,,,,,02.3,01.2,01.9*0B
291$GPGSV,3,1,12,02,03,330,00,04,21,002,33,08,37,144,34,10,20,279,45*78
292$GPGSV,3,2,12,11,13,107,00,13,29,031,46,15,05,216,00,17,84,029,52*74
293$GPGSV,3,3,12,25,24,087,39,26,13,213,00,27,34,106,35,28,36,183,46*7C
294$GPRMC,172847,A,0643.9571,S,03708.5632,W,017.1,290.6,030208,,,A*76
295$GPVTG,290.6,T,,M,017.1,N,031.8,K,A*0D
296$GPGGA,172902,0643.9321,S,03708.6249,W,1,05,01.5,00250.7,M,-011.9,M,,*6A
297$GPGSA,A,3,10,13,17,25,27,,,,,,,,02.5,01.5,01.9*0E
298$GPGSV,3,1,12,02,03,330,00,04,21,002,34,08,37,144,41,10,20,279,47*7F
299$GPGSV,3,2,12,11,13,107,00,13,29,031,42,15,05,216,00,17,84,030,52*78
300$GPGSV,3,3,12,25,24,087,40,26,13,214,00,27,34,106,35,28,36,183,47*74
301$GPRMC,172902,A,0643.9321,S,03708.6249,W,014.7,290.5,030208,,,A*78
302$GPVTG,290.5,T,,M,014.7,N,027.2,K,A*06
303$GPGGA,172917,0643.8966,S,03708.6842,W,1,06,01.2,00250.3,M,-011.9,M,,*67
304$GPGSA,A,3,04,10,13,17,25,27,,,,,,,02.3,01.2,01.9*0B
305$GPGSV,3,1,12,02,03,330,00,04,21,002,41,08,37,143,45,10,20,279,41*78
306$GPGSV,3,2,12,11,13,107,00,13,29,031,40,15,05,216,00,17,84,030,53*7B
307$GPGSV,3,3,12,25,24,087,50,26,13,214,00,27,34,105,36,28,35,183,33*75
308$GPRMC,172917,A,0643.8966,S,03708.6842,W,017.3,309.9,030208,,,A*7F
309$GPVTG,309.9,T,,M,017.3,N,032.0,K,A*0A
310$GPGGA,172932,0643.8592,S,03708.7410,W,1,06,01.2,00250.6,M,-011.9,M,,*68
311$GPGSA,A,3,04,10,13,17,25,27,,,,,,,02.3,01.2,01.9*0B
312$GPGSV,3,1,12,02,04,331,00,04,21,002,35,08,37,143,48,10,20,279,45*74
313$GPGSV,3,2,12,11,13,107,00,13,29,031,40,15,05,216,00,17,84,031,52*7B
314$GPGSV,3,3,12,25,24,087,39,26,13,214,00,27,34,105,35,28,35,183,46*7B
315$GPRMC,172932,A,0643.8592,S,03708.7410,W,014.5,292.2,030208,,,A*78
316$GPVTG,292.2,T,,M,014.5,N,026.9,K,A*0B
317$GPGGA,172947,0643.8478,S,03708.8055,W,1,06,01.2,00251.3,M,-011.9,M,,*61
318$GPGSA,A,3,04,10,13,17,25,27,,,,,,,02.3,01.2,01.9*0B
319$GPGSV,3,1,12,02,04,331,00,04,21,002,38,08,37,143,40,10,20,279,42*76
320$GPGSV,3,2,12,11,12,107,00,13,29,031,42,15,05,216,00,17,84,032,51*78
321$GPGSV,3,3,12,25,24,087,40,26,13,214,00,27,34,105,42,28,35,183,51*73
322$GPRMC,172947,A,0643.8478,S,03708.8055,W,012.9,278.1,030208,,,A*78
323$GPVTG,278.1,T,,M,012.9,N,024.0,K,A*0D
324$GPGGA,173002,0643.8429,S,03708.8549,W,1,06,01.2,00249.7,M,-011.9,M,,*69
325$GPGSA,A,3,04,10,13,17,25,27,,,,,,,02.3,01.2,01.9*0B
326$GPGSV,3,1,12,02,04,331,00,04,21,002,39,08,37,143,35,10,20,279,44*73
327$GPGSV,3,2,12,11,12,107,00,13,28,031,43,15,05,216,00,17,84,033,49*70
328$GPGSV,3,3,12,25,24,086,38,26,13,214,00,27,34,105,38,28,35,183,49*79
329$GPRMC,173002,A,0643.8429,S,03708.8549,W,009.8,284.3,030208,,,A*77
330$GPVTG,284.3,T,,M,009.8,N,018.1,K,A*09
331$GPGGA,173017,0643.8396,S,03708.8864,W,1,06,01.2,00247.5,M,-011.9,M,,*60
332$GPGSA,A,3,04,10,13,17,25,27,,,,,,,02.3,01.2,01.9*0B
333$GPGSV,3,1,12,02,04,331,00,04,21,002,34,08,37,143,45,10,20,279,42*7F
334$GPGSV,3,2,12,11,12,107,00,13,28,031,36,15,05,216,00,17,85,034,52*7E
335$GPGSV,3,3,12,25,24,086,36,26,13,214,00,27,34,105,37,28,35,183,42*73
336$GPRMC,173017,A,0643.8396,S,03708.8864,W,010.2,292.9,030208,,,A*7D
337$GPVTG,292.9,T,,M,010.2,N,018.9,K,A*0E
338$GPGGA,173032,0643.8298,S,03708.9267,W,1,06,01.2,00246.3,M,-011.9,M,,*67
339$GPGSA,A,3,04,10,13,17,25,27,,,,,,,02.3,01.2,01.9*0B
340$GPGSV,3,1,12,02,04,331,00,04,21,002,35,08,37,143,34,10,20,279,37*7A
341$GPGSV,3,2,12,11,12,107,00,13,28,031,41,15,06,216,00,17,85,035,52*7C
342$GPGSV,3,3,12,25,24,086,42,26,13,214,00,27,34,105,35,28,35,183,45*75
343$GPRMC,173032,A,0643.8298,S,03708.9267,W,008.8,278.3,030208,,,A*70
344$GPVTG,278.3,T,,M,008.8,N,016.4,K,A*00
345$GPGGA,173047,0643.8079,S,03708.9741,W,1,06,01.2,00245.2,M,-011.9,M,,*6B
346$GPGSA,A,3,04,10,13,17,25,27,,,,,,,02.3,01.2,01.9*0B
347$GPGSV,3,1,12,02,04,331,00,04,21,002,34,08,37,143,36,10,20,280,40*7F
348$GPGSV,3,2,12,11,12,107,00,13,28,031,41,15,06,216,00,17,85,036,53*7E
349$GPGSV,3,3,12,25,24,086,41,26,13,214,00,27,33,105,39,28,35,182,42*7B
350$GPRMC,173047,A,0643.8079,S,03708.9741,W,011.0,284.4,030208,,,A*7A
351$GPVTG,284.4,T,,M,011.0,N,020.3,K,A*06
352$GPGGA,173102,0643.7860,S,03709.0139,W,1,05,01.5,00244.3,M,-012.0,M,,*6B
353$GPGSA,A,3,10,13,17,25,27,,,,,,,,02.5,01.5,01.9*0E
354$GPGSV,3,1,12,02,04,331,00,04,21,002,33,08,37,142,44,10,20,280,38*73
355$GPGSV,3,2,12,11,12,107,00,13,28,031,39,15,06,216,00,17,85,037,54*77
356$GPGSV,3,3,12,25,24,086,51,26,14,214,00,27,33,104,45,28,35,182,34*76
357$GPRMC,173102,A,0643.7860,S,03709.0139,W,010.7,310.1,030208,,,A*7B
358$GPVTG,310.1,T,,M,010.7,N,019.9,K,A*09
359$GPGGA,173117,0643.7497,S,03709.0234,W,1,06,01.2,00243.9,M,-012.0,M,,*6C
360$GPGSA,A,3,04,10,13,17,25,27,,,,,,,02.3,01.2,01.9*0B
361$GPGSV,3,1,12,02,04,331,00,04,21,002,45,08,37,142,41,10,20,280,36*79
362$GPGSV,3,2,12,11,12,108,00,13,28,031,40,15,06,216,00,17,85,038,52*7F
363$GPGSV,3,3,12,25,24,086,34,26,14,214,00,27,33,104,40,28,35,182,40*73
364$GPRMC,173117,A,0643.7497,S,03709.0234,W,010.9,000.2,030208,,,A*7A
365$GPVTG,000.2,T,,M,010.9,N,020.3,K,A*06
366$GPGGA,173132,0643.7075,S,03709.0583,W,1,06,01.2,00244.2,M,-012.0,M,,*64
367$GPGSA,A,3,04,10,13,17,25,27,,,,,,,02.3,01.2,01.9*0B
368$GPGSV,3,1,12,02,04,331,00,04,21,003,42,08,37,142,41,10,20,280,40*7E
369$GPGSV,3,2,12,11,12,108,00,13,28,031,41,15,06,216,00,17,85,039,51*7C
370$GPGSV,3,3,12,25,24,086,50,26,14,214,00,27,33,104,36,28,35,182,31*76
371$GPRMC,173132,A,0643.7075,S,03709.0583,W,014.6,304.7,030208,,,A*77
372$GPVTG,304.7,T,,M,014.6,N,027.2,K,A*09
373$GPGGA,173147,0643.7076,S,03709.1025,W,1,06,01.2,00243.8,M,-012.0,M,,*60
374$GPGSA,A,3,04,10,13,17,25,27,,,,,,,02.3,01.2,01.9*0B
375$GPGSV,3,1,12,02,04,331,00,04,22,003,43,08,37,142,33,10,20,280,46*7F
376$GPGSV,3,2,12,11,12,108,00,13,28,030,52,15,06,216,00,17,85,040,51*71
377$GPGSV,3,3,12,25,24,086,42,26,14,214,00,27,33,104,36,28,35,182,49*7A
378$GPRMC,173147,A,0643.7076,S,03709.1025,W,009.6,266.4,030208,,,A*74
379$GPVTG,266.4,T,,M,009.6,N,017.8,K,A*0A
380$GPGGA,173202,0643.7149,S,03709.1412,W,1,06,01.2,00242.6,M,-012.0,M,,*60
381$GPGSA,A,3,04,10,13,17,25,27,,,,,,,02.3,01.2,01.9*0B
382$GPGSV,3,1,12,02,04,331,00,04,22,003,37,08,37,142,47,10,20,280,40*79
383$GPGSV,3,2,12,11,12,108,00,13,28,030,38,15,06,216,00,17,85,041,51*7C
384$GPGSV,3,3,12,25,24,085,35,26,14,214,00,27,33,104,32,28,35,182,50*75
385$GPRMC,173202,A,0643.7149,S,03709.1412,W,012.9,256.4,030208,,,A*7D
386$GPVTG,256.4,T,,M,012.9,N,023.8,K,A*0B
387$GPGGA,173217,0643.7244,S,03709.1753,W,1,06,01.2,00240.7,M,-012.0,M,,*6F
388$GPGSA,A,3,04,10,13,17,25,27,,,,,,,02.3,01.2,01.9*0B
389$GPGSV,3,1,12,02,04,331,00,04,22,003,41,08,37,142,36,10,20,280,42*7C
390$GPGSV,3,2,12,11,12,108,00,13,28,030,51,15,06,216,00,17,85,043,52*72
391$GPGSV,3,3,12,25,24,085,38,26,14,214,00,27,33,104,43,28,35,182,51*7F
392$GPRMC,173217,A,0643.7244,S,03709.1753,W,008.1,257.1,030208,,,A*76
393$GPVTG,257.1,T,,M,008.1,N,015.1,K,A*00
394$GPGGA,173232,0643.7410,S,03709.2211,W,1,06,01.2,00238.0,M,-012.0,M,,*67
395$GPGSA,A,3,04,10,13,17,25,27,,,,,,,02.3,01.2,01.9*0B
396$GPGSV,3,1,12,02,04,332,00,04,22,003,34,08,37,142,33,10,20,280,40*7A
397$GPGSV,3,2,12,11,12,108,00,13,27,030,50,15,06,216,00,17,85,044,51*78
398$GPGSV,3,3,12,25,24,085,35,26,14,214,00,27,33,104,45,28,35,182,51*74
399$GPRMC,173232,A,0643.7410,S,03709.2211,W,014.6,253.9,030208,,,A*70
400$GPVTG,253.9,T,,M,014.6,N,027.1,K,A*07
401$GPGGA,173247,0643.7563,S,03709.2791,W,1,06,01.2,00236.3,M,-012.0,M,,*60
402$GPGSA,A,3,04,10,13,17,25,27,,,,,,,02.3,01.2,01.9*0B
403$GPGSV,3,1,12,02,04,332,00,04,22,003,38,08,37,142,34,10,20,281,36*71
404$GPGSV,3,2,12,11,12,108,00,13,27,030,50,15,06,216,00,17,85,045,51*79
405$GPGSV,3,3,12,25,24,085,40,26,14,214,00,27,33,103,45,28,35,182,51*71
406$GPRMC,173247,A,0643.7563,S,03709.2791,W,013.5,258.0,030208,,,A*7C
407$GPVTG,258.0,T,,M,013.5,N,025.0,K,A*02
408$GPGGA,173302,0643.7680,S,03709.3313,W,1,06,01.2,00235.7,M,-012.0,M,,*66
409$GPGSA,A,3,04,10,13,17,25,27,,,,,,,02.3,01.2,01.9*0B
410$GPGSV,3,1,12,02,04,332,00,04,22,003,35,08,37,141,36,10,20,281,36*7D
411$GPGSV,3,2,12,11,12,108,00,13,27,030,46,15,06,216,00,17,86,047,52*7C
412$GPGSV,3,3,12,25,24,085,33,26,14,214,00,27,33,103,43,28,35,181,51*70
413$GPRMC,173302,A,0643.7680,S,03709.3313,W,013.3,252.2,030208,,,A*73
414$GPVTG,252.2,T,,M,013.3,N,024.7,K,A*0A
415$GPGGA,173317,0643.7799,S,03709.3874,W,1,06,01.3,00234.4,M,-012.0,M,,*62
416$GPGSA,A,3,04,10,13,17,25,27,,,,,,,02.3,01.3,01.9*0A
417$GPGSV,3,1,12,02,04,332,00,04,22,003,34,08,37,141,41,10,20,281,44*79
418$GPGSV,3,2,12,11,12,108,00,13,27,030,48,15,07,216,00,17,86,048,50*7E
419$GPGSV,3,3,12,25,24,085,39,26,14,214,00,27,33,103,41,28,34,181,50*78
420$GPRMC,173317,A,0643.7799,S,03709.3874,W,014.3,263.2,030208,,,A*71
421$GPVTG,263.2,T,,M,014.3,N,026.6,K,A*0C
422$GPGGA,173332,0643.7821,S,03709.4517,W,1,06,01.3,00232.0,M,-012.0,M,,*64
423$GPGSA,A,3,04,10,13,17,25,27,,,,,,,02.3,01.3,01.9*0A
424$GPGSV,3,1,12,02,04,332,00,04,22,003,41,08,37,141,34,10,20,281,42*7F
425$GPGSV,3,2,12,11,12,108,00,13,27,030,39,15,07,216,00,17,86,050,51*70
426$GPGSV,3,3,12,25,24,085,41,26,14,214,00,27,33,103,42,28,34,181,51*75
427$GPRMC,173332,A,0643.7821,S,03709.4517,W,014.8,274.2,030208,,,A*78
428$GPVTG,274.2,T,,M,014.8,N,027.4,K,A*02
429$GPGGA,173347,0643.7745,S,03709.5096,W,1,06,01.3,00231.2,M,-012.0,M,,*67
430$GPGSA,A,3,04,10,13,17,25,27,,,,,,,02.3,01.3,01.9*0A
431$GPGSV,3,1,12,02,04,332,00,04,22,003,34,08,38,141,34,10,20,281,39*7E
432$GPGSV,3,2,12,11,12,109,00,13,27,030,40,15,07,216,00,17,86,051,51*7E
433$GPGSV,3,3,12,25,24,085,42,26,15,214,00,27,33,103,40,28,34,181,51*75
434$GPRMC,173347,A,0643.7745,S,03709.5096,W,013.5,279.0,030208,,,A*7F
435$GPVTG,279.0,T,,M,013.5,N,025.1,K,A*00
436$GPGGA,173402,0643.7715,S,03709.5556,W,1,06,01.3,00227.3,M,-012.0,M,,*6B
437$GPGSA,A,3,04,10,13,17,25,27,,,,,,,02.3,01.3,01.9*0A
438$GPGSV,3,1,12,02,04,332,00,04,22,003,41,08,38,141,32,10,20,281,39*7A
439$GPGSV,3,2,12,11,12,109,00,13,27,030,42,15,07,216,00,17,86,053,52*7D
440$GPGSV,3,3,12,25,24,084,40,26,15,214,00,27,33,103,43,28,34,181,50*74
441$GPRMC,173402,A,0643.7715,S,03709.5556,W,010.1,274.9,030208,,,A*76
442$GPVTG,274.9,T,,M,010.1,N,018.7,K,A*0B
443$GPGGA,173417,0643.7723,S,03709.6061,W,1,06,01.3,00226.6,M,-012.0,M,,*6C
444$GPGSA,A,3,04,10,13,17,25,27,,,,,,,02.3,01.3,01.9*0A
445$GPGSV,3,1,12,02,04,332,00,04,22,004,34,08,38,141,45,10,20,281,36*70
446$GPGSV,3,2,12,11,12,109,00,13,27,030,42,15,07,216,00,17,86,054,52*7A
447$GPGSV,3,3,12,25,24,084,41,26,15,214,00,27,33,103,42,28,34,181,41*74
448$GPRMC,173417,A,0643.7723,S,03709.6061,W,017.0,297.6,030208,,,A*71
449$GPVTG,297.6,T,,M,017.0,N,031.5,K,A*06
450$GPGGA,173432,0643.7376,S,03709.6572,W,1,06,01.3,00225.7,M,-012.0,M,,*6A
451$GPGSA,A,3,04,10,13,17,25,27,,,,,,,02.3,01.3,01.9*0A
452$GPGSV,3,1,12,02,04,332,00,04,22,004,36,08,38,141,35,10,20,281,43*77
453$GPGSV,3,2,12,11,12,109,00,13,27,030,35,15,07,216,00,17,86,056,52*78
454$GPGSV,3,3,12,25,24,084,38,26,15,214,00,27,33,102,41,28,34,181,36*78
455$GPRMC,173432,A,0643.7376,S,03709.6572,W,014.2,301.9,030208,,,A*75
456$GPVTG,301.9,T,,M,014.2,N,026.4,K,A*01
457$GPGGA,173447,0643.6961,S,03709.7004,W,1,06,01.3,00227.1,M,-012.0,M,,*64
458$GPGSA,A,3,04,10,13,17,25,27,,,,,,,02.3,01.3,01.9*0A
459$GPGSV,3,1,12,02,05,332,00,04,22,004,36,08,38,140,33,10,20,282,37*71
460$GPGSV,3,2,12,11,12,109,00,13,26,030,35,15,07,216,00,17,86,058,51*74
461$GPGSV,3,3,12,25,24,084,45,26,15,214,00,27,33,102,45,28,34,181,39*79
462$GPRMC,173447,A,0643.6961,S,03709.7004,W,016.4,316.3,030208,,,A*77
463$GPVTG,316.3,T,,M,016.4,N,030.5,K,A*0F
464$GPGGA,173502,0643.6643,S,03709.7288,W,1,05,01.6,00227.8,M,-012.0,M,,*62
465$GPGSA,A,3,10,13,17,25,27,,,,,,,,02.5,01.6,01.9*0D
466$GPGSV,3,1,12,02,05,332,00,04,22,004,32,08,38,140,35,10,20,282,45*76
467$GPGSV,3,2,12,11,12,109,00,13,26,030,34,15,07,216,00,17,86,060,52*7D
468$GPGSV,3,3,12,25,24,084,44,26,15,214,00,27,33,102,46,28,34,181,40*75
469$GPRMC,173502,A,0643.6643,S,03709.7288,W,007.8,310.0,030208,,,A*77
470$GPVTG,310.0,T,,M,007.8,N,014.4,K,A*01
471$GPGGA,173517,0643.6537,S,03709.7604,W,1,06,01.3,00229.0,M,-012.0,M,,*66
472$GPGSA,A,3,04,10,13,17,25,27,,,,,,,02.3,01.3,01.9*0A
473$GPGSV,3,1,12,02,05,332,00,04,22,004,34,08,38,140,42,10,20,282,46*73
474$GPGSV,3,2,12,11,12,109,00,13,26,030,47,15,07,217,00,17,86,062,51*79
475$GPGSV,3,3,12,25,24,084,38,26,15,214,00,27,33,102,42,28,34,180,49*72
476$GPRMC,173517,A,0643.6537,S,03709.7604,W,009.7,260.6,030208,,,A*72
477$GPVTG,260.6,T,,M,009.7,N,018.0,K,A*08
478$GPGGA,173532,0643.6476,S,03709.7925,W,1,06,01.3,00231.2,M,-012.0,M,,*62
479$GPGSA,A,3,04,10,13,17,25,27,,,,,,,02.3,01.3,02.0*00
480$GPGSV,3,1,12,02,05,332,00,04,22,004,33,08,38,140,35,10,20,282,46*74
481$GPGSV,3,2,12,11,12,109,00,13,26,030,38,15,07,217,00,17,86,063,52*73
482$GPGSV,3,3,12,25,24,084,47,26,15,214,00,27,33,102,42,28,34,180,36*72
483$GPRMC,173532,A,0643.6476,S,03709.7925,W,008.4,299.6,030208,,,A*79
484$GPVTG,299.6,T,,M,008.4,N,015.5,K,A*04
485$GPGGA,173547,0643.6165,S,03709.8416,W,1,06,01.3,00232.8,M,-012.0,M,,*6C
486$GPGSA,A,3,04,10,13,17,25,27,,,,,,,02.4,01.3,02.0*07
487$GPGSV,3,1,12,02,05,333,00,04,22,004,33,08,38,140,47,10,20,282,43*75
488$GPGSV,3,2,12,11,12,109,00,13,26,030,41,15,07,217,00,17,86,065,50*79
489$GPGSV,3,3,12,25,24,084,36,26,15,214,00,27,33,102,42,28,34,180,45*70
490$GPRMC,173547,A,0643.6165,S,03709.8416,W,017.9,293.2,030208,,,A*73
491$GPVTG,293.2,T,,M,017.9,N,033.1,K,A*09
492$GPGGA,173602,0643.5874,S,03709.9036,W,1,06,01.3,00245.6,M,-012.0,M,,*6D
493$GPGSA,A,3,04,10,13,17,25,27,,,,,,,02.4,01.3,02.0*07
494$GPGSV,3,1,12,02,05,333,00,04,23,004,39,08,38,140,35,10,20,282,42*7A
495$GPGSV,3,2,12,11,12,109,00,13,26,030,46,15,08,217,00,17,86,068,51*7D
496$GPGSV,3,3,12,25,24,083,42,26,15,214,00,27,33,101,42,28,34,180,47*75
497$GPRMC,173602,A,0643.5874,S,03709.9036,W,018.4,284.8,030208,,,A*72
498$GPVTG,284.8,T,,M,018.4,N,034.0,K,A*01
499$GPGGA,173617,0643.5771,S,03709.9444,W,1,05,01.6,00248.9,M,-012.0,M,,*66
500$GPGSA,A,3,10,13,17,25,27,,,,,,,,02.5,01.6,02.0*07
501$GPGSV,3,1,12,02,05,333,00,04,23,004,31,08,38,140,47,10,20,282,44*71
502$GPGSV,3,2,12,11,12,110,00,13,26,030,43,15,08,217,00,17,86,070,52*7A
503$GPGSV,3,3,12,25,24,083,33,26,15,214,00,27,33,101,36,28,34,180,48*7F
504$GPRMC,173617,A,0643.5771,S,03709.9444,W,010.1,289.6,030208,,,A*73
505$GPVTG,289.6,T,,M,010.1,N,018.8,K,A*09
506$GPGGA,173632,0643.5551,S,03709.9936,W,1,06,01.3,00248.0,M,-012.0,M,,*66
507$GPGSA,A,3,04,10,13,17,25,27,,,,,,,02.4,01.3,02.0*07
508$GPGSV,3,1,12,02,05,333,00,04,23,004,35,08,38,139,39,10,20,282,43*75
509$GPGSV,3,2,12,11,12,110,00,13,26,030,40,15,08,217,00,17,86,072,51*78
510$GPGSV,3,3,12,25,24,083,40,26,16,214,00,27,33,101,43,28,34,180,46*74
511$GPRMC,173632,A,0643.5551,S,03709.9936,W,012.1,294.1,030208,,,A*75
512$GPVTG,294.1,T,,M,012.1,N,022.5,K,A*04
513$GPGGA,173647,0643.5468,S,03710.0354,W,1,06,01.3,00242.4,M,-012.0,M,,*6E
514$GPGSA,A,3,04,10,13,17,25,27,,,,,,,02.4,01.3,02.0*07
515$GPGSV,3,1,12,02,05,333,00,04,23,004,34,08,38,139,48,10,20,283,46*76
516$GPGSV,3,2,12,11,12,110,00,13,26,030,39,15,08,217,00,17,86,074,52*73
517$GPGSV,3,3,12,25,24,083,36,26,16,214,00,27,33,101,35,28,34,180,45*77
518$GPRMC,173647,A,0643.5468,S,03710.0354,W,008.1,289.3,030208,,,A*76
519$GPVTG,289.3,T,,M,008.1,N,015.0,K,A*00
520$GPGGA,173702,0643.5359,S,03710.0757,W,1,06,01.3,00242.4,M,-012.0,M,,*6C
521$GPGSA,A,3,04,10,13,17,25,27,,,,,,,02.4,01.3,02.0*07
522$GPGSV,3,1,12,02,05,333,00,04,23,005,37,08,38,139,46,10,20,283,44*78
523$GPGSV,3,2,12,11,12,110,00,13,26,030,44,15,08,217,00,17,86,076,50*79
524$GPGSV,3,3,12,25,23,083,41,26,16,214,00,27,33,101,41,28,34,180,50*77
525$GPRMC,173702,A,0643.5359,S,03710.0757,W,012.3,289.6,030208,,,A*78
526$GPVTG,289.6,T,,M,012.3,N,022.8,K,A*00
527$GPGGA,173717,0643.5273,S,03710.1317,W,1,06,01.3,00241.0,M,-012.0,M,,*67
528$GPGSA,A,3,04,10,13,17,25,27,,,,,,,02.4,01.3,02.0*07
529$GPGSV,3,1,12,02,05,333,00,04,23,005,35,08,38,139,45,10,20,283,45*78
530$GPGSV,3,2,12,11,12,110,00,13,25,030,45,15,08,217,00,17,86,078,51*74
531$GPGSV,3,3,12,25,23,083,45,26,16,214,00,27,33,101,40,28,34,179,49*7C
532$GPRMC,173717,A,0643.5273,S,03710.1317,W,013.6,288.4,030208,,,A*73
533$GPVTG,288.4,T,,M,013.6,N,025.3,K,A*0B
534$GPGGA,173732,0643.5009,S,03710.1925,W,1,06,01.3,00241.5,M,-012.0,M,,*61
535$GPGSA,A,3,04,10,13,17,25,27,,,,,,,02.4,01.3,02.0*07
536$GPGSV,3,1,12,02,05,333,00,04,23,005,34,08,38,139,46,10,20,283,43*7C
537$GPGSV,3,2,12,11,12,110,00,13,25,030,40,15,08,217,00,17,86,080,52*75
538$GPGSV,3,3,12,25,23,083,37,26,16,214,00,27,33,101,36,28,33,179,49*7F
539$GPRMC,173732,A,0643.5009,S,03710.1925,W,017.4,289.7,030208,,,A*74
540$GPVTG,289.7,T,,M,017.4,N,032.3,K,A*09
541$GPGGA,173747,0643.4880,S,03710.2377,W,1,06,01.3,00240.0,M,-012.0,M,,*61
542$GPGSA,A,3,04,10,13,17,25,27,,,,,,,02.4,01.3,02.0*07
543$GPGSV,3,1,12,02,05,333,00,04,23,005,40,08,38,139,32,10,20,283,39*71
544$GPGSV,3,2,12,11,12,110,00,13,25,030,38,15,08,217,00,17,86,083,52*79
545$GPGSV,3,3,12,25,23,083,35,26,16,214,00,27,33,100,35,28,33,179,50*77
546$GPRMC,173747,A,0643.4880,S,03710.2377,W,012.6,284.6,030208,,,A*7B
547$GPVTG,284.6,T,,M,012.6,N,023.3,K,A*02
548$GPGGA,173802,0643.4901,S,03710.2924,W,1,06,01.3,00238.9,M,-012.0,M,,*6D
549$GPGSA,A,3,04,10,13,17,25,27,,,,,,,02.4,01.3,02.0*07
550$GPGSV,3,1,12,02,05,333,00,04,23,005,41,08,38,139,39,10,20,283,42*77
551$GPGSV,3,2,12,11,12,110,00,13,25,030,51,15,08,217,00,17,86,085,49*7A
552$GPGSV,3,3,12,25,23,082,41,26,16,214,00,27,33,100,44,28,33,179,47*75
553$GPRMC,173802,A,0643.4901,S,03710.2924,W,015.7,260.4,030208,,,A*7F
554$GPVTG,260.4,T,,M,015.7,N,029.2,K,A*07
555$GPGGA,173817,0643.4935,S,03710.3543,W,1,06,01.3,00238.5,M,-012.0,M,,*6E
556$GPGSA,A,3,04,10,13,17,25,27,,,,,,,02.4,01.3,02.0*07
557$GPGSV,3,1,12,02,05,333,00,04,23,005,35,08,38,138,36,10,20,283,41*79
558$GPGSV,3,2,12,11,11,110,00,13,25,029,45,15,08,217,00,17,86,087,51*7F
559$GPGSV,3,3,12,25,23,082,41,26,16,215,00,27,33,100,41,28,33,179,49*7F
560$GPRMC,173817,A,0643.4935,S,03710.3543,W,016.1,280.8,030208,,,A*77
561$GPVTG,280.8,T,,M,016.1,N,029.9,K,A*0B
562$GPGGA,173832,0643.4738,S,03710.4095,W,1,05,01.6,00228.0,M,-012.0,M,,*61
563$GPGSA,A,3,10,13,17,25,27,,,,,,,,02.6,01.6,02.0*04
564$GPGSV,3,1,12,02,05,333,00,04,23,005,30,08,38,138,46,10,20,283,44*7E
565$GPGSV,3,2,12,11,11,110,00,13,25,029,35,15,08,217,00,17,86,089,52*75
566$GPGSV,3,3,12,25,23,082,34,26,16,215,00,27,33,100,41,28,33,179,46*72
567$GPRMC,173832,A,0643.4738,S,03710.4095,W,011.8,294.5,030208,,,A*7C
568$GPVTG,294.5,T,,M,011.8,N,021.8,K,A*04
569$GPGGA,173847,0643.4586,S,03710.4641,W,1,05,01.5,00225.8,M,-012.0,M,,*6D
570$GPGSA,A,3,04,10,13,17,25,,,,,,,,02.6,01.5,02.1*07
571$GPGSV,3,1,12,02,05,334,00,04,23,005,37,08,38,138,46,10,19,284,45*72
572$GPGSV,3,2,12,11,11,111,00,13,25,029,42,15,09,217,00,17,86,091,51*7F
573$GPGSV,3,3,12,25,23,082,35,26,16,215,00,27,33,100,31,28,33,179,50*73
574$GPRMC,173847,A,0643.4586,S,03710.4641,W,016.1,289.4,030208,,,A*75
575$GPVTG,289.4,T,,M,016.1,N,029.9,K,A*0E
576$GPGGA,173902,0643.4359,S,03710.5204,W,1,06,01.3,00227.8,M,-012.0,M,,*6A
577$GPGSA,A,3,04,10,13,17,25,27,,,,,,,02.4,01.3,02.0*07
578$GPGSV,3,1,12,02,05,334,00,04,23,005,33,08,38,138,47,10,19,284,46*74
579$GPGSV,3,2,12,11,11,111,00,13,25,029,43,15,09,217,00,17,86,094,51*7B
580$GPGSV,3,3,12,25,23,082,40,26,17,215,00,27,33,100,40,28,33,179,51*77
581$GPRMC,173902,A,0643.4359,S,03710.5204,W,014.9,287.4,030208,,,A*71
582$GPVTG,287.4,T,,M,014.9,N,027.7,K,A*0A
583$GPGGA,173917,0643.4248,S,03710.5672,W,1,06,01.3,00229.3,M,-012.0,M,,*6F
584$GPGSA,A,3,04,10,13,17,25,27,,,,,,,02.4,01.3,02.0*07
585$GPGSV,3,1,12,02,05,334,00,04,23,005,40,08,38,138,45,10,19,284,44*70
586$GPGSV,3,2,12,11,11,111,00,13,25,029,45,15,09,217,00,17,86,096,50*7E
587$GPGSV,3,3,12,25,23,082,42,26,17,215,00,27,33,100,40,28,33,179,50*74
588$GPRMC,173917,A,0643.4248,S,03710.5672,W,006.4,289.1,030208,,,A*74
589$GPVTG,289.1,T,,M,006.4,N,011.9,K,A*04
590$GPGGA,173932,0643.4026,S,03710.6168,W,1,06,01.3,00232.1,M,-012.0,M,,*65
591$GPGSA,A,3,04,10,13,17,25,27,,,,,,,02.4,01.3,02.0*07
592$GPGSV,3,1,12,02,06,334,00,04,23,005,34,08,38,138,49,10,19,284,45*7D
593$GPGSV,3,2,12,11,11,111,00,13,24,029,41,15,09,217,00,17,86,098,51*74
594$GPGSV,3,3,12,25,23,082,35,26,17,215,00,27,33,099,35,28,33,178,48*7F
595$GPRMC,173932,A,0643.4026,S,03710.6168,W,017.9,288.7,030208,,,A*7C
596$GPVTG,288.7,T,,M,017.9,N,033.3,K,A*04
597$GPGGA,173947,0643.3826,S,03710.6801,W,1,05,01.6,00234.4,M,-012.0,M,,*6B
598$GPGSA,A,3,04,10,13,17,25,,,,,,,,02.6,01.6,02.1*04
599$GPGSV,3,1,12,02,06,334,00,04,23,006,35,08,38,138,47,10,19,284,43*77
600$GPGSV,3,2,12,11,11,111,00,13,24,029,40,15,09,217,00,17,86,100,52*76
601$GPGSV,3,3,12,25,23,082,42,26,17,215,00,27,33,099,31,28,33,178,46*75
602$GPRMC,173947,A,0643.3826,S,03710.6801,W,015.8,288.7,030208,,,A*74
603$GPVTG,288.7,T,,M,015.8,N,029.3,K,A*0C
604$GPGGA,174002,0643.3646,S,03710.7334,W,1,06,01.3,00232.9,M,-012.0,M,,*6D
605$GPGSA,A,3,04,10,13,17,25,27,,,,,,,02.4,01.3,02.0*07
606$GPGSV,3,1,12,02,06,334,00,04,23,006,32,08,38,137,43,10,19,284,39*76
607$GPGSV,3,2,12,11,11,111,00,13,24,029,42,15,09,217,00,17,86,102,48*7D
608$GPGSV,3,3,12,25,23,081,46,26,17,215,00,27,33,099,39,28,33,178,39*72
609$GPRMC,174002,A,0643.3646,S,03710.7334,W,012.2,299.2,030208,,,A*77
610$GPVTG,299.2,T,,M,012.2,N,022.7,K,A*0B
611$GPGGA,174017,0643.3335,S,03710.7856,W,1,06,01.3,00230.3,M,-012.0,M,,*6F
612$GPGSA,A,3,04,10,13,17,25,27,,,,,,,02.4,01.3,02.0*07
613$GPGSV,3,1,12,02,06,334,00,04,24,006,37,08,38,137,42,10,19,284,45*7E
614$GPGSV,3,2,12,11,11,111,00,13,24,029,40,15,09,217,00,17,86,104,49*78
615$GPGSV,3,3,12,25,23,081,49,26,17,215,00,27,33,099,41,28,33,178,39*72
616$GPRMC,174017,A,0643.3335,S,03710.7856,W,015.0,302.9,030208,,,A*70
617$GPVTG,302.9,T,,M,015.0,N,027.8,K,A*0C
618$GPGGA,174032,0643.2871,S,03710.8410,W,1,06,01.3,00228.5,M,-012.0,M,,*6C
619$GPGSA,A,3,04,10,13,17,25,27,,,,,,,02.4,01.3,02.0*07
620$GPGSV,3,1,12,02,06,334,00,04,24,006,35,08,38,137,46,10,19,284,46*7B
621$GPGSV,3,2,12,11,11,111,00,13,24,029,39,15,09,217,00,17,86,106,51*7D
622$GPGSV,3,3,12,25,23,081,47,26,17,215,00,27,33,099,42,28,33,178,36*70
623$GPRMC,174032,A,0643.2871,S,03710.8410,W,016.6,305.6,030208,,,A*71
624$GPVTG,305.6,T,,M,016.6,N,030.8,K,A*07
625$GPGGA,174047,0643.2535,S,03710.8939,W,1,06,01.3,00227.7,M,-012.0,M,,*68
626$GPGSA,A,3,04,10,13,17,25,27,,,,,,,02.4,01.3,02.0*07
627$GPGSV,3,1,12,02,06,334,00,04,24,006,39,08,38,137,48,10,19,285,39*70
628$GPGSV,3,2,12,11,11,111,00,13,24,029,37,15,09,217,00,17,86,108,52*7E
629$GPGSV,3,3,12,25,23,081,47,26,17,215,00,27,33,099,44,28,33,178,30*70
630$GPRMC,174047,A,0643.2535,S,03710.8939,W,013.9,297.6,030208,,,A*78
631$GPVTG,297.6,T,,M,013.9,N,025.7,K,A*0C
632$GPGGA,174102,0643.2182,S,03710.9426,W,1,06,01.3,00225.8,M,-012.0,M,,*6F
633$GPGSA,A,3,04,10,13,17,25,27,,,,,,,02.4,01.3,02.0*07
634$GPGSV,3,1,12,02,06,334,00,04,24,006,33,08,38,137,48,10,19,285,42*76
635$GPGSV,3,2,12,11,11,111,00,13,24,029,38,15,09,217,00,17,86,110,52*78
636$GPGSV,3,3,12,25,23,081,49,26,17,215,00,27,33,099,42,28,33,178,32*7A
637$GPRMC,174102,A,0643.2182,S,03710.9426,W,014.7,305.7,030208,,,A*70
638$GPVTG,305.7,T,,M,014.7,N,027.2,K,A*09
639$GPGGA,174117,0643.1921,S,03710.9894,W,1,05,01.7,00225.4,M,-012.0,M,,*67
640$GPGSA,A,3,10,13,17,25,27,,,,,,,,02.7,01.7,02.1*05
641$GPGSV,3,1,12,02,06,334,00,04,24,006,32,08,38,137,48,10,19,285,41*74
642$GPGSV,3,2,12,11,11,112,00,13,24,029,41,15,09,217,00,17,86,111,52*74
643$GPGSV,3,3,12,25,23,081,34,26,17,215,00,27,33,098,39,28,33,178,46*7E
644$GPRMC,174117,A,0643.1921,S,03710.9894,W,013.2,287.3,030208,,,A*7E
645$GPVTG,287.3,T,,M,013.2,N,024.4,K,A*01
646$GPGGA,174132,0643.1817,S,03711.0369,W,1,06,01.3,00225.0,M,-012.0,M,,*66
647$GPGSA,A,3,04,10,13,17,25,27,,,,,,,02.4,01.3,02.0*07
648$GPGSV,3,1,12,02,06,334,00,04,24,006,40,08,39,137,43,10,19,285,38*75
649$GPGSV,3,2,12,11,11,112,00,13,24,029,43,15,10,217,00,17,86,113,51*7F
650$GPGSV,3,3,12,25,23,081,43,26,17,215,00,27,33,098,44,28,32,178,49*7A
651$GPRMC,174132,A,0643.1817,S,03711.0369,W,005.9,268.8,030208,,,A*7A
652$GPVTG,268.8,T,,M,005.9,N,011.0,K,A*05
653$GPGGA,174147,0643.1828,S,03711.0901,W,1,06,01.3,00223.6,M,-012.0,M,,*6C
654$GPGSA,A,3,04,10,13,17,25,27,,,,,,,02.4,01.3,02.0*07
655$GPGSV,3,1,12,02,06,334,00,04,24,006,42,08,39,136,41,10,19,285,42*79
656$GPGSV,3,2,12,11,11,112,00,13,24,029,40,15,10,217,00,17,86,115,41*7B
657$GPGSV,3,3,12,25,23,081,42,26,18,215,00,27,33,098,41,28,32,177,51*77
658$GPRMC,174147,A,0643.1828,S,03711.0901,W,024.0,273.7,030208,,,A*7F
659$GPVTG,273.7,T,,M,024.0,N,044.6,K,A*0C
660$GPGGA,174202,0643.1712,S,03711.2061,W,1,06,01.3,00219.3,M,-012.0,M,,*69
661$GPGSA,A,3,04,10,13,17,25,27,,,,,,,02.5,01.3,02.0*06
662$GPGSV,3,1,12,02,06,335,00,04,24,006,40,08,39,136,41,10,19,285,41*79
663$GPGSV,3,2,12,11,11,112,00,13,23,029,45,15,10,217,00,17,86,116,47*7C
664$GPGSV,3,3,12,25,23,080,42,26,18,215,00,27,33,098,45,28,32,177,50*73
665$GPRMC,174202,A,0643.1712,S,03711.2061,W,030.5,276.0,030208,,,A*74
666$GPVTG,276.0,T,,M,030.5,N,056.4,K,A*0F
667$GPGGA,174217,0643.1610,S,03711.3291,W,1,06,01.3,00217.4,M,-012.0,M,,*6B
668$GPGSA,A,3,04,10,13,17,25,27,,,,,,,02.5,01.3,02.0*06
669$GPGSV,3,1,12,02,06,335,00,04,24,006,41,08,39,136,36,10,19,285,46*7F
670$GPGSV,3,2,12,11,11,112,00,13,23,029,46,15,10,217,00,17,86,118,52*75
671$GPGSV,3,3,12,25,23,080,41,26,18,215,00,27,33,098,36,28,32,177,48*7D
672$GPRMC,174217,A,0643.1610,S,03711.3291,W,029.1,276.0,030208,,,A*73
673$GPVTG,276.0,T,,M,029.1,N,053.8,K,A*0A
674$GPGGA,174232,0643.1518,S,03711.4382,W,1,06,01.3,00215.5,M,-012.0,M,,*60
675$GPGSA,A,3,04,10,13,17,25,27,,,,,,,02.5,01.3,02.0*06
676$GPGSV,3,1,12,02,06,335,00,04,24,007,40,08,39,136,38,10,19,285,45*72
677$GPGSV,3,2,12,11,11,112,00,13,23,029,45,15,10,217,00,17,86,119,49*7D
678$GPGSV,3,3,12,25,23,080,43,26,18,215,00,27,33,098,36,28,32,177,50*76
679$GPRMC,174232,A,0643.1518,S,03711.4382,W,020.5,273.0,030208,,,A*73
680$GPVTG,273.0,T,,M,020.5,N,038.0,K,A*07
681$GPGGA,174247,0643.1391,S,03711.5338,W,1,06,01.3,00215.0,M,-012.0,M,,*60
682$GPGSA,A,3,04,10,13,17,25,27,,,,,,,02.5,01.3,02.0*06
683$GPGSV,3,1,12,02,06,335,00,04,24,007,41,08,39,136,35,10,19,286,44*7C
684$GPGSV,3,2,12,11,11,112,00,13,23,029,40,15,10,217,00,17,86,121,50*7B
685$GPGSV,3,3,12,25,23,080,37,26,18,215,00,27,33,098,33,28,32,177,46*77
686$GPRMC,174247,A,0643.1391,S,03711.5338,W,028.0,274.8,030208,,,A*74
687$GPVTG,274.8,T,,M,028.0,N,052.0,K,A*09
688$GPGGA,174302,0643.1182,S,03711.6048,W,1,06,01.4,00226.7,M,-012.0,M,,*67
689$GPGSA,A,3,04,10,13,17,25,27,,,,,,,02.5,01.4,02.0*01
690$GPGSV,3,1,12,02,06,335,00,04,24,007,42,08,39,136,41,10,19,286,42*7A
691$GPGSV,3,2,12,11,11,112,00,13,23,029,43,15,10,217,00,17,85,122,49*70
692$GPGSV,3,3,12,25,23,080,43,26,18,215,00,27,33,097,44,28,32,177,50*7C
693$GPRMC,174302,A,0643.1182,S,03711.6048,W,014.2,274.5,030208,,,A*73
694$GPVTG,274.5,T,,M,014.2,N,026.3,K,A*09
695$GPGGA,174317,0643.1156,S,03711.6836,W,1,06,01.4,00225.1,M,-012.0,M,,*6E
696$GPGSA,A,3,04,10,13,17,25,27,,,,,,,02.5,01.4,02.1*00
697$GPGSV,3,1,12,02,06,335,00,04,24,007,46,08,39,136,41,10,19,286,42*7E
698$GPGSV,3,2,12,11,11,112,00,13,23,029,45,15,10,217,00,17,85,123,43*7D
699$GPGSV,3,3,12,25,23,080,43,26,18,215,00,27,33,097,44,28,32,177,51*7D
700$GPRMC,174317,A,0643.1156,S,03711.6836,W,022.1,273.9,030208,,,A*72
701$GPVTG,273.9,T,,M,022.1,N,041.0,K,A*06
702$GPGGA,174332,0643.1158,S,03711.7653,W,1,06,01.4,00216.3,M,-012.0,M,,*69
703$GPGSA,A,3,04,10,13,17,25,27,,,,,,,02.5,01.4,02.1*00
704$GPGSV,3,1,12,02,06,335,00,04,24,007,46,08,39,135,35,10,19,286,42*7E
705$GPGSV,3,2,12,11,11,112,00,13,23,029,46,15,10,218,00,17,85,125,44*70
706$GPGSV,3,3,12,25,23,080,40,26,18,215,00,27,33,097,41,28,32,177,51*7B
707$GPRMC,174332,A,0643.1158,S,03711.7653,W,019.2,274.8,030208,,,A*7A
708$GPVTG,274.8,T,,M,019.2,N,035.6,K,A*0E
709$GPGGA,174347,0643.1088,S,03711.8533,W,1,06,01.4,00212.6,M,-012.0,M,,*6C
710$GPGSA,A,3,04,10,13,17,25,27,,,,,,,02.5,01.4,02.1*00
711$GPGSV,3,1,12,02,06,335,00,04,24,007,36,08,39,135,33,10,19,286,45*78
712$GPGSV,3,2,12,11,11,113,00,13,23,029,33,15,10,218,00,17,85,126,47*73
713$GPGSV,3,3,12,25,23,080,41,26,18,215,00,27,33,097,40,28,32,177,49*72
714$GPRMC,174347,A,0643.1088,S,03711.8533,W,020.8,273.8,030208,,,A*79
715$GPVTG,273.8,T,,M,020.8,N,038.6,K,A*04
716$GPGGA,174402,0643.1076,S,03711.9041,W,1,06,01.4,00199.3,M,-012.0,M,,*6F
717$GPGSA,A,3,04,10,13,17,25,27,,,,,,,02.5,01.4,02.1*00
718$GPGSV,3,1,12,02,06,335,00,04,24,007,37,08,39,135,40,10,19,286,35*7A
719$GPGSV,3,2,12,11,11,113,00,13,23,029,42,15,10,218,00,17,85,127,42*71
720$GPGSV,3,3,12,25,23,080,42,26,18,215,00,27,33,097,43,28,32,176,50*7B
721$GPRMC,174402,A,0643.1076,S,03711.9041,W,010.8,282.6,030208,,,A*7C
722$GPVTG,282.6,T,,M,010.8,N,020.0,K,A*08
723$GPGGA,174417,0643.1111,S,03711.9426,W,1,06,01.4,00213.7,M,-012.0,M,,*6B
724$GPGSA,A,3,04,10,13,17,25,27,,,,,,,02.5,01.4,02.1*00
725$GPGSV,3,1,12,02,07,335,00,04,25,007,34,08,39,135,35,10,19,286,42*7B
726$GPGSV,3,2,12,11,11,113,00,13,22,029,35,15,11,218,00,17,85,128,45*79
727$GPGSV,3,3,12,25,23,079,42,26,18,215,00,27,33,097,45,28,32,176,50*7B
728$GPRMC,174417,A,0643.1111,S,03711.9426,W,010.2,267.8,030208,,,A*72
729$GPVTG,267.8,T,,M,010.2,N,019.0,K,A*0D
730$GPGGA,174432,0643.1130,S,03711.9745,W,1,06,01.4,00211.3,M,-012.0,M,,*6F
731$GPGSA,A,3,04,10,13,17,25,27,,,,,,,02.5,01.4,02.1*00
732$GPGSV,3,1,12,02,07,335,00,04,25,007,39,08,39,135,40,10,19,286,41*77
733$GPGSV,3,2,12,11,11,113,00,13,22,029,41,15,11,218,00,17,85,129,49*77
734$GPGSV,3,3,12,25,23,079,41,26,19,215,00,27,33,097,35,28,32,176,49*76
735$GPRMC,174432,A,0643.1130,S,03711.9745,W,000.7,267.5,030208,,,A*79
736$GPVTG,267.5,T,,M,000.7,N,001.3,K,A*0E
737$GPGGA,174447,0643.1123,S,03712.0013,W,1,06,01.4,00209.5,M,-012.0,M,,*6E
738$GPGSA,A,3,04,10,13,17,25,27,,,,,,,02.5,01.4,02.1*00
739$GPGSV,3,1,12,02,07,335,00,04,25,007,35,08,39,135,35,10,19,287,39*77
740$GPGSV,3,2,12,11,11,113,00,13,22,029,35,15,11,218,00,17,85,130,47*72
741$GPGSV,3,3,12,25,23,079,39,26,19,215,00,27,33,096,40,28,32,176,49*7A
742$GPRMC,174447,A,0643.1123,S,03712.0013,W,006.7,259.9,030208,,,A*70
743$GPVTG,259.9,T,,M,006.7,N,012.4,K,A*0C
744$GPGGA,174502,0643.0911,S,03712.0398,W,1,06,01.4,00215.0,M,-012.0,M,,*6E
745$GPGSA,A,3,04,10,13,17,25,27,,,,,,,02.5,01.4,02.1*00
746$GPGSV,3,1,12,02,07,335,00,04,25,008,36,08,39,135,33,10,19,287,36*72
747$GPGSV,3,2,12,11,11,113,00,13,22,029,36,15,11,218,00,17,85,131,47*70
748$GPGSV,3,3,12,25,22,079,45,26,19,215,00,27,33,096,41,28,32,176,49*71
749$GPRMC,174502,A,0643.0911,S,03712.0398,W,007.2,280.2,030208,,,A*73
750$GPVTG,280.2,T,,M,007.2,N,013.5,K,A*07
751$GPGGA,174517,0643.0983,S,03712.0707,W,1,06,01.4,00214.9,M,-012.0,M,,*6B
752$GPGSA,A,3,04,10,13,17,25,27,,,,,,,02.5,01.4,02.1*00
753$GPGSV,3,1,12,02,07,336,00,04,25,008,43,08,39,134,48,10,19,287,39*71
754$GPGSV,3,2,12,11,11,113,00,13,22,029,33,15,11,218,00,17,85,132,51*71
755$GPGSV,3,3,12,25,22,079,39,26,19,215,00,27,33,096,48,28,32,176,51*7A
756$GPRMC,174517,A,0643.0983,S,03712.0707,W,003.5,221.1,030208,,,A*75
757$GPVTG,221.1,T,,M,003.5,N,006.5,K,A*08
758$GPGGA,174532,0643.1131,S,03712.0736,W,1,05,11.0,00215.2,M,-012.0,M,,*62
759$GPGSA,A,3,04,13,17,25,27,,,,,,,,18.2,11.0,14.4*0A
760$GPGSV,3,1,12,02,07,336,00,04,25,008,46,08,39,134,51,10,19,287,31*74
761$GPGSV,3,2,12,11,11,113,00,13,22,029,34,15,11,218,00,17,85,133,51*77
762$GPGSV,3,3,12,25,22,079,46,26,19,216,00,27,33,096,48,28,32,176,51*71
763$GPRMC,174532,A,0643.1131,S,03712.0736,W,000.9,199.6,030208,,,A*78
764$GPVTG,199.6,T,,M,000.9,N,001.7,K,A*05
765$GPGGA,174547,0643.1343,S,03712.0745,W,1,06,01.4,00215.5,M,-012.0,M,,*62
766$GPGSA,A,3,04,10,13,17,25,27,,,,,,,02.5,01.4,02.1*00
767$GPGSV,3,1,12,02,07,336,00,04,25,008,36,08,39,134,49,10,19,287,34*7F
768$GPGSV,3,2,12,11,10,113,00,13,22,029,36,15,11,218,00,17,84,134,52*71
769$GPGSV,3,3,12,25,22,079,46,26,19,216,00,27,33,096,48,28,32,176,40*71
770$GPRMC,174547,A,0643.1343,S,03712.0745,W,005.7,145.7,030208,,,A*72
771$GPVTG,145.7,T,,M,005.7,N,010.7,K,A*0E
772$GPGGA,174602,0643.1449,S,03712.0598,W,1,06,01.4,00215.0,M,-012.0,M,,*6A
773$GPGSA,A,3,04,10,13,17,25,27,,,,,,,02.5,01.4,02.1*00
774$GPGSV,3,1,12,02,07,336,00,04,25,008,45,08,39,134,35,10,19,287,33*77
775$GPGSV,3,2,12,11,10,113,00,13,22,029,34,15,11,218,00,17,84,135,52*72
776$GPGSV,3,3,12,25,22,079,42,26,19,216,00,27,33,096,49,28,31,176,42*75
777$GPRMC,174602,A,0643.1449,S,03712.0598,W,002.2,159.5,030208,,,A*72
778$GPVTG,159.5,T,,M,002.2,N,004.2,K,A*03
779$GPGGA,174617,0643.1530,S,03712.0309,W,1,06,01.4,00214.8,M,-012.0,M,,*66
780$GPGSA,A,3,04,10,13,17,25,27,,,,,,,02.5,01.4,02.1*00
781$GPGSV,3,1,12,02,07,336,00,04,25,008,46,08,39,134,35,10,19,287,37*70
782$GPGSV,3,2,12,11,10,113,00,13,22,028,47,15,11,218,00,17,84,136,52*74
783$GPGSV,3,3,12,25,22,078,37,26,19,216,00,27,33,096,47,28,31,175,41*78
784$GPRMC,174617,A,0643.1530,S,03712.0309,W,003.3,129.5,030208,,,A*70
785$GPVTG,129.5,T,,M,003.3,N,006.1,K,A*05
786$GPGGA,174632,0643.1609,S,03712.0182,W,1,06,01.4,00214.7,M,-012.0,M,,*66
787$GPGSA,A,3,04,10,13,17,25,27,,,,,,,02.5,01.4,02.1*00
788$GPGSV,3,1,12,02,07,336,00,04,25,008,35,08,39,134,48,10,19,287,34*7D
789$GPGSV,3,2,12,11,10,114,00,13,22,028,36,15,11,218,00,17,84,137,53*75
790$GPGSV,3,3,12,25,22,078,47,26,19,216,00,27,33,095,47,28,31,175,37*7D
791$GPRMC,174632,A,0643.1609,S,03712.0182,W,004.3,148.9,030208,,,A*73
792$GPVTG,148.9,T,,M,004.3,N,008.0,K,A*06
793$GPGGA,174647,0643.1850,S,03712.0180,W,1,05,01.6,00215.8,M,-012.0,M,,*6B
794$GPGSA,A,3,04,10,17,25,27,,,,,,,,02.7,01.6,02.1*02
795$GPGSV,3,1,12,02,07,336,00,04,25,008,34,08,39,134,50,10,19,287,46*70
796$GPGSV,3,2,12,11,10,114,00,13,21,028,32,15,11,218,00,17,84,137,53*72
797$GPGSV,3,3,12,25,22,078,35,26,19,216,00,27,33,095,46,28,31,175,41*78
798$GPRMC,174647,A,0643.1850,S,03712.0180,W,008.0,166.3,030208,,,A*78
799$GPVTG,166.3,T,,M,008.0,N,014.9,K,A*0B
800$GPGGA,174702,0643.1894,S,03712.0035,W,1,05,01.6,00216.3,M,-012.0,M,,*64
801$GPGSA,A,3,04,10,17,25,27,,,,,,,,02.7,01.6,02.1*02
802$GPGSV,3,1,12,02,07,336,00,04,25,008,45,08,39,133,41,10,19,288,40*78
803$GPGSV,3,2,12,11,10,114,00,13,21,028,33,15,12,218,00,17,84,138,53*7F
804$GPGSV,3,3,12,25,22,078,34,26,20,216,00,27,33,095,49,28,31,175,32*78
805$GPRMC,174702,A,0643.1894,S,03712.0035,W,000.4,151.0,030208,,,A*74
806$GPVTG,151.0,T,,M,000.4,N,000.7,K,A*0B
807$GPGGA,174717,0643.1900,S,03712.0035,W,1,06,01.4,00217.0,M,-012.0,M,,*6F
808$GPGSA,A,3,04,10,13,17,25,27,,,,,,,02.6,01.4,02.1*03
809$GPGSV,3,1,12,02,07,336,00,04,25,008,42,08,39,133,38,10,19,288,40*71
810$GPGSV,3,2,12,11,10,114,00,13,21,028,34,15,12,218,00,17,84,139,52*78
811$GPGSV,3,3,12,25,22,078,33,26,20,216,00,27,33,095,47,28,31,175,32*71
812$GPRMC,174717,A,0643.1900,S,03712.0035,W,001.1,199.7,030208,,,A*7B
813$GPVTG,199.7,T,,M,001.1,N,002.1,K,A*08
814$GPGGA,174732,0643.1923,S,03712.0061,W,1,05,01.6,00217.4,M,-012.0,M,,*6D
815$GPGSA,A,3,04,10,17,25,27,,,,,,,,02.7,01.6,02.1*02
816$GPGSV,3,1,12,02,07,336,00,04,25,008,45,08,39,133,43,10,19,288,36*7B
817$GPGSV,3,2,12,11,10,114,00,13,21,028,32,15,12,218,00,17,84,140,54*76
818$GPGSV,3,3,12,25,22,078,39,26,20,216,00,27,33,095,48,28,31,175,32*74
819$GPRMC,174732,A,0643.1923,S,03712.0061,W,000.2,234.9,030208,,,A*74
820$GPVTG,234.9,T,,M,000.2,N,000.4,K,A*07
821$GPGGA,174747,0643.1921,S,03712.0082,W,1,06,01.4,00217.2,M,-012.0,M,,*67
822$GPGSA,A,3,04,10,13,17,25,27,,,,,,,02.6,01.4,02.1*03
823$GPGSV,3,1,12,02,07,336,00,04,25,009,38,08,39,133,42,10,19,288,41*71
824$GPGSV,3,2,12,11,10,114,00,13,21,028,36,15,12,218,00,17,84,140,54*72
825$GPGSV,3,3,12,25,22,078,45,26,20,216,00,27,33,095,48,28,31,175,37*7A
826$GPRMC,174747,A,0643.1921,S,03712.0082,W,001.6,272.8,030208,,,A*7F
827$GPVTG,272.8,T,,M,001.6,N,002.9,K,A*0E
828$GPGGA,174802,0643.1871,S,03712.0093,W,1,06,01.4,00217.4,M,-012.0,M,,*6B
829$GPGSA,A,3,04,10,13,17,25,27,,,,,,,02.6,01.4,02.1*03
830$GPGSV,3,1,12,02,07,336,00,04,25,009,36,08,39,133,46,10,19,288,43*79
831$GPGSV,3,2,12,11,10,114,00,13,21,028,36,15,12,218,00,17,83,141,55*75
832$GPGSV,3,3,12,25,22,078,42,26,20,216,00,27,33,095,50,28,31,175,43*77
833$GPRMC,174802,A,0643.1871,S,03712.0093,W,000.4,272.0,030208,,,A*7E
834$GPVTG,272.0,T,,M,000.4,N,000.8,K,A*06
835$GPGGA,174817,0643.1854,S,03712.0084,W,1,04,07.3,00218.1,M,-012.0,M,,*67
836$GPGSA,A,3,10,17,25,27,,,,,,,,,08.4,07.3,04.1*0A
837$GPGSV,3,1,12,02,07,336,00,04,25,009,30,08,39,133,40,10,19,288,42*78
838$GPGSV,3,2,12,11,10,114,00,13,21,028,31,15,12,218,00,17,83,141,55*72
839$GPGSV,3,3,12,25,22,077,42,26,20,216,00,27,33,094,41,28,31,175,46*7C
840$GPRMC,174817,A,0643.1854,S,03712.0084,W,002.1,229.3,030208,,,A*71
841$GPVTG,229.3,T,,M,002.1,N,004.0,K,A*00
842$GPGGA,174832,0643.1921,S,03712.0084,W,1,05,01.6,00217.5,M,-012.0,M,,*6A
843$GPGSA,A,3,04,10,17,25,27,,,,,,,,02.7,01.6,02.1*02
844$GPGSV,3,1,12,02,07,337,00,04,26,009,35,08,39,133,42,10,19,288,45*7A
845$GPGSV,3,2,12,11,10,114,00,13,21,028,32,15,12,218,00,17,83,142,52*75
846$GPGSV,3,3,12,25,22,077,44,26,20,216,00,27,33,094,40,28,31,174,46*7A
847$GPRMC,174832,A,0643.1921,S,03712.0084,W,000.6,188.7,030208,,,A*7C
848$GPVTG,188.7,T,,M,000.6,N,001.2,K,A*0E
849$GPGGA,174847,0643.1879,S,03712.0064,W,1,06,01.4,00217.4,M,-012.0,M,,*6A
850$GPGSA,A,3,04,10,13,17,25,27,,,,,,,02.6,01.4,02.1*03
851$GPGSV,3,1,12,02,08,337,00,04,26,009,36,08,39,132,42,10,19,288,46*74
852$GPGSV,3,2,12,11,10,114,00,13,21,028,34,15,12,218,00,17,83,143,51*71
853$GPGSV,3,3,12,25,22,077,43,26,20,216,00,27,33,094,37,28,31,174,52*78
854$GPRMC,174847,A,0643.1879,S,03712.0064,W,000.5,188.7,030208,,,A*7F
855$GPVTG,188.7,T,,M,000.5,N,001.0,K,A*0F
856$GPGGA,174907,0643.1923,S,03712.0065,W,1,04,07.5,00217.8,M,-012.0,M,,*69
857$GPGSA,A,3,10,17,25,27,,,,,,,,,08.7,07.5,04.3*0D
858$GPGSV,3,1,12,02,08,337,00,04,26,009,30,08,39,132,31,10,19,289,37*71
859$GPGSV,3,2,12,11,10,115,00,13,20,028,26,15,12,218,00,17,83,143,52*71
860$GPGSV,3,3,12,25,22,077,35,26,20,216,00,27,33,094,43,28,31,174,46*7F
861$GPRMC,174907,A,0643.1923,S,03712.0065,W,001.3,188.7,030208,,,A*72
862$GPVTG,188.7,T,,M,001.3,N,002.4,K,A*0F
863$GPGGA,174922,0643.1797,S,03712.0054,W,1,06,01.4,00218.6,M,-012.0,M,,*69
864$GPGSA,A,3,04,10,13,17,25,27,,,,,,,02.6,01.4,02.2*00
865$GPGSV,3,1,12,02,08,337,00,04,26,009,34,08,39,132,39,10,19,289,43*7E
866$GPGSV,3,2,12,11,10,115,00,13,20,028,36,15,12,218,00,17,83,144,52*77
867$GPGSV,3,3,12,25,22,077,45,26,20,216,00,27,33,094,46,28,31,174,51*7B
868$GPRMC,174922,A,0643.1797,S,03712.0054,W,002.9,188.7,030208,,,A*7F
869$GPVTG,188.7,T,,M,002.9,N,005.5,K,A*00
870$GPGGA,174937,0643.1793,S,03712.0043,W,1,05,01.6,00219.3,M,-012.0,M,,*6A
871$GPGSA,A,3,04,10,17,25,27,,,,,,,,02.7,01.6,02.2*01
872$GPGSV,3,1,12,02,08,337,00,04,26,009,34,08,40,132,34,10,19,289,41*7F
873$GPGSV,3,2,12,11,10,115,00,13,20,028,30,15,12,218,00,17,83,144,51*72
874$GPGSV,3,3,12,25,22,077,40,26,20,216,00,27,33,094,48,28,31,174,49*79
875$GPRMC,174937,A,0643.1793,S,03712.0043,W,002.7,188.6,030208,,,A*76
876$GPVTG,188.6,T,,M,002.7,N,005.0,K,A*0A
877$GPGGA,174952,0643.1803,S,03712.0036,W,1,05,01.6,00220.7,M,-012.0,M,,*63
878$GPGSA,A,3,04,10,17,25,27,,,,,,,,02.7,01.6,02.2*01
879$GPGSV,3,1,12,02,08,337,00,04,26,009,34,08,40,132,35,10,19,289,45*7A
880$GPGSV,3,2,12,11,10,115,00,13,20,028,32,15,13,218,00,17,83,145,52*73
881$GPGSV,3,3,12,25,22,077,36,26,21,216,00,27,33,093,37,28,31,174,50*7E
882$GPRMC,174952,A,0643.1803,S,03712.0036,W,001.9,187.9,030208,,,A*7C
883$GPVTG,187.9,T,,M,001.9,N,003.5,K,A*04
884$GPGGA,175012,0643.1851,S,03712.0023,W,1,05,01.7,00216.3,M,-012.0,M,,*6C
885$GPGSA,A,3,04,10,17,25,27,,,,,,,,02.8,01.7,02.2*0F
886$GPGSV,3,1,12,02,08,337,00,04,26,009,35,08,40,132,41,10,19,289,34*7E
887$GPGSV,3,2,12,11,10,115,00,13,20,028,29,15,13,218,00,17,82,146,52*7B
888$GPGSV,3,3,12,25,22,077,42,26,21,216,00,27,33,093,35,28,31,174,50*7F
889$GPRMC,175012,A,0643.1851,S,03712.0023,W,000.3,187.9,030208,,,A*78
890$GPVTG,187.9,T,,M,000.3,N,000.6,K,A*0F
891$GPGGA,175027,0643.1825,S,03712.0023,W,1,05,01.9,00213.8,M,-012.0,M,,*69
892$GPGSA,A,3,10,13,17,25,27,,,,,,,,03.1,01.9,02.4*09
893$GPGSV,3,1,12,02,08,337,00,04,26,009,28,08,40,131,33,10,19,289,39*79
894$GPGSV,3,2,12,11,10,115,00,13,20,028,34,15,13,219,00,17,82,146,52*76
895$GPGSV,3,3,12,25,22,076,36,26,21,216,00,27,33,093,42,28,30,174,48*75
896$GPRMC,175027,A,0643.1825,S,03712.0023,W,001.2,187.9,030208,,,A*7D
897$GPVTG,187.9,T,,M,001.2,N,002.2,K,A*09
898$GPGGA,175042,0643.1804,S,03712.0015,W,1,04,08.0,00215.2,M,-012.0,M,,*61
899$GPGSA,A,3,10,17,25,27,,,,,,,,,09.4,08.0,04.8*0E
900$GPGSV,3,1,12,02,08,337,00,04,26,010,27,08,40,131,36,10,19,289,41*74
901$GPGSV,3,2,12,11,10,115,00,13,20,028,33,15,13,219,00,17,82,147,53*71
902$GPGSV,3,3,12,25,22,076,41,26,21,216,00,27,33,093,40,28,30,174,48*77
903$GPRMC,175042,A,0643.1804,S,03712.0015,W,000.8,187.9,030208,,,A*73
904$GPVTG,187.9,T,,M,000.8,N,001.6,K,A*05
905$GPGGA,175057,0643.1836,S,03712.0005,W,1,04,02.0,00214.8,M,-012.0,M,,*64
906$GPGSA,A,2,04,17,25,27,,,,,,,,,02.2,02.0,00.9*08
907$GPGSV,3,1,12,02,08,337,00,04,26,010,46,08,40,131,35,10,19,290,34*7A
908$GPGSV,3,2,12,11,10,115,00,13,20,028,34,15,13,219,00,17,82,147,55*70
909$GPGSV,3,3,12,25,22,076,41,26,21,216,00,27,33,093,41,28,30,173,39*77
910$GPRMC,175057,A,0643.1836,S,03712.0005,W,000.9,183.8,030208,,,A*73
911$GPVTG,183.8,T,,M,000.9,N,001.8,K,A*0F
912$GPGGA,175112,0643.1781,S,03712.0075,W,1,04,02.0,00215.2,M,-012.0,M,,*6B
913$GPGSA,A,2,04,17,25,27,,,,,,,,,02.2,02.0,00.9*08
914$GPGSV,3,1,12,02,08,337,00,04,26,010,37,08,40,131,32,10,19,290,31*7E
915$GPGSV,3,2,12,11,10,115,00,13,20,028,32,15,13,219,00,17,82,147,55*76
916$GPGSV,3,3,12,25,22,076,45,26,21,217,00,27,33,093,42,28,30,173,45*7A
917$GPRMC,175112,A,0643.1781,S,03712.0075,W,001.7,271.3,030208,,,A*7D
918$GPVTG,271.3,T,,M,001.7,N,003.2,K,A*0D
919$GPGGA,175127,0643.1770,S,03712.0124,W,1,06,01.5,00215.3,M,-012.0,M,,*63
920$GPGSA,A,3,04,10,13,17,25,27,,,,,,,02.7,01.5,02.2*00
921$GPGSV,3,1,12,02,08,337,00,04,26,010,40,08,40,131,37,10,19,290,35*7F
922$GPGSV,3,2,12,11,10,115,00,13,19,028,35,15,13,219,00,17,82,148,51*70
923$GPGSV,3,3,12,25,22,076,35,26,21,217,00,27,33,093,46,28,30,173,46*7A
924$GPRMC,175127,A,0643.1770,S,03712.0124,W,000.7,269.9,030208,,,A*72
925$GPVTG,269.9,T,,M,000.7,N,001.3,K,A*0C
926$GPGGA,175142,0643.1556,S,03712.0093,W,1,06,01.5,00215.6,M,-012.0,M,,*6E
927$GPGSA,A,3,04,10,13,17,25,27,,,,,,,02.7,01.5,02.2*00
928$GPGSV,3,1,12,02,08,338,00,04,26,010,35,08,40,131,35,10,19,290,34*71
929$GPGSV,3,2,12,11,10,116,00,13,19,028,39,15,13,219,00,17,82,148,52*7C
930$GPGSV,3,3,12,25,22,076,41,26,21,217,00,27,33,092,42,28,30,173,34*79
931$GPRMC,175142,A,0643.1556,S,03712.0093,W,002.7,012.2,030208,,,A*7D
932$GPVTG,012.2,T,,M,002.7,N,005.1,K,A*0D
933$GPGGA,175157,0643.1588,S,03711.9837,W,1,06,01.5,00215.0,M,-012.0,M,,*63
934$GPGSA,A,3,04,10,13,17,25,27,,,,,,,02.7,01.5,02.2*00
935$GPGSV,3,1,12,02,08,338,00,04,26,010,47,08,40,131,42,10,19,290,38*78
936$GPGSV,3,2,12,11,10,116,00,13,19,028,39,15,13,219,00,17,82,149,54*7B
937$GPGSV,3,3,12,25,22,076,45,26,21,217,00,27,33,092,47,28,30,173,30*7C
938$GPRMC,175157,A,0643.1588,S,03711.9837,W,007.0,104.2,030208,,,A*72
939$GPVTG,104.2,T,,M,007.0,N,013.1,K,A*0E
940$GPGGA,175212,0643.1664,S,03711.9658,W,1,04,01.8,00214.9,M,-012.0,M,,*60
941$GPGSA,A,3,04,10,17,27,,,,,,,,,03.1,01.8,02.6*0B
942$GPGSV,3,1,12,02,08,338,00,04,26,010,46,08,40,130,38,10,19,290,36*7B
943$GPGSV,3,2,12,11,10,116,00,13,19,028,34,15,13,219,00,17,81,149,54*75
944$GPGSV,3,3,12,25,21,076,34,26,21,217,00,27,33,092,36,28,30,173,35*7A
945$GPRMC,175212,A,0643.1664,S,03711.9658,W,004.8,119.2,030208,,,A*71
946$GPVTG,119.2,T,,M,004.8,N,009.0,K,A*03
947$GPGGA,175227,0643.1482,S,03711.9551,W,1,04,02.1,00215.0,M,-012.0,M,,*64
948$GPGSA,A,2,13,17,25,27,,,,,,,,,02.3,02.1,00.9*0E
949$GPGSV,3,1,12,02,08,338,00,04,27,010,32,08,40,130,48,10,19,290,31*79
950$GPGSV,3,2,12,11,09,116,00,13,19,028,45,15,13,219,00,17,81,149,52*7D
951$GPGSV,3,3,12,25,21,075,33,26,22,217,00,27,33,092,36,28,30,173,34*7C
952$GPRMC,175227,A,0643.1482,S,03711.9551,W,008.8,358.5,030208,,,A*7B
953$GPVTG,358.5,T,,M,008.8,N,016.4,K,A*05
954$GPGGA,175247,0643.1240,S,03711.9439,W,1,04,02.1,00215.1,M,-012.0,M,,*64
955$GPGSA,A,2,04,13,17,27,,,,,,,,,02.3,02.1,00.9*0D
956$GPGSV,3,1,12,02,09,338,00,04,27,010,34,08,40,130,47,10,19,290,31*71
957$GPGSV,3,2,12,11,09,116,00,13,19,028,41,15,14,219,00,17,81,150,52*76
958$GPGSV,3,3,12,25,21,075,32,26,22,217,00,27,33,092,45,28,30,173,45*7F
959$GPRMC,175247,A,0643.1240,S,03711.9439,W,006.8,008.1,030208,,,A*76
960$GPVTG,008.1,T,,M,006.8,N,012.6,K,A*0F
961$GPGGA,175302,0643.1061,S,03711.9548,W,1,06,01.5,00210.5,M,-012.0,M,,*66
962$GPGSA,A,3,04,10,13,17,25,27,,,,,,,02.7,01.5,02.2*00
963$GPGSV,3,1,12,02,09,338,00,04,27,010,46,08,40,130,35,10,19,291,38*79
964$GPGSV,3,2,12,11,09,116,00,13,19,028,40,15,14,219,00,17,81,150,50*75
965$GPGSV,3,3,12,25,21,075,42,26,22,217,00,27,33,092,33,28,30,173,51*7C
966$GPRMC,175302,A,0643.1061,S,03711.9548,W,010.6,268.8,030208,,,A*74
967$GPVTG,268.8,T,,M,010.6,N,019.7,K,A*01
968$GPGGA,175317,0643.1108,S,03711.9833,W,1,06,01.5,00205.8,M,-012.0,M,,*64
969$GPGSA,A,3,04,10,13,17,25,27,,,,,,,02.7,01.5,02.2*00
970$GPGSV,3,1,12,02,09,338,00,04,27,011,47,08,40,130,33,10,19,291,41*71
971$GPGSV,3,2,12,11,09,116,00,13,19,028,37,15,14,219,00,17,81,150,49*7D
972$GPGSV,3,3,12,25,21,075,38,26,22,217,00,27,33,092,39,28,30,172,51*7A
973$GPRMC,175317,A,0643.1108,S,03711.9833,W,006.5,267.7,030208,,,A*7B
974$GPVTG,267.7,T,,M,006.5,N,012.2,K,A*0B
975$GPGGA,175332,0643.1108,S,03712.0128,W,1,05,01.7,00202.7,M,-012.0,M,,*63
976$GPGSA,A,3,04,10,17,25,27,,,,,,,,02.8,01.7,02.2*0F
977$GPGSV,3,1,12,02,09,338,00,04,27,011,40,08,40,130,41,10,19,291,34*71
978$GPGSV,3,2,12,11,09,116,00,13,19,028,32,15,14,219,00,17,81,151,52*73
979$GPGSV,3,3,12,25,21,075,44,26,22,217,00,27,33,091,40,28,30,172,38*73
980$GPRMC,175332,A,0643.1108,S,03712.0128,W,009.3,276.4,030208,,,A*7F
981$GPVTG,276.4,T,,M,009.3,N,017.3,K,A*05
982$GPGGA,175347,0643.0945,S,03712.0468,W,1,06,01.5,00203.7,M,-012.0,M,,*60
983$GPGSA,A,3,04,10,13,17,25,27,,,,,,,02.7,01.5,02.2*00
984$GPGSV,3,1,12,02,09,338,00,04,27,011,43,08,40,129,36,10,19,291,39*77
985$GPGSV,3,2,12,11,09,116,00,13,18,028,32,15,14,219,00,17,81,151,49*78
986$GPGSV,3,3,12,25,21,075,43,26,22,217,00,27,33,091,41,28,30,172,42*78
987$GPRMC,175347,A,0643.0945,S,03712.0468,W,005.8,266.5,030208,,,A*7B
988$GPVTG,266.5,T,,M,005.8,N,010.8,K,A*0E
989$GPGGA,175402,0643.0910,S,03712.0809,W,1,05,02.1,00202.7,M,-012.0,M,,*68
990$GPGSA,A,3,10,13,17,25,27,,,,,,,,03.3,02.1,02.6*02
991$GPGSV,3,1,12,02,09,338,00,04,27,011,32,08,40,129,41,10,18,291,38*71
992$GPGSV,3,2,12,11,09,116,00,13,18,028,31,15,14,219,00,17,81,151,50*73
993$GPGSV,3,3,12,25,21,075,41,26,22,217,00,27,33,091,38,28,30,172,43*75
994$GPRMC,175402,A,0643.0910,S,03712.0809,W,006.1,288.6,030208,,,A*7F
995$GPVTG,288.6,T,,M,006.1,N,011.4,K,A*0A
996$GPGGA,175417,0643.0898,S,03712.1106,W,1,05,02.1,00202.7,M,-012.0,M,,*6A
997$GPGSA,A,3,10,13,17,25,27,,,,,,,,03.4,02.1,02.6*05
998$GPGSV,3,1,12,02,09,338,00,04,27,011,29,08,40,129,46,10,18,291,36*72
999$GPGSV,3,2,12,11,09,116,00,13,18,028,32,15,14,219,00,17,80,152,49*7A
1000$GPGSV,3,3,12,25,21,075,40,26,22,217,00,27,32,091,43,28,30,172,47*7D
1001$GPRMC,175417,A,0643.0898,S,03712.1106,W,010.4,262.4,030208,,,A*79
1002$GPVTG,262.4,T,,M,010.4,N,019.2,K,A*00
1003$GPGGA,175432,0643.0685,S,03712.1323,W,1,05,01.8,00208.6,M,-012.0,M,,*6B
1004$GPGSA,A,2,04,13,17,25,27,,,,,,,,02.1,01.8,00.9*02
1005$GPGSV,3,1,12,02,09,338,00,04,27,011,36,08,40,129,46,10,18,291,31*7B
1006$GPGSV,3,2,12,11,09,117,00,13,18,028,44,15,14,219,00,17,80,152,52*70
1007$GPGSV,3,3,12,25,21,074,35,26,22,217,00,27,32,091,42,28,30,172,44*7C
1008$GPRMC,175432,A,0643.0685,S,03712.1323,W,007.0,004.4,030208,,,A*79
1009$GPVTG,004.4,T,,M,007.0,N,013.1,K,A*09
1010$GPGGA,175457,0643.0340,S,03712.1239,W,1,06,01.5,00178.4,M,-012.0,M,,*66
1011$GPGSA,A,3,04,10,13,17,25,27,,,,,,,02.7,01.5,02.3*01
1012$GPGSV,3,1,12,02,09,338,00,04,27,011,36,08,40,129,34,10,18,291,33*7C
1013$GPGSV,3,2,12,11,09,117,00,13,18,028,40,15,14,219,00,17,80,152,45*72
1014$GPGSV,3,3,12,25,21,074,33,26,22,217,00,27,32,091,36,28,29,172,33*71
1015$GPRMC,175457,A,0643.0340,S,03712.1239,W,009.3,007.7,030208,,,A*71
1016$GPVTG,007.7,T,,M,009.3,N,017.3,K,A*02
1017$GPGGA,175512,0642.9850,S,03712.1171,W,1,05,01.7,00191.6,M,-012.0,M,,*6F
1018$GPGSA,A,3,04,10,13,17,27,,,,,,,,03.1,01.7,02.6*06
1019$GPGSV,3,1,12,02,09,339,00,04,27,011,34,08,40,129,46,10,18,292,36*7C
1020$GPGSV,3,2,12,11,09,117,00,13,18,028,42,15,14,219,00,17,80,153,53*76
1021$GPGSV,3,3,12,25,21,074,29,26,23,217,00,27,32,090,45,28,29,172,42*78
1022$GPRMC,175512,A,0642.9850,S,03712.1171,W,006.7,008.5,030208,,,A*7A
1023$GPVTG,008.5,T,,M,006.7,N,012.4,K,A*06
1024$GPGGA,175527,0642.9623,S,03712.1092,W,1,05,01.7,00193.5,M,-012.0,M,,*6E
1025$GPGSA,A,3,04,10,13,17,27,,,,,,,,03.1,01.7,02.6*06
1026$GPGSV,3,1,12,02,09,339,00,04,27,011,38,08,40,128,48,10,18,292,38*71
1027$GPGSV,3,2,12,11,09,117,00,13,18,028,35,15,15,219,00,17,80,153,52*76
1028$GPGSV,3,3,12,25,21,074,29,26,23,217,00,27,32,090,42,28,29,171,38*71
1029$GPRMC,175527,A,0642.9623,S,03712.1092,W,004.7,009.6,030208,,,A*7A
1030$GPVTG,009.6,T,,M,004.7,N,008.7,K,A*0E
1031$GPGGA,175542,0642.9258,S,03712.1045,W,1,06,01.5,00206.4,M,-012.0,M,,*60
1032$GPGSA,A,3,04,10,13,17,25,27,,,,,,,02.8,01.5,02.3*0E
1033$GPGSV,3,1,12,02,09,339,00,04,27,011,35,08,40,128,47,10,18,292,39*72
1034$GPGSV,3,2,12,11,09,117,00,13,18,028,42,15,15,219,00,17,80,153,52*76
1035$GPGSV,3,3,12,25,21,074,36,26,23,217,00,27,32,090,45,28,29,171,45*72
1036$GPRMC,175542,A,0642.9258,S,03712.1045,W,007.2,014.2,030208,,,A*75
1037$GPVTG,014.2,T,,M,007.2,N,013.4,K,A*09
1038$GPGGA,175557,0642.8947,S,03712.0871,W,1,06,01.5,00208.0,M,-012.0,M,,*64
1039$GPGSA,A,3,04,10,13,17,25,27,,,,,,,02.8,01.5,02.3*0E
1040$GPGSV,3,1,12,02,09,339,00,04,27,012,42,08,40,128,46,10,18,292,38*71
1041$GPGSV,3,2,12,11,09,117,00,13,18,028,35,15,15,219,00,17,80,153,52*76
1042$GPGSV,3,3,12,25,21,074,45,26,23,217,00,27,32,090,37,28,29,171,44*72
1043$GPRMC,175557,A,0642.8947,S,03712.0871,W,011.4,054.4,030208,,,A*78
1044$GPVTG,054.4,T,,M,011.4,N,021.2,K,A*0D
1045$GPGGA,175612,0642.8528,S,03712.0439,W,1,06,01.5,00202.9,M,-012.0,M,,*60
1046$GPGSA,A,3,04,10,13,17,25,27,,,,,,,02.8,01.5,02.3*0E
1047$GPGSV,3,1,12,02,09,339,00,04,28,012,36,08,40,128,43,10,18,292,41*76
1048$GPGSV,3,2,12,11,09,117,00,13,17,028,40,15,15,220,00,17,79,154,52*70
1049$GPGSV,3,3,12,25,21,074,36,26,23,217,00,27,32,090,34,28,29,171,33*75
1050$GPRMC,175612,A,0642.8528,S,03712.0439,W,017.4,022.2,030208,,,A*7E
1051$GPVTG,022.2,T,,M,017.4,N,032.2,K,A*0E
1052$GPGGA,175627,0642.7862,S,03712.0124,W,1,06,01.5,00204.3,M,-012.0,M,,*6F
1053$GPGSA,A,3,04,10,13,17,25,27,,,,,,,02.8,01.5,02.3*0E
1054$GPGSV,3,1,12,02,09,339,00,04,28,012,34,08,40,128,47,10,18,292,45*74
1055$GPGSV,3,2,12,11,09,117,00,13,17,028,43,15,15,220,00,17,79,154,52*73
1056$GPGSV,3,3,12,25,21,074,38,26,23,218,00,27,32,090,33,28,29,171,47*70
1057$GPRMC,175627,A,0642.7862,S,03712.0124,W,015.3,031.3,030208,,,A*7B
1058$GPVTG,031.3,T,,M,015.3,N,028.4,K,A*05
1059$GPGGA,175647,0642.7139,S,03711.9871,W,1,05,01.8,00212.4,M,-012.0,M,,*63
1060$GPGSA,A,2,04,13,17,25,27,,,,,,,,02.1,01.8,00.9*02
1061$GPGSV,3,1,12,02,09,339,00,04,28,012,36,08,40,128,48,10,18,292,32*79
1062$GPGSV,3,2,12,11,09,117,00,13,17,028,41,15,15,220,00,17,79,154,52*71
1063$GPGSV,3,3,12,25,21,073,36,26,23,218,00,27,32,090,42,28,29,171,46*7E
1064$GPRMC,175647,A,0642.7139,S,03711.9871,W,019.8,011.0,030208,,,A*7F
1065$GPVTG,011.0,T,,M,019.8,N,036.8,K,A*00
1066$GPGGA,175702,0642.6420,S,03711.9640,W,1,06,01.5,00211.2,M,-012.0,M,,*68
1067$GPGSA,A,3,04,10,13,17,25,27,,,,,,,02.8,01.5,02.3*0E
1068$GPGSV,3,1,12,02,10,339,00,04,28,012,39,08,40,128,46,10,18,292,34*76
1069$GPGSV,3,2,12,11,09,117,00,13,17,028,42,15,15,220,00,17,79,154,52*72
1070$GPGSV,3,3,12,25,21,073,39,26,23,218,00,27,32,089,42,28,29,171,43*7C
1071$GPRMC,175702,A,0642.6420,S,03711.9640,W,016.4,025.6,030208,,,A*7D
1072$GPVTG,025.6,T,,M,016.4,N,030.5,K,A*09
1073$GPGGA,175717,0642.5791,S,03711.9528,W,1,05,01.7,00208.4,M,-012.0,M,,*64
1074$GPGSA,A,3,04,10,17,25,27,,,,,,,,02.9,01.7,02.3*0F
1075$GPGSV,3,1,12,02,10,339,00,04,28,012,41,08,40,127,41,10,18,293,40*73
1076$GPGSV,3,2,12,11,09,118,00,13,17,028,31,15,15,220,00,17,79,155,52*78
1077$GPGSV,3,3,12,25,21,073,38,26,23,218,00,27,32,089,46,28,29,171,40*7A
1078$GPRMC,175717,A,0642.5791,S,03711.9528,W,014.2,357.7,030208,,,A*7D
1079$GPVTG,357.7,T,,M,014.2,N,026.3,K,A*0B
1080$GPGGA,175732,0642.5230,S,03711.9527,W,1,06,01.6,00204.0,M,-012.0,M,,*68
1081$GPGSA,A,3,04,10,13,17,25,27,,,,,,,02.8,01.6,02.3*0D
1082$GPGSV,3,1,12,02,10,339,00,04,28,012,43,08,40,127,47,10,18,293,35*75
1083$GPGSV,3,2,12,11,09,118,00,13,17,027,39,15,15,220,00,17,79,155,52*7F
1084$GPGSV,3,3,12,25,21,073,39,26,23,218,00,27,32,089,37,28,29,171,43*7E
1085$GPRMC,175732,A,0642.5230,S,03711.9527,W,013.1,000.9,030208,,,A*70
1086$GPVTG,000.9,T,,M,013.1,N,024.3,K,A*02
1087$GPGGA,175747,0642.4651,S,03711.9593,W,1,04,10.9,00202.5,M,-012.0,M,,*69
1088$GPGSA,A,3,10,17,25,27,,,,,,,,,13.8,10.9,08.4*09
1089$GPGSV,3,1,12,02,10,339,00,04,28,012,30,08,40,127,42,10,18,293,35*74
1090$GPGSV,3,2,12,11,09,118,00,13,17,027,27,15,15,220,00,17,79,155,52*70
1091$GPGSV,3,3,12,25,21,073,35,26,23,218,00,27,32,089,46,28,29,170,34*75
1092$GPRMC,175747,A,0642.4651,S,03711.9593,W,013.6,357.5,030208,,,A*75
1093$GPVTG,357.5,T,,M,013.6,N,025.3,K,A*09
1094$GPGGA,175802,0642.4251,S,03711.9571,W,1,05,01.7,00202.5,M,-012.0,M,,*60
1095$GPGSA,A,3,04,10,13,17,27,,,,,,,,03.2,01.7,02.7*04
1096$GPGSV,3,1,12,02,10,339,00,04,28,012,46,08,40,127,47,10,18,293,41*73
1097$GPGSV,3,2,12,11,09,118,00,13,17,027,33,15,15,220,00,17,78,155,52*74
1098$GPGSV,3,3,12,25,21,073,35,26,24,218,00,27,32,089,45,28,29,170,36*73
1099$GPRMC,175802,A,0642.4251,S,03711.9571,W,006.4,347.5,030208,,,A*74
1100$GPVTG,347.5,T,,M,006.4,N,011.8,K,A*02
1101$GPGGA,175817,0642.4005,S,03711.9581,W,1,06,01.6,00203.0,M,-012.0,M,,*6E
1102$GPGSA,A,3,04,10,13,17,25,27,,,,,,,02.8,01.6,02.3*0D
1103$GPGSV,3,1,12,02,10,339,00,04,28,012,40,08,40,127,36,10,18,293,37*72
1104$GPGSV,3,2,12,11,09,118,00,13,17,027,34,15,16,220,00,17,78,155,52*70
1105$GPGSV,3,3,12,25,21,073,34,26,24,218,00,27,32,089,46,28,29,170,38*7F
1106$GPRMC,175817,A,0642.4005,S,03711.9581,W,005.7,350.3,030208,,,A*7C
1107$GPVTG,350.3,T,,M,005.7,N,010.5,K,A*0E
1108$GPGGA,175832,0642.3751,S,03711.9661,W,1,06,01.6,00202.0,M,-012.0,M,,*64
1109$GPGSA,A,3,04,10,13,17,25,27,,,,,,,02.8,01.6,02.3*0D
1110$GPGSV,3,1,12,02,10,340,00,04,28,013,46,08,41,127,40,10,18,293,42*79
1111$GPGSV,3,2,12,11,08,118,00,13,17,027,35,15,16,220,00,17,78,156,52*73
1112$GPGSV,3,3,12,25,20,073,35,26,24,218,00,27,32,089,46,28,29,170,35*72
1113$GPRMC,175832,A,0642.3751,S,03711.9661,W,009.0,342.2,030208,,,A*7E
1114$GPVTG,342.2,T,,M,009.0,N,016.7,K,A*03
1115$GPGGA,175847,0642.3361,S,03711.9568,W,1,06,01.6,00207.0,M,-012.0,M,,*6E
1116$GPGSA,A,3,04,10,13,17,25,27,,,,,,,02.8,01.6,02.4*0A
1117$GPGSV,3,1,12,02,10,340,00,04,28,013,46,08,41,127,49,10,18,293,34*71
1118$GPGSV,3,2,12,11,08,118,00,13,16,027,34,15,16,220,00,17,78,156,51*70
1119$GPGSV,3,3,12,25,20,073,36,26,24,218,00,27,32,088,46,28,29,170,48*7A
1120$GPRMC,175847,A,0642.3361,S,03711.9568,W,005.9,053.7,030208,,,A*72
1121$GPVTG,053.7,T,,M,005.9,N,010.9,K,A*08
1122$GPGGA,175902,0642.3363,S,03711.9368,W,1,06,01.6,00206.2,M,-012.0,M,,*69
1123$GPGSA,A,3,04,10,13,17,25,27,,,,,,,02.9,01.6,02.4*0B
1124$GPGSV,3,1,12,02,10,340,00,04,28,013,50,08,41,126,50,10,18,293,40*7C
1125$GPGSV,3,2,12,11,08,118,00,13,16,027,41,15,16,220,00,17,78,156,52*71
1126$GPGSV,3,3,12,25,20,072,35,26,24,218,00,27,32,088,39,28,29,170,49*71
1127$GPRMC,175902,A,0642.3363,S,03711.9368,W,000.2,073.0,030208,,,A*7D
1128$GPVTG,073.0,T,,M,000.2,N,000.4,K,A*0F
1129$GPGGA,175917,0642.3365,S,03711.9372,W,1,06,01.6,00206.7,M,-012.0,M,,*65
1130$GPGSA,A,3,04,10,13,17,25,27,,,,,,,02.9,01.6,02.4*0B
1131$GPGSV,3,1,12,02,10,340,00,04,28,013,50,08,41,126,49,10,18,294,34*70
1132$GPGSV,3,2,12,11,08,118,00,13,16,027,44,15,16,220,00,17,78,156,52*74
1133$GPGSV,3,3,12,25,20,072,35,26,24,218,00,27,32,088,36,28,29,170,47*70
1134$GPRMC,175917,A,0642.3365,S,03711.9372,W,000.6,064.4,030208,,,A*72
1135$GPVTG,064.4,T,,M,000.6,N,001.2,K,A*0E
1136$GPGGA,175932,0642.3381,S,03711.9362,W,1,05,01.8,00206.9,M,-012.0,M,,*6A
1137$GPGSA,A,3,04,10,13,17,27,,,,,,,,03.3,01.8,02.7*0A
1138$GPGSV,3,1,12,02,10,340,00,04,28,013,51,08,41,126,47,10,18,294,35*7E
1139$GPGSV,3,2,12,11,08,118,00,13,16,027,42,15,16,220,00,17,78,156,52*72
1140$GPGSV,3,3,12,25,20,072,32,26,24,218,00,27,32,088,41,28,29,170,50*71
1141$GPRMC,175932,A,0642.3381,S,03711.9362,W,000.9,064.4,030208,,,A*71
1142$GPVTG,064.4,T,,M,000.9,N,001.7,K,A*04
1143$GPGGA,175947,0642.3392,S,03711.9363,W,1,05,01.8,00206.2,M,-012.0,M,,*60
1144$GPGSA,A,3,04,10,13,17,27,,,,,,,,03.3,01.8,02.7*0A
1145$GPGSV,3,1,12,02,10,340,00,04,29,013,50,08,41,126,48,10,18,294,35*71
1146$GPGSV,3,2,12,11,08,118,00,13,16,027,40,15,16,220,00,17,78,157,52*71
1147$GPGSV,3,3,12,25,20,072,32,26,24,218,00,27,32,088,34,28,28,170,48*7B
1148$GPRMC,175947,A,0642.3392,S,03711.9363,W,000.8,064.4,030208,,,A*71
1149$GPVTG,064.4,T,,M,000.8,N,001.5,K,A*07
1150$GPGGA,180007,0642.3397,S,03711.9365,W,1,06,01.6,00206.0,M,-012.0,M,,*6B
1151$GPGSA,A,3,04,10,13,17,25,27,,,,,,,02.9,01.6,02.4*0B
1152$GPGSV,3,1,12,02,10,340,00,04,29,013,51,08,41,126,50,10,18,294,42*79
1153$GPGSV,3,2,12,11,08,119,00,13,16,027,44,15,16,220,00,17,77,157,52*7B
1154$GPGSV,3,3,12,25,20,072,33,26,24,218,00,27,32,088,35,28,28,169,50*7A
1155$GPRMC,180007,A,0642.3397,S,03711.9365,W,001.1,064.4,030208,,,A*7D
1156$GPVTG,064.4,T,,M,001.1,N,002.0,K,A*09
1157$GPGGA,180022,0642.3434,S,03711.9360,W,1,06,01.6,00204.4,M,-012.0,M,,*61
1158$GPGSA,A,3,04,10,13,17,25,27,,,,,,,02.9,01.6,02.4*0B
1159$GPGSV,3,1,12,02,10,340,00,04,29,013,47,08,41,126,49,10,18,294,41*75
1160$GPGSV,3,2,12,11,08,119,00,13,16,027,43,15,16,220,00,17,77,157,52*7C
1161$GPGSV,3,3,12,25,20,072,35,26,24,218,00,27,32,088,35,28,28,169,47*7A
1162$GPRMC,180022,A,0642.3434,S,03711.9360,W,001.4,064.4,030208,,,A*74
1163$GPVTG,064.4,T,,M,001.4,N,002.5,K,A*09
1164$GPGGA,180037,0642.3439,S,03711.9357,W,1,06,01.6,00203.8,M,-012.0,M,,*67
1165$GPGSA,A,3,04,10,13,17,25,27,,,,,,,02.9,01.6,02.4*0B
1166$GPGSV,3,1,12,02,10,340,00,04,29,013,46,08,41,125,46,10,18,294,37*79
1167$GPGSV,3,2,12,11,08,119,00,13,16,027,39,15,16,220,00,17,77,157,52*71
1168$GPGSV,3,3,12,25,20,072,36,26,25,218,00,27,32,087,34,28,28,169,45*74
1169$GPRMC,180037,A,0642.3439,S,03711.9357,W,000.4,064.4,030208,,,A*78
1170$GPVTG,064.4,T,,M,000.4,N,000.8,K,A*07
1171$GPGGA,180052,0642.3444,S,03711.9326,W,1,05,01.8,00203.6,M,-012.0,M,,*6B
1172$GPGSA,A,3,04,10,13,17,27,,,,,,,,03.3,01.8,02.8*05
1173$GPGSV,3,1,12,02,11,340,00,04,29,013,52,08,41,125,46,10,18,294,34*7E
1174$GPGSV,3,2,12,11,08,119,00,13,16,027,43,15,16,220,00,17,77,157,52*7C
1175$GPGSV,3,3,12,25,20,072,31,26,25,219,00,27,32,087,35,28,28,169,48*7E
1176$GPRMC,180052,A,0642.3444,S,03711.9326,W,001.5,083.1,030208,,,A*7B
1177$GPVTG,083.1,T,,M,001.5,N,002.8,K,A*09
1178$GPGGA,180107,0642.3446,S,03711.9334,W,1,06,01.6,00203.9,M,-012.0,M,,*69
1179$GPGSA,A,3,04,10,13,17,25,27,,,,,,,02.9,01.6,02.4*0B
1180$GPGSV,3,1,12,02,11,340,00,04,29,013,47,08,41,125,50,10,18,294,36*7F
1181$GPGSV,3,2,12,11,08,119,00,13,15,027,41,15,17,221,00,17,77,157,52*7D
1182$GPGSV,3,3,12,25,20,071,33,26,25,219,00,27,32,087,40,28,28,169,48*7D
1183$GPRMC,180107,A,0642.3446,S,03711.9334,W,000.4,083.1,030208,,,A*7B
1184$GPVTG,083.1,T,,M,000.4,N,000.8,K,A*0B
1185$GPGGA,180122,0642.3440,S,03711.9344,W,1,06,01.6,00203.8,M,-012.0,M,,*6E
1186$GPGSA,A,3,04,10,13,17,25,27,,,,,,,02.9,01.6,02.4*0B
1187$GPGSV,3,1,12,02,11,340,00,04,29,014,48,08,41,125,49,10,18,295,42*7D
1188$GPGSV,3,2,12,11,08,119,00,13,15,027,39,15,17,221,00,17,77,158,50*7F
1189$GPGSV,3,3,12,25,20,071,36,26,25,219,00,27,32,087,36,28,28,169,48*79
1190$GPRMC,180122,A,0642.3440,S,03711.9344,W,001.7,083.1,030208,,,A*7F
1191$GPVTG,083.1,T,,M,001.7,N,003.2,K,A*00
1192$GPGGA,180137,0642.3463,S,03711.9356,W,1,06,01.6,00203.4,M,-012.0,M,,*64
1193$GPGSA,A,3,04,10,13,17,25,27,,,,,,,02.9,01.6,02.4*0B
1194$GPGSV,3,1,12,02,11,340,00,04,29,014,47,08,41,125,48,10,18,295,40*71
1195$GPGSV,3,2,12,11,08,119,00,13,15,027,34,15,17,221,00,17,77,158,49*7A
1196$GPGSV,3,3,12,25,20,071,36,26,25,219,00,27,32,087,38,28,28,169,48*77
1197$GPRMC,180137,A,0642.3463,S,03711.9356,W,000.6,106.6,030208,,,A*72
1198$GPVTG,106.6,T,,M,000.6,N,001.1,K,A*0A
1199$GPGGA,180152,0642.3463,S,03711.9340,W,1,06,01.6,00203.4,M,-012.0,M,,*60
1200$GPGSA,A,3,04,10,13,17,25,27,,,,,,,02.9,01.6,02.4*0B
1201$GPGSV,3,1,12,02,11,341,00,04,29,014,47,08,41,125,49,10,18,295,40*71
1202$GPGSV,3,2,12,11,08,119,00,13,15,027,36,15,17,221,00,17,76,158,50*71
1203$GPGSV,3,3,12,25,20,071,38,26,25,219,00,27,32,087,39,28,28,169,49*79
1204$GPRMC,180152,A,0642.3463,S,03711.9340,W,000.4,160.5,030208,,,A*77
1205$GPVTG,160.5,T,,M,000.4,N,000.7,K,A*0C
1206$GPGGA,180207,0642.3455,S,03711.9360,W,1,06,01.6,00204.0,M,-012.0,M,,*67
1207$GPGSA,A,3,04,10,13,17,25,27,,,,,,,02.9,01.6,02.4*0B
1208$GPGSV,3,1,12,02,11,341,00,04,29,014,48,08,41,124,47,10,18,295,40*71
1209$GPGSV,3,2,12,11,08,119,00,13,15,027,34,15,17,221,00,17,76,158,47*75
1210$GPGSV,3,3,12,25,20,071,35,26,25,219,00,27,32,087,40,28,28,169,49*7A
1211$GPRMC,180207,A,0642.3455,S,03711.9360,W,001.1,189.1,030208,,,A*74
1212$GPVTG,189.1,T,,M,001.1,N,002.2,K,A*0C
1213$GPGGA,180222,0642.3461,S,03711.9360,W,1,06,01.6,00204.6,M,-012.0,M,,*61
1214$GPGSA,A,3,04,10,13,17,25,27,,,,,,,02.9,01.6,02.4*0B
1215$GPGSV,3,1,12,02,11,341,00,04,29,014,50,08,41,124,47,10,18,295,42*7A
1216$GPGSV,3,2,12,11,08,119,00,13,15,027,36,15,17,221,00,17,76,158,48*78
1217$GPGSV,3,3,12,25,20,071,36,26,25,219,00,27,32,086,40,28,28,169,50*70
1218$GPRMC,180222,A,0642.3461,S,03711.9360,W,000.7,172.3,030208,,,A*75
1219$GPVTG,172.3,T,,M,000.7,N,001.4,K,A*08
1220$GPGGA,180237,0642.3450,S,03711.9361,W,1,06,01.6,00204.9,M,-012.0,M,,*69
1221$GPGSA,A,3,04,10,13,17,25,27,,,,,,,02.9,01.6,02.4*0B
1222$GPGSV,3,1,12,02,11,341,00,04,29,014,51,08,41,124,47,10,18,295,43*7A
1223$GPGSV,3,2,12,11,08,119,00,13,15,027,37,15,17,221,00,17,76,158,48*79
1224$GPGSV,3,3,12,25,20,071,35,26,25,219,00,27,32,086,43,28,28,168,50*71
1225$GPRMC,180237,A,0642.3450,S,03711.9361,W,000.3,167.9,030208,,,A*78
1226$GPVTG,167.9,T,,M,000.3,N,000.5,K,A*02
1227$GPGGA,180252,0642.3450,S,03711.9357,W,1,06,01.6,00205.3,M,-012.0,M,,*64
1228$GPGSA,A,3,04,10,13,17,25,27,,,,,,,03.0,01.6,02.4*03
1229$GPGSV,3,1,12,02,11,341,00,04,29,014,49,08,41,124,46,10,18,295,42*73
1230$GPGSV,3,2,12,11,08,120,00,13,15,027,38,15,17,221,00,17,76,158,48*7C
1231$GPGSV,3,3,12,25,20,071,36,26,25,219,00,27,32,086,43,28,28,168,51*73
1232$GPRMC,180252,A,0642.3450,S,03711.9357,W,000.1,167.9,030208,,,A*7C
1233$GPVTG,167.9,T,,M,000.1,N,000.2,K,A*07
1234$GPGGA,180307,0642.3448,S,03711.9355,W,1,06,01.6,00205.7,M,-012.0,M,,*6A
1235$GPGSA,A,3,04,10,13,17,25,27,,,,,,,03.0,01.6,02.4*03
1236$GPGSV,3,1,12,02,11,341,00,04,29,014,50,08,41,124,45,10,18,295,40*7A
1237$GPGSV,3,2,12,11,08,120,00,13,15,027,37,15,17,221,00,17,76,158,46*7D
1238$GPGSV,3,3,12,25,20,071,35,26,25,219,00,27,32,086,45,28,28,168,50*77
1239$GPRMC,180307,A,0642.3448,S,03711.9355,W,000.3,167.9,030208,,,A*74
1240$GPVTG,167.9,T,,M,000.3,N,000.6,K,A*01
1241$GPGGA,180322,0642.3456,S,03711.9353,W,1,06,01.6,00206.4,M,-012.0,M,,*64
1242$GPGSA,A,3,04,10,13,17,25,27,,,,,,,03.0,01.6,02.5*02
1243$GPGSV,3,1,12,02,11,341,00,04,29,014,51,08,41,124,44,10,18,295,38*75
1244$GPGSV,3,2,12,11,08,120,00,13,15,027,38,15,17,221,00,17,76,159,46*73
1245$GPGSV,3,3,12,25,20,070,35,26,26,219,00,27,32,086,43,28,28,168,51*72
1246$GPRMC,180322,A,0642.3456,S,03711.9353,W,000.6,149.0,030208,,,A*7A
1247$GPVTG,149.0,T,,M,000.6,N,001.1,K,A*07
1248$GPGGA,180337,0642.3457,S,03711.9352,W,1,06,01.6,00206.4,M,-012.0,M,,*60
1249$GPGSA,A,3,04,10,13,17,25,27,,,,,,,03.0,01.6,02.5*02
1250$GPGSV,3,1,12,02,11,341,00,04,30,014,51,08,41,124,45,10,18,296,36*71
1251$GPGSV,3,2,12,11,08,120,00,13,14,027,40,15,17,221,00,17,76,159,48*73
1252$GPGSV,3,3,12,25,20,070,34,26,26,219,00,27,32,086,42,28,28,168,51*72
1253$GPRMC,180337,A,0642.3457,S,03711.9352,W,000.1,173.8,030208,,,A*78
1254$GPVTG,173.8,T,,M,000.1,N,000.2,K,A*03
1255$GPGGA,180352,0642.3464,S,03711.9368,W,1,06,01.6,00206.2,M,-012.0,M,,*6C
1256$GPGSA,A,3,04,10,13,17,25,27,,,,,,,03.0,01.6,02.5*02
1257$GPGSV,3,1,12,02,11,341,00,04,30,015,51,08,41,123,45,10,18,296,37*76
1258$GPGSV,3,2,12,11,08,120,00,13,14,027,41,15,18,221,00,17,75,159,49*7F
1259$GPGSV,3,3,12,25,20,070,35,26,26,219,00,27,32,086,41,28,28,168,50*71
1260$GPRMC,180352,A,0642.3464,S,03711.9368,W,000.6,198.4,030208,,,A*7C
1261$GPVTG,198.4,T,,M,000.6,N,001.2,K,A*0C
1262$GPGGA,180407,0642.3469,S,03711.9351,W,1,05,01.8,00205.4,M,-012.0,M,,*64
1263$GPGSA,A,3,04,10,13,17,27,,,,,,,,03.4,01.8,02.9*03
1264$GPGSV,3,1,12,02,11,341,00,04,30,015,50,08,41,123,46,10,18,296,38*7B
1265$GPGSV,3,2,12,11,08,120,00,13,14,027,39,15,18,221,00,17,75,159,47*7E
1266$GPGSV,3,3,12,25,20,070,30,26,26,219,00,27,32,085,41,28,28,168,49*7F
1267$GPRMC,180407,A,0642.3469,S,03711.9351,W,000.2,166.7,030208,,,A*7A
1268$GPVTG,166.7,T,,M,000.2,N,000.4,K,A*0D
1269$GPGGA,180422,0642.3474,S,03711.9353,W,1,06,01.6,00205.2,M,-012.0,M,,*66
1270$GPGSA,A,3,04,10,13,17,25,27,,,,,,,03.0,01.6,02.5*02
1271$GPGSV,3,1,12,02,11,341,00,04,30,015,49,08,41,123,42,10,18,296,40*78
1272$GPGSV,3,2,12,11,07,120,00,13,14,027,40,15,18,221,00,17,75,159,46*7E
1273$GPGSV,3,3,12,25,20,070,33,26,26,219,00,27,32,085,42,28,28,168,50*77
1274$GPRMC,180422,A,0642.3474,S,03711.9353,W,001.3,190.4,030208,,,A*79
1275$GPVTG,190.4,T,,M,001.3,N,002.4,K,A*05
1276$GPGGA,180437,0642.3466,S,03711.9348,W,1,06,01.7,00205.4,M,-012.0,M,,*6C
1277$GPGSA,A,3,04,10,13,17,25,27,,,,,,,03.0,01.7,02.5*03
1278$GPGSV,3,1,12,02,11,341,00,04,30,015,50,08,41,123,45,10,18,296,39*79
1279$GPGSV,3,2,12,11,07,120,00,13,14,027,37,15,18,221,00,17,75,159,45*7D
1280$GPGSV,3,3,12,25,19,070,31,26,26,219,00,27,32,085,42,28,27,168,50*70
1281$GPRMC,180437,A,0642.3466,S,03711.9348,W,000.0,190.4,030208,,,A*76
1282$GPVTG,190.4,T,,M,000.0,N,000.1,K,A*00
1283$GPGGA,180452,0642.3476,S,03711.9351,W,1,06,01.7,00205.5,M,-012.0,M,,*67
1284$GPGSA,A,3,04,10,13,17,25,27,,,,,,,03.0,01.7,02.5*03
1285$GPGSV,3,1,12,02,12,341,00,04,30,015,50,08,41,123,43,10,18,296,39*7C
1286$GPGSV,3,2,12,11,07,120,00,13,14,027,41,15,18,221,00,17,75,159,45*7C
1287$GPGSV,3,3,12,25,19,070,31,26,26,219,00,27,32,085,43,28,27,167,50*7E
1288$GPRMC,180452,A,0642.3476,S,03711.9351,W,000.4,190.4,030208,,,A*78
1289$GPVTG,190.4,T,,M,000.4,N,000.8,K,A*0D
1290$GPGGA,180507,0642.3483,S,03711.9350,W,1,06,01.7,00205.9,M,-012.0,M,,*61
1291$GPGSA,A,3,04,10,13,17,25,27,,,,,,,03.0,01.7,02.5*03
1292$GPGSV,3,1,12,02,12,341,00,04,30,015,50,08,41,123,44,10,18,296,40*75
1293$GPGSV,3,2,12,11,07,120,00,13,14,027,39,15,18,221,00,17,75,159,45*73
1294$GPGSV,3,3,12,25,19,070,33,26,26,220,00,27,32,085,43,28,27,167,50*76
1295$GPRMC,180507,A,0642.3483,S,03711.9350,W,000.2,165.1,030208,,,A*7B
1296$GPVTG,165.1,T,,M,000.2,N,000.4,K,A*08
1297$GPGGA,180522,0642.3495,S,03711.9350,W,1,06,01.7,00206.4,M,-012.0,M,,*6F
1298$GPGSA,A,3,04,10,13,17,25,27,,,,,,,03.0,01.7,02.5*03
1299$GPGSV,3,1,12,02,12,342,00,04,30,015,50,08,41,122,42,10,18,296,40*71
1300$GPGSV,3,2,12,11,07,120,00,13,14,027,41,15,18,221,00,17,75,159,46*7F
1301$GPGSV,3,3,12,25,19,070,34,26,26,220,00,27,32,085,42,28,27,167,49*78
1302$GPRMC,180522,A,0642.3495,S,03711.9350,W,000.6,176.8,030208,,,A*74
1303$GPVTG,176.8,T,,M,000.6,N,001.1,K,A*03
1304$GPGGA,180537,0642.3497,S,03711.9343,W,1,06,01.7,00207.0,M,-012.0,M,,*6E
1305$GPGSA,A,3,04,10,13,17,25,27,,,,,,,03.0,01.7,02.5*03
1306$GPGSV,3,1,12,02,12,342,00,04,30,015,50,08,41,122,42,10,18,297,40*70
1307$GPGSV,3,2,12,11,07,120,00,13,14,027,39,15,18,221,00,17,75,160,45*79
1308$GPGSV,3,3,12,25,19,069,31,26,26,220,00,27,32,085,42,28,27,167,48*74
1309$GPRMC,180537,A,0642.3497,S,03711.9343,W,000.1,153.5,030208,,,A*7D
1310$GPVTG,153.5,T,,M,000.1,N,000.2,K,A*0C
1311$GPGGA,180552,0642.3496,S,03711.9347,W,1,06,01.7,00207.4,M,-012.0,M,,*6C
1312$GPGSA,A,3,04,10,13,17,25,27,,,,,,,03.0,01.7,02.5*03
1313$GPGSV,3,1,12,02,12,342,00,04,30,015,50,08,41,122,42,10,18,297,38*7F
1314$GPGSV,3,2,12,11,07,121,00,13,14,027,41,15,18,222,00,17,74,160,44*74
1315$GPGSV,3,3,12,25,19,069,35,26,26,220,00,27,32,084,43,28,27,167,49*71
1316$GPRMC,180552,A,0642.3496,S,03711.9347,W,000.7,153.5,030208,,,A*7D
1317$GPVTG,153.5,T,,M,000.7,N,001.4,K,A*0D
1318$GPGGA,180607,0642.3491,S,03711.9353,W,1,06,01.7,00207.9,M,-012.0,M,,*60
1319$GPGSA,A,3,04,10,13,17,25,27,,,,,,,03.0,01.7,02.5*03
1320$GPGSV,3,1,12,02,12,342,00,04,30,015,51,08,41,122,45,10,18,297,37*76
1321$GPGSV,3,2,12,11,07,121,00,13,13,027,42,15,18,222,00,17,74,160,43*77
1322$GPGSV,3,3,12,25,19,069,36,26,27,220,00,27,31,084,46,28,27,167,47*7B
1323$GPRMC,180607,A,0642.3491,S,03711.9353,W,000.0,167.6,030208,,,A*7F
1324$GPVTG,167.6,T,,M,000.0,N,000.0,K,A*0B
1325$GPGGA,180622,0642.3466,S,03711.9364,W,1,06,01.7,00208.5,M,-012.0,M,,*68
1326$GPGSA,A,3,04,10,13,17,25,27,,,,,,,03.0,01.7,02.5*03
1327$GPGSV,3,1,12,02,12,342,00,04,30,015,51,08,41,122,42,10,17,297,37*7E
1328$GPGSV,3,2,12,11,07,121,00,13,13,027,42,15,18,222,00,17,74,160,47*73
1329$GPGSV,3,3,12,25,19,069,34,26,27,220,00,27,31,084,40,28,27,167,48*70
1330$GPRMC,180622,A,0642.3466,S,03711.9364,W,000.1,167.6,030208,,,A*75
1331$GPVTG,167.6,T,,M,000.1,N,000.2,K,A*08
1332$GPGGA,180637,0642.3465,S,03711.9374,W,1,06,01.7,00208.9,M,-012.0,M,,*62
1333$GPGSA,A,3,04,10,13,17,25,27,,,,,,,03.0,01.7,02.5*03
1334$GPGSV,3,1,12,02,12,342,00,04,30,016,50,08,41,122,41,10,17,297,37*7F
1335$GPGSV,3,2,12,11,07,121,00,13,13,027,45,15,18,222,00,17,74,160,48*7B
1336$GPGSV,3,3,12,25,19,069,37,26,27,220,00,27,31,084,42,28,27,167,41*78
1337$GPRMC,180637,A,0642.3465,S,03711.9374,W,002.6,167.6,030208,,,A*76
1338$GPVTG,167.6,T,,M,002.6,N,004.9,K,A*02
1339$GPGGA,180652,0642.3496,S,03711.9396,W,1,06,01.7,00207.9,M,-012.0,M,,*6E
1340$GPGSA,A,3,04,10,13,17,25,27,,,,,,,03.0,01.7,02.5*03
1341$GPGSV,3,1,12,02,12,342,00,04,30,016,52,08,41,122,45,10,17,297,35*7B
1342$GPGSV,3,2,12,11,07,121,00,13,13,027,46,15,19,222,00,17,74,160,52*72
1343$GPGSV,3,3,12,25,19,069,35,26,27,220,00,27,31,084,36,28,27,167,43*7B
1344$GPRMC,180652,A,0642.3496,S,03711.9396,W,001.4,167.6,030208,,,A*74
1345$GPVTG,167.6,T,,M,001.4,N,002.6,K,A*0A
1346$GPGGA,180707,0642.3495,S,03711.9355,W,1,04,03.2,00206.9,M,-012.0,M,,*67
1347$GPGSA,A,3,04,10,13,17,,,,,,,,,05.6,03.2,04.5*00
1348$GPGSV,3,1,12,02,12,342,00,04,31,016,49,08,41,121,48,10,17,297,35*7E
1349$GPGSV,3,2,12,11,07,121,00,13,13,027,45,15,19,222,00,17,74,160,50*73
1350$GPGSV,3,3,12,25,19,069,30,26,27,220,00,27,31,084,30,28,27,166,45*7F
1351$GPRMC,180707,A,0642.3495,S,03711.9355,W,001.3,167.6,030208,,,A*7E
1352$GPVTG,167.6,T,,M,001.3,N,002.5,K,A*0E
1353$GPGGA,180722,0642.3471,S,03711.9347,W,1,05,01.9,00206.5,M,-012.0,M,,*6D
1354$GPGSA,A,3,04,10,13,17,27,,,,,,,,03.5,01.9,02.9*03
1355$GPGSV,3,1,12,02,12,342,00,04,31,016,48,08,41,121,44,10,17,297,38*7E
1356$GPGSV,3,2,12,11,07,121,00,13,13,027,36,15,19,222,00,17,74,160,50*77
1357$GPGSV,3,3,12,25,19,069,26,26,27,220,00,27,31,084,37,28,27,166,45*7F
1358$GPRMC,180722,A,0642.3471,S,03711.9347,W,000.3,160.3,030208,,,A*73
1359$GPVTG,160.3,T,,M,000.3,N,000.5,K,A*0F
1360$GPGGA,180737,0642.3451,S,03711.9376,W,1,06,01.7,00206.0,M,-012.0,M,,*61
1361$GPGSA,A,3,04,10,13,17,25,27,,,,,,,03.1,01.7,02.5*02
1362$GPGSV,3,1,12,02,12,342,00,04,31,016,50,08,41,121,45,10,17,297,36*78
1363$GPGSV,3,2,12,11,07,121,00,13,13,027,43,15,19,222,00,17,73,160,46*75
1364$GPGSV,3,3,12,25,19,069,31,26,27,220,00,27,31,084,37,28,27,166,45*79
1365$GPRMC,180737,A,0642.3451,S,03711.9376,W,001.5,279.2,030208,,,A*7A
1366$GPVTG,279.2,T,,M,001.5,N,002.8,K,A*0D
1367$GPGGA,180752,0642.3456,S,03711.9388,W,1,06,01.7,00205.2,M,-012.0,M,,*65
1368$GPGSA,A,3,04,10,13,17,25,27,,,,,,,03.1,01.7,02.5*02
1369$GPGSV,3,1,12,02,12,342,00,04,31,016,47,08,41,121,46,10,17,298,40*73
1370$GPGSV,3,2,12,11,07,121,00,13,13,027,42,15,19,222,00,17,73,160,50*73
1371$GPGSV,3,3,12,25,19,068,39,26,27,220,00,27,31,083,46,28,27,166,44*70
1372$GPRMC,180752,A,0642.3456,S,03711.9388,W,001.4,279.2,030208,,,A*7E
1373$GPVTG,279.2,T,,M,001.4,N,002.7,K,A*03
1374$GPGGA,180807,0642.3521,S,03711.9452,W,1,05,01.8,00205.0,M,-012.0,M,,*65
1375$GPGSA,A,3,04,10,17,25,27,,,,,,,,03.1,01.8,02.6*0C
1376$GPGSV,3,1,12,02,12,342,00,04,31,016,41,08,41,121,51,10,17,298,35*71
1377$GPGSV,3,2,12,11,07,121,00,13,13,027,30,15,19,222,00,17,73,160,52*74
1378$GPGSV,3,3,12,25,19,068,46,26,27,220,00,27,31,083,51,28,27,166,34*79
1379$GPRMC,180807,A,0642.3521,S,03711.9452,W,002.1,236.7,030208,,,A*78
1380$GPVTG,236.7,T,,M,002.1,N,004.0,K,A*0A
1381$GPGGA,180822,0642.3501,S,03711.9621,W,1,05,01.8,00204.3,M,-012.0,M,,*64
1382$GPGSA,A,3,04,10,17,25,27,,,,,,,,03.1,01.8,02.6*0C
1383$GPGSV,3,1,12,02,12,342,00,04,31,016,34,08,42,121,47,10,17,298,44*71
1384$GPGSV,3,2,12,11,07,121,00,13,13,027,31,15,19,222,00,17,73,161,51*77
1385$GPGSV,3,3,12,25,19,068,34,26,27,220,00,27,31,083,41,28,27,166,37*7E
1386$GPRMC,180822,A,0642.3501,S,03711.9621,W,008.3,338.9,030208,,,A*72
1387$GPVTG,338.9,T,,M,008.3,N,015.5,K,A*06
1388$GPGGA,180837,0642.2938,S,03711.9645,W,1,05,01.9,00203.5,M,-012.0,M,,*65
1389$GPGSA,A,3,04,10,13,17,27,,,,,,,,03.5,01.9,03.0*0B
1390$GPGSV,3,1,12,02,13,342,00,04,31,016,40,08,42,120,43,10,17,298,46*74
1391$GPGSV,3,2,12,11,07,122,00,13,12,027,35,15,19,222,00,17,73,161,52*72
1392$GPGSV,3,3,12,25,19,068,32,26,27,220,00,27,31,083,40,28,27,166,35*7B
1393$GPRMC,180837,A,0642.2938,S,03711.9645,W,013.8,357.2,030208,,,A*70
1394$GPVTG,357.2,T,,M,013.8,N,025.6,K,A*05
1395$GPGGA,180852,0642.2390,S,03711.9942,W,1,06,01.7,00196.7,M,-012.0,M,,*66
1396$GPGSA,A,3,04,10,13,17,25,27,,,,,,,03.1,01.7,02.6*01
1397$GPGSV,3,1,12,02,13,343,00,04,31,016,45,08,42,120,34,10,17,298,40*76
1398$GPGSV,3,2,12,11,07,122,00,13,12,027,34,15,19,222,00,17,73,161,48*78
1399$GPGSV,3,3,12,25,19,068,34,26,28,221,00,27,31,083,38,28,27,166,36*7F
1400$GPRMC,180852,A,0642.2390,S,03711.9942,W,012.4,332.3,030208,,,A*7C
1401$GPVTG,332.3,T,,M,012.4,N,023.1,K,A*0B
1402$GPGGA,180907,0642.1896,S,03712.0289,W,1,05,01.8,00200.2,M,-012.0,M,,*6A
1403$GPGSA,A,3,04,10,17,25,27,,,,,,,,03.2,01.8,02.6*0F
1404$GPGSV,3,1,12,02,13,343,00,04,31,017,37,08,42,120,41,10,17,298,37*70
1405$GPGSV,3,2,12,11,07,122,00,13,12,027,31,15,19,222,00,17,73,161,52*76
1406$GPGSV,3,3,12,25,19,068,33,26,28,221,00,27,31,083,45,28,27,166,41*72
1407$GPRMC,180907,A,0642.1896,S,03712.0289,W,013.0,325.0,030208,,,A*75
1408$GPVTG,325.0,T,,M,013.0,N,024.2,K,A*0F
1409$GPGGA,180922,0642.1245,S,03712.0698,W,1,06,01.7,00196.7,M,-012.0,M,,*68
1410$GPGSA,A,3,04,10,13,17,25,27,,,,,,,03.1,01.7,02.6*01
1411$GPGSV,3,1,12,02,13,343,00,04,31,017,36,08,42,120,42,10,17,298,45*77
1412$GPGSV,3,2,12,11,07,122,00,13,12,027,37,15,19,222,00,17,73,161,46*75
1413$GPGSV,3,3,12,25,19,068,43,26,28,221,00,27,31,083,48,28,27,166,39*77
1414$GPRMC,180922,A,0642.1245,S,03712.0698,W,021.1,320.7,030208,,,A*70
1415$GPVTG,320.7,T,,M,021.1,N,039.0,K,A*03
1416$GPGGA,180937,0642.0666,S,03712.1006,W,1,06,01.7,00199.1,M,-012.0,M,,*61
1417$GPGSA,A,3,04,10,13,17,25,27,,,,,,,03.1,01.7,02.6*01
1418$GPGSV,3,1,12,02,13,343,00,04,31,017,46,08,42,120,38,10,17,298,41*79
1419$GPGSV,3,2,12,11,06,122,00,13,12,027,37,15,19,222,00,17,72,161,50*72
1420$GPGSV,3,3,12,25,19,068,42,26,28,221,00,27,31,082,48,28,27,165,35*78
1421$GPRMC,180937,A,0642.0666,S,03712.1006,W,011.9,327.1,030208,,,A*7A
1422$GPVTG,327.1,T,,M,011.9,N,022.1,K,A*02
1423$GPGGA,180952,0642.0075,S,03712.1322,W,1,06,01.7,00199.9,M,-012.0,M,,*6B
1424$GPGSA,A,3,04,10,13,17,25,27,,,,,,,03.1,01.7,02.6*01
1425$GPGSV,3,1,12,02,13,343,00,04,31,017,41,08,42,120,43,10,17,299,41*73
1426$GPGSV,3,2,12,11,06,122,00,13,12,027,36,15,20,222,00,17,72,161,52*7B
1427$GPGSV,3,3,12,25,19,068,39,26,28,221,00,27,31,082,42,28,26,165,45*78
1428$GPRMC,180952,A,0642.0075,S,03712.1322,W,018.2,333.3,030208,,,A*7D
1429$GPVTG,333.3,T,,M,018.2,N,033.8,K,A*0E
1430$GPGGA,181007,0641.9432,S,03712.1463,W,1,06,01.7,00201.6,M,-012.0,M,,*61
1431$GPGSA,A,3,04,10,13,17,25,27,,,,,,,03.1,01.7,02.6*01
1432$GPGSV,3,1,12,02,13,343,00,04,31,017,47,08,42,119,47,10,17,299,43*79
1433$GPGSV,3,2,12,11,06,122,00,13,12,027,34,15,20,223,00,17,72,161,51*7B
1434$GPGSV,3,3,12,25,18,067,39,26,28,221,00,27,31,082,43,28,26,165,36*73
1435$GPRMC,181007,A,0641.9432,S,03712.1463,W,010.6,356.5,030208,,,A*73
1436$GPVTG,356.5,T,,M,010.6,N,019.7,K,A*00
1437$GPGGA,181022,0641.8958,S,03712.1440,W,1,06,01.7,00202.2,M,-012.0,M,,*60
1438$GPGSA,A,3,04,10,13,17,25,27,,,,,,,03.1,01.7,02.6*01
1439$GPGSV,3,1,12,02,13,343,00,04,31,017,46,08,42,119,47,10,17,299,41*7A
1440$GPGSV,3,2,12,11,06,122,00,13,12,027,42,15,20,223,00,17,72,161,51*7A
1441$GPGSV,3,3,12,25,18,067,37,26,28,221,00,27,31,082,45,28,26,165,38*75
1442$GPRMC,181022,A,0641.8958,S,03712.1440,W,007.2,008.0,030208,,,A*7A
1443$GPVTG,008.0,T,,M,007.2,N,013.4,K,A*06
1444$GPGGA,181037,0641.8656,S,03712.1422,W,1,06,01.7,00201.7,M,-012.0,M,,*67
1445$GPGSA,A,3,04,10,13,17,25,27,,,,,,,03.1,01.7,02.6*01
1446$GPGSV,3,1,12,02,13,343,00,04,32,017,48,08,42,119,42,10,17,299,40*73
1447$GPGSV,3,2,12,11,06,122,00,13,12,027,38,15,20,223,00,17,72,161,52*74
1448$GPGSV,3,3,12,25,18,067,39,26,28,221,00,27,31,082,44,28,26,165,37*75
1449$GPRMC,181037,A,0641.8656,S,03712.1422,W,007.7,005.2,030208,,,A*71
1450$GPVTG,005.2,T,,M,007.7,N,014.4,K,A*0B
1451$GPGGA,181052,0641.8292,S,03712.1397,W,1,06,01.7,00201.2,M,-012.0,M,,*64
1452$GPGSA,A,3,04,10,13,17,25,27,,,,,,,03.1,01.7,02.6*01
1453$GPGSV,3,1,12,02,13,343,00,04,32,017,44,08,42,119,38,10,17,299,43*71
1454$GPGSV,3,2,12,11,06,122,00,13,12,027,36,15,20,223,00,17,72,161,52*7A
1455$GPGSV,3,3,12,25,18,067,40,26,28,221,00,27,31,082,47,28,26,165,41*79
1456$GPRMC,181052,A,0641.8292,S,03712.1397,W,010.4,017.3,030208,,,A*70
1457$GPVTG,017.3,T,,M,010.4,N,019.4,K,A*01
1458$GPGGA,181107,0641.7813,S,03712.1400,W,1,06,01.7,00202.6,M,-012.0,M,,*67
1459$GPGSA,A,3,04,10,13,17,25,27,,,,,,,03.1,01.7,02.6*01
1460$GPGSV,3,1,12,02,13,343,00,04,32,017,45,08,42,119,51,10,17,299,41*7D
1461$GPGSV,3,2,12,11,06,122,00,13,11,027,33,15,20,223,00,17,72,161,51*7F
1462$GPGSV,3,3,12,25,18,067,35,26,28,221,00,27,31,082,42,28,26,165,40*7F
1463$GPRMC,181107,A,0641.7813,S,03712.1400,W,009.5,346.6,030208,,,A*7F
1464$GPVTG,346.6,T,,M,009.5,N,017.7,K,A*07
1465$GPGGA,181122,0641.7436,S,03712.1541,W,1,06,01.7,00202.3,M,-012.0,M,,*6A
1466$GPGSA,A,3,04,10,13,17,25,27,,,,,,,03.1,01.7,02.6*01
1467$GPGSV,3,1,12,02,13,343,00,04,32,017,42,08,42,119,50,10,17,299,45*7F
1468$GPGSV,3,2,12,11,06,122,00,13,11,027,39,15,20,223,00,17,72,161,52*76
1469$GPGSV,3,3,12,25,18,067,34,26,28,221,00,27,31,081,40,28,26,165,41*7E
1470$GPRMC,181122,A,0641.7436,S,03712.1541,W,009.7,337.2,030208,,,A*77
1471$GPVTG,337.2,T,,M,009.7,N,017.9,K,A*09
1472$GPGGA,181137,0641.7049,S,03712.1714,W,1,06,01.7,00201.3,M,-012.0,M,,*63
1473$GPGSA,A,3,04,10,13,17,25,27,,,,,,,03.1,01.7,02.6*01
1474$GPGSV,3,1,12,02,13,343,00,04,32,018,42,08,42,119,46,10,17,299,39*7C
1475$GPGSV,3,2,12,11,06,123,00,13,11,027,35,15,20,223,00,17,71,162,51*78
1476$GPGSV,3,3,12,25,18,067,36,26,29,221,00,27,31,081,43,28,26,165,40*7F
1477$GPRMC,181137,A,0641.7049,S,03712.1714,W,010.0,332.7,030208,,,A*72
1478$GPVTG,332.7,T,,M,010.0,N,018.5,K,A*05
1479$GPGGA,181152,0641.6631,S,03712.1937,W,1,06,01.7,00202.2,M,-012.0,M,,*65
1480$GPGSA,A,3,04,10,13,17,25,27,,,,,,,03.1,01.7,02.6*01
1481$GPGSV,3,1,12,02,13,343,00,04,32,018,49,08,42,118,39,10,17,299,41*71
1482$GPGSV,3,2,12,11,06,123,00,13,11,027,32,15,20,223,00,17,71,162,51*7F
1483$GPGSV,3,3,12,25,18,067,37,26,29,221,00,27,31,081,46,28,26,165,40*7B
1484$GPRMC,181152,A,0641.6631,S,03712.1937,W,008.1,324.4,030208,,,A*7A
1485$GPVTG,324.4,T,,M,008.1,N,015.0,K,A*01
1486$GPGGA,181207,0641.6401,S,03712.2123,W,1,06,01.7,00203.1,M,-012.0,M,,*6B
1487$GPGSA,A,3,04,10,13,17,25,27,,,,,,,03.1,01.7,02.6*01
1488$GPGSV,3,1,12,02,14,343,00,04,32,018,49,08,42,118,37,10,17,300,42*7A
1489$GPGSV,3,2,12,11,06,123,00,13,11,027,32,15,20,223,00,17,71,162,51*7F
1490$GPGSV,3,3,12,25,18,067,40,26,29,221,00,27,31,081,48,28,26,164,36*75
1491$GPRMC,181207,A,0641.6401,S,03712.2123,W,009.0,317.7,030208,,,A*75
1492$GPVTG,317.7,T,,M,009.0,N,016.8,K,A*09
1493$GPGGA,181222,0641.6055,S,03712.2264,W,1,06,01.7,00203.6,M,-012.0,M,,*6E
1494$GPGSA,A,3,04,10,13,17,25,27,,,,,,,03.1,01.7,02.6*01
1495$GPGSV,3,1,12,02,14,343,00,04,32,018,47,08,42,118,50,10,17,300,39*79
1496$GPGSV,3,2,12,11,06,123,00,13,11,027,33,15,20,223,00,17,71,162,47*79
1497$GPGSV,3,3,12,25,18,067,32,26,29,222,00,27,31,081,38,28,26,164,45*70
1498$GPRMC,181222,A,0641.6055,S,03712.2264,W,008.1,345.1,030208,,,A*76
1499$GPVTG,345.1,T,,M,008.1,N,015.1,K,A*02
1500$GPGGA,181237,0641.5657,S,03712.2376,W,1,06,01.7,00203.5,M,-012.0,M,,*6C
1501$GPGSA,A,3,04,10,13,17,25,27,,,,,,,03.2,01.7,02.6*02
1502$GPGSV,3,1,12,02,14,344,00,04,32,018,46,08,42,118,49,10,17,300,40*79
1503$GPGSV,3,2,12,11,06,123,00,13,11,027,33,15,20,223,00,17,71,162,50*7F
1504$GPGSV,3,3,12,25,18,066,34,26,29,222,00,27,31,081,46,28,26,164,42*79
1505$GPRMC,181237,A,0641.5657,S,03712.2376,W,009.6,347.1,030208,,,A*73
1506$GPVTG,347.1,T,,M,009.6,N,017.8,K,A*0D
1507$GPGGA,181252,0641.5288,S,03712.2529,W,1,06,01.7,00204.8,M,-012.0,M,,*6F
1508$GPGSA,A,3,04,10,13,17,25,27,,,,,,,03.2,01.7,02.6*02
1509$GPGSV,3,1,12,02,14,344,00,04,32,018,48,08,42,118,38,10,17,300,47*76
1510$GPGSV,3,2,12,11,06,123,00,13,11,027,29,15,21,223,00,17,71,162,48*7C
1511$GPGSV,3,3,12,25,18,066,36,26,29,222,00,27,31,081,45,28,26,164,36*7B
1512$GPRMC,181252,A,0641.5288,S,03712.2529,W,010.9,322.5,030208,,,A*7A
1513$GPVTG,322.5,T,,M,010.9,N,020.3,K,A*02
1514$GPGGA,181307,0641.5093,S,03712.2788,W,1,05,01.8,00203.3,M,-012.0,M,,*6F
1515$GPGSA,A,3,04,10,17,25,27,,,,,,,,03.2,01.8,02.6*0F
1516$GPGSV,3,1,12,02,14,344,00,04,32,018,46,08,42,118,46,10,17,300,40*76
1517$GPGSV,3,2,12,11,06,123,00,13,11,027,29,15,21,223,00,17,71,162,51*74
1518$GPGSV,3,3,12,25,18,066,36,26,29,222,00,27,31,081,49,28,26,164,36*77
1519$GPRMC,181307,A,0641.5093,S,03712.2788,W,008.5,295.2,030208,,,A*75
1520$GPVTG,295.2,T,,M,008.5,N,015.7,K,A*0F
1521$GPGGA,181322,0641.4850,S,03712.3096,W,1,06,01.7,00203.5,M,-012.0,M,,*6D
1522$GPGSA,A,3,04,10,13,17,25,27,,,,,,,03.2,01.7,02.6*02
1523$GPGSV,3,1,12,02,14,344,00,04,32,018,43,08,42,117,46,10,17,300,40*7C
1524$GPGSV,3,2,12,11,06,123,00,13,11,027,35,15,21,223,00,17,70,162,52*7B
1525$GPGSV,3,3,12,25,18,066,33,26,29,222,00,27,31,080,42,28,26,164,40*79
1526$GPRMC,181322,A,0641.4850,S,03712.3096,W,011.0,327.0,030208,,,A*7A
1527$GPVTG,327.0,T,,M,011.0,N,020.4,K,A*0D
1528$GPGGA,181337,0641.4344,S,03712.3225,W,1,06,01.7,00203.8,M,-012.0,M,,*60
1529$GPGSA,A,3,04,10,13,17,25,27,,,,,,,03.2,01.7,02.6*02
1530$GPGSV,3,1,12,02,14,344,00,04,32,018,46,08,42,117,46,10,17,300,43*7A
1531$GPGSV,3,2,12,11,06,123,00,13,10,027,35,15,21,223,00,17,70,162,50*78
1532$GPGSV,3,3,12,25,18,066,35,26,29,222,00,27,31,080,45,28,26,164,36*79
1533$GPRMC,181337,A,0641.4344,S,03712.3225,W,012.9,341.4,030208,,,A*74
1534$GPVTG,341.4,T,,M,012.9,N,023.9,K,A*0D
1535$GPGGA,181352,0641.3915,S,03712.3361,W,1,06,01.7,00204.3,M,-012.0,M,,*67
1536$GPGSA,A,3,04,10,13,17,25,27,,,,,,,03.2,01.7,02.6*02
1537$GPGSV,3,1,12,02,14,344,00,04,32,018,50,08,42,117,40,10,17,300,45*7D
1538$GPGSV,3,2,12,11,06,123,00,13,10,027,34,15,21,223,00,17,70,162,49*71
1539$GPGSV,3,3,12,25,18,066,36,26,29,222,00,27,31,080,42,28,26,164,36*7D
1540$GPRMC,181352,A,0641.3915,S,03712.3361,W,010.2,323.7,030208,,,A*71
1541$GPVTG,323.7,T,,M,010.2,N,018.9,K,A*0B
1542$GPGGA,181407,0641.3592,S,03712.3619,W,1,06,01.7,00204.6,M,-012.0,M,,*6C
1543$GPGSA,A,3,04,10,13,17,25,27,,,,,,,03.2,01.7,02.6*02
1544$GPGSV,3,1,12,02,14,344,00,04,33,019,49,08,42,117,35,10,17,301,44*77
1545$GPGSV,3,2,12,11,06,123,00,13,10,027,35,15,21,224,00,17,70,162,49*77
1546$GPGSV,3,3,12,25,18,066,34,26,29,222,00,27,31,080,40,28,26,164,34*7F
1547$GPRMC,181407,A,0641.3592,S,03712.3619,W,009.9,326.4,030208,,,A*7A
1548$GPVTG,326.4,T,,M,009.9,N,018.3,K,A*04
1549$GPGGA,181422,0641.3320,S,03712.3867,W,1,06,01.7,00204.9,M,-012.0,M,,*6C
1550$GPGSA,A,3,04,10,13,17,25,27,,,,,,,03.2,01.7,02.6*02
1551$GPGSV,3,1,12,02,14,344,00,04,33,019,52,08,42,117,35,10,17,301,46*7F
1552$GPGSV,3,2,12,11,06,123,00,13,10,027,33,15,21,224,00,17,70,162,51*78
1553$GPGSV,3,3,12,25,18,066,35,26,29,222,00,27,31,080,47,28,26,163,36*7C
1554$GPRMC,181422,A,0641.3320,S,03712.3867,W,006.6,315.5,030208,,,A*74
1555$GPVTG,315.5,T,,M,006.6,N,012.3,K,A*0F
1556$GPGGA,181437,0641.2857,S,03712.4126,W,1,06,01.7,00204.2,M,-012.0,M,,*62
1557$GPGSA,A,3,04,10,13,17,25,27,,,,,,,03.2,01.7,02.6*02
1558$GPGSV,3,1,12,02,14,344,00,04,33,019,46,08,42,117,48,10,17,301,34*75
1559$GPGSV,3,2,12,11,06,124,00,13,10,027,33,15,21,224,00,17,70,162,48*77
1560$GPGSV,3,3,12,25,18,066,35,26,30,222,00,27,31,080,34,28,26,163,36*70
1561$GPRMC,181437,A,0641.2857,S,03712.4126,W,014.7,342.2,030208,,,A*76
1562$GPVTG,342.2,T,,M,014.7,N,027.3,K,A*0E
1563$GPGGA,181452,0641.2360,S,03712.4502,W,1,05,01.8,00205.3,M,-012.0,M,,*60
1564$GPGSA,A,3,04,10,17,25,27,,,,,,,,03.2,01.8,02.7*0E
1565$GPGSV,3,1,12,02,14,344,00,04,33,019,48,08,42,116,33,10,17,301,46*73
1566$GPGSV,3,2,12,11,05,124,00,13,10,027,28,15,21,224,00,17,70,162,49*7F
1567$GPGSV,3,3,12,25,18,065,33,26,30,222,00,27,30,080,46,28,26,163,41*71
1568$GPRMC,181452,A,0641.2360,S,03712.4502,W,018.0,314.6,030208,,,A*74
1569$GPVTG,314.6,T,,M,018.0,N,033.3,K,A*07
1570$GPGGA,181507,0641.1771,S,03712.4569,W,1,06,01.8,00204.3,M,-012.0,M,,*69
1571$GPGSA,A,3,04,10,13,17,25,27,,,,,,,03.2,01.8,02.6*0D
1572$GPGSV,3,1,12,02,14,344,00,04,33,019,46,08,42,116,46,10,17,301,42*7B
1573$GPGSV,3,2,12,11,05,124,00,13,10,027,45,15,21,224,00,17,70,162,51*7D
1574$GPGSV,3,3,12,25,18,065,43,26,30,222,00,27,30,079,41,28,25,163,42*77
1575$GPRMC,181507,A,0641.1771,S,03712.4569,W,015.8,003.0,030208,,,A*79
1576$GPVTG,003.0,T,,M,015.8,N,029.3,K,A*0A
1577$GPGGA,181522,0641.1197,S,03712.4542,W,1,06,01.8,00204.7,M,-012.0,M,,*6D
1578$GPGSA,A,3,04,10,13,17,25,27,,,,,,,03.2,01.8,02.6*0D
1579$GPGSV,3,1,12,02,14,344,00,04,33,019,50,08,42,116,49,10,17,301,38*7E
1580$GPGSV,3,2,12,11,05,124,00,13,10,027,34,15,21,224,00,17,69,162,50*72
1581$GPGSV,3,3,12,25,17,065,42,26,30,222,00,27,30,079,46,28,25,163,36*7D
1582$GPRMC,181522,A,0641.1197,S,03712.4542,W,014.2,349.9,030208,,,A*76
1583$GPVTG,349.9,T,,M,014.2,N,026.3,K,A*0A
1584$GPGGA,181537,0641.0643,S,03712.4650,W,1,06,01.8,00204.5,M,-012.0,M,,*64
1585$GPGSA,A,3,04,10,13,17,25,27,,,,,,,03.2,01.8,02.6*0D
1586$GPGSV,3,1,12,02,15,344,00,04,33,019,49,08,42,116,46,10,17,301,37*77
1587$GPGSV,3,2,12,11,05,124,00,13,10,027,34,15,22,224,00,17,69,162,51*70
1588$GPGSV,3,3,12,25,17,065,34,26,30,223,00,27,30,079,45,28,25,163,41*7E
1589$GPRMC,181537,A,0641.0643,S,03712.4650,W,017.3,347.3,030208,,,A*7B
1590$GPVTG,347.3,T,,M,017.3,N,032.1,K,A*0B
1591$GPGGA,181552,0641.0006,S,03712.4705,W,1,06,01.8,00204.7,M,-012.0,M,,*63
1592$GPGSA,A,3,04,10,13,17,25,27,,,,,,,03.2,01.8,02.6*0D
1593$GPGSV,3,1,12,02,15,344,00,04,33,019,50,08,42,116,38,10,17,301,45*73
1594$GPGSV,3,2,12,11,05,124,00,13,10,027,35,15,22,224,00,17,69,162,52*72
1595$GPGSV,3,3,12,25,17,065,41,26,30,223,00,27,30,079,46,28,25,163,33*7A
1596$GPRMC,181552,A,0641.0006,S,03712.4705,W,010.7,321.5,030208,,,A*7B
1597$GPVTG,321.5,T,,M,010.7,N,019.8,K,A*0E
1598$GPGGA,181607,0640.9673,S,03712.4794,W,1,05,01.8,00207.9,M,-012.0,M,,*6A
1599$GPGSA,A,3,04,10,17,25,27,,,,,,,,03.3,01.8,02.7*0F
1600$GPGSV,3,1,12,02,15,345,00,04,33,019,46,08,42,116,51,10,17,301,38*70
1601$GPGSV,3,2,12,11,05,124,00,13,09,027,30,15,22,224,00,17,69,162,50*7D
1602$GPGSV,3,3,12,25,17,065,31,26,30,223,00,27,30,079,39,28,25,163,35*73
1603$GPRMC,181607,A,0640.9673,S,03712.4794,W,005.9,346.0,030208,,,A*72
1604$GPVTG,346.0,T,,M,005.9,N,010.9,K,A*08
1605$GPGGA,181622,0640.9591,S,03712.4813,W,1,06,01.8,00199.5,M,-012.0,M,,*69
1606$GPGSA,A,3,04,10,13,17,25,27,,,,,,,03.2,01.8,02.6*0D
1607$GPGSV,3,1,12,02,15,345,00,04,33,019,50,08,42,116,48,10,17,302,42*71
1608$GPGSV,3,2,12,11,05,124,00,13,09,027,40,15,22,224,00,17,69,162,42*79
1609$GPGSV,3,3,12,25,17,065,32,26,30,223,00,27,30,079,43,28,25,163,40*7F
1610$GPRMC,181622,A,0640.9591,S,03712.4813,W,000.5,350.5,030208,,,A*71
1611$GPVTG,350.5,T,,M,000.5,N,000.9,K,A*02
1612$GPGGA,181637,0640.9586,S,03712.4786,W,1,06,01.8,00199.5,M,-012.0,M,,*68
1613$GPGSA,A,3,04,10,13,17,25,27,,,,,,,03.2,01.8,02.6*0D
1614$GPGSV,3,1,12,02,15,345,00,04,33,020,44,08,42,115,49,10,17,302,40*7E
1615$GPGSV,3,2,12,11,05,124,00,13,09,027,41,15,22,224,00,17,69,163,37*7B
1616$GPGSV,3,3,12,25,17,065,33,26,30,223,00,27,30,079,39,28,25,162,41*73
1617$GPRMC,181637,A,0640.9586,S,03712.4786,W,000.0,024.0,030208,,,A*70
1618$GPVTG,024.0,T,,M,000.0,N,000.1,K,A*0A
1619$GPGGA,181652,0640.9624,S,03712.4816,W,1,06,01.8,00198.3,M,-012.0,M,,*61
1620$GPGSA,A,3,04,10,13,17,25,27,,,,,,,03.2,01.8,02.6*0D
1621$GPGSV,3,1,12,02,15,345,00,04,33,020,42,08,42,115,51,10,17,302,43*72
1622$GPGSV,3,2,12,11,05,124,00,13,09,027,39,15,22,224,00,17,69,163,41*75
1623$GPGSV,3,3,12,25,17,065,28,26,30,223,00,27,30,079,37,28,25,162,35*74
1624$GPRMC,181652,A,0640.9624,S,03712.4816,W,000.7,057.7,030208,,,A*7A
1625$GPVTG,057.7,T,,M,000.7,N,001.4,K,A*0A
1626$GPGGA,181707,0640.9632,S,03712.4822,W,1,06,01.8,00198.5,M,-012.0,M,,*66
1627$GPGSA,A,3,04,10,13,17,25,27,,,,,,,03.2,01.8,02.6*0D
1628$GPGSV,3,1,12,02,15,345,00,04,33,020,36,08,42,115,47,10,17,302,39*7B
1629$GPGSV,3,2,12,11,05,124,00,13,09,027,34,15,22,224,00,17,69,163,41*78
1630$GPGSV,3,3,12,25,17,065,37,26,30,223,00,27,30,078,45,28,25,162,36*7D
1631$GPRMC,181707,A,0640.9632,S,03712.4822,W,001.0,057.7,030208,,,A*7D
1632$GPVTG,057.7,T,,M,001.0,N,001.9,K,A*01
1633$GPGGA,181722,0640.9637,S,03712.4813,W,1,06,01.8,00198.9,M,-012.0,M,,*6A
1634$GPGSA,A,3,04,10,13,17,25,27,,,,,,,03.2,01.8,02.6*0D
1635$GPGSV,3,1,12,02,15,345,00,04,33,020,43,08,42,115,49,10,17,302,43*7A
1636$GPGSV,3,2,12,11,05,124,00,13,09,027,35,15,22,224,00,17,68,163,42*7B
1637$GPGSV,3,3,12,25,17,064,35,26,31,223,00,27,30,078,42,28,25,162,43*7A
1638$GPRMC,181722,A,0640.9637,S,03712.4813,W,000.4,113.6,030208,,,A*78
1639$GPVTG,113.6,T,,M,000.4,N,000.8,K,A*04
1640$GPGGA,181737,0640.9626,S,03712.4812,W,1,06,01.8,00199.5,M,-012.0,M,,*62
1641$GPGSA,A,3,04,10,13,17,25,27,,,,,,,03.2,01.8,02.6*0D
1642$GPGSV,3,1,12,02,15,345,00,04,34,020,47,08,42,115,52,10,17,302,40*70
1643$GPGSV,3,2,12,11,05,124,00,13,09,027,31,15,22,225,00,17,68,163,36*7D
1644$GPGSV,3,3,12,25,17,064,38,26,31,223,00,27,30,078,41,28,25,162,41*76
1645$GPRMC,181737,A,0640.9626,S,03712.4812,W,000.2,113.6,030208,,,A*7B
1646$GPVTG,113.6,T,,M,000.2,N,000.4,K,A*0E
1647$GPGGA,181752,0640.9628,S,03712.4804,W,1,06,01.8,00200.0,M,-012.0,M,,*6E
1648$GPGSA,A,3,04,10,13,17,25,27,,,,,,,03.2,01.8,02.6*0D
1649$GPGSV,3,1,12,02,15,345,00,04,34,020,38,08,42,115,45,10,17,302,42*7C
1650$GPGSV,3,2,12,11,05,125,00,13,09,027,41,15,22,225,00,17,68,163,40*7A
1651$GPGSV,3,3,12,25,17,064,36,26,31,223,00,27,30,078,42,28,25,162,41*7B
1652$GPRMC,181752,A,0640.9628,S,03712.4804,W,000.7,113.6,030208,,,A*74
1653$GPVTG,113.6,T,,M,000.7,N,001.4,K,A*0A
1654$GPGGA,181807,0640.9622,S,03712.4816,W,1,06,01.8,00200.8,M,-012.0,M,,*60
1655$GPGSA,A,3,04,10,13,17,25,27,,,,,,,03.2,01.8,02.6*0D
1656$GPGSV,3,1,12,02,15,345,00,04,34,020,35,08,42,114,45,10,17,302,42*70
1657$GPGSV,3,2,12,11,05,125,00,13,09,027,42,15,22,225,00,17,68,163,42*7B
1658$GPGSV,3,3,12,25,17,064,32,26,31,223,00,27,30,078,41,28,25,162,42*7F
1659$GPRMC,181807,A,0640.9622,S,03712.4816,W,000.5,201.5,030208,,,A*73
1660$GPVTG,201.5,T,,M,000.5,N,000.9,K,A*07
1661$GPGGA,181822,0640.9631,S,03712.4813,W,1,06,01.8,00201.6,M,-012.0,M,,*6F
1662$GPGSA,A,3,04,10,13,17,25,27,,,,,,,03.2,01.8,02.6*0D
1663$GPGSV,3,1,12,02,15,345,00,04,34,020,45,08,42,114,45,10,16,302,41*75
1664$GPGSV,3,2,12,11,05,125,00,13,09,027,43,15,22,225,00,17,68,163,45*7D
1665$GPGSV,3,3,12,25,17,064,32,26,31,223,00,27,30,078,41,28,25,162,42*7F
1666$GPRMC,181822,A,0640.9631,S,03712.4813,W,000.1,201.5,030208,,,A*77
1667$GPVTG,201.5,T,,M,000.1,N,000.3,K,A*09
1668$GPGGA,181837,0640.9652,S,03712.4810,W,1,06,01.8,00201.8,M,-012.0,M,,*63
1669$GPGSA,A,3,04,10,13,17,25,27,,,,,,,03.2,01.8,02.6*0D
1670$GPGSV,3,1,12,02,15,345,00,04,34,020,42,08,42,114,46,10,16,303,39*7F
1671$GPGSV,3,2,12,11,05,125,00,13,08,027,41,15,23,225,00,17,68,163,43*79
1672$GPGSV,3,3,12,25,17,064,26,26,31,223,00,27,30,078,41,28,25,162,43*7B
1673$GPRMC,181837,A,0640.9652,S,03712.4810,W,000.1,182.8,030208,,,A*70
1674$GPVTG,182.8,T,,M,000.1,N,000.3,K,A*0C
1675$GPGGA,181852,0640.9617,S,03712.4807,W,1,06,01.8,00202.4,M,-012.0,M,,*68
1676$GPGSA,A,3,04,10,13,17,25,27,,,,,,,03.2,01.8,02.6*0D
1677$GPGSV,3,1,12,02,15,345,00,04,34,020,43,08,42,114,45,10,16,303,42*71
1678$GPGSV,3,2,12,11,05,125,00,13,08,027,42,15,23,225,00,17,68,163,41*78
1679$GPGSV,3,3,12,25,17,064,35,26,31,224,00,27,30,078,42,28,25,162,43*7D
1680$GPRMC,181852,A,0640.9617,S,03712.4807,W,001.0,180.5,030208,,,A*7B
1681$GPVTG,180.5,T,,M,001.0,N,001.9,K,A*08
1682$GPGGA,181907,0640.9620,S,03712.4808,W,1,06,01.8,00202.5,M,-012.0,M,,*63
1683$GPGSA,A,3,04,10,13,17,25,27,,,,,,,03.2,01.8,02.6*0D
1684$GPGSV,3,1,12,02,16,345,00,04,34,021,43,08,42,114,46,10,16,303,41*73
1685$GPGSV,3,2,12,11,05,125,00,13,08,027,41,15,23,225,00,17,67,163,40*75
1686$GPGSV,3,3,12,25,17,064,35,26,31,224,00,27,30,077,44,28,25,161,41*75
1687$GPRMC,181907,A,0640.9620,S,03712.4808,W,000.2,180.5,030208,,,A*72
1688$GPVTG,180.5,T,,M,000.2,N,000.4,K,A*07
1689$GPGGA,181922,0640.9642,S,03712.4801,W,1,06,01.8,00202.6,M,-012.0,M,,*6A
1690$GPGSA,A,3,04,10,13,17,25,27,,,,,,,03.2,01.8,02.6*0D
1691$GPGSV,3,1,12,02,16,345,00,04,34,021,43,08,42,114,45,10,16,303,42*73
1692$GPGSV,3,2,12,11,05,125,00,13,08,027,42,15,23,225,00,17,67,163,38*79
1693$GPGSV,3,3,12,25,17,064,32,26,31,224,00,27,30,077,43,28,25,161,42*76
1694$GPRMC,181922,A,0640.9642,S,03712.4801,W,000.5,176.3,030208,,,A*70
1695$GPVTG,176.3,T,,M,000.5,N,000.9,K,A*02
1696$GPGGA,181937,0640.9651,S,03712.4812,W,1,06,01.8,00202.8,M,-012.0,M,,*60
1697$GPGSA,A,3,04,10,13,17,25,27,,,,,,,03.2,01.8,02.6*0D
1698$GPGSV,3,1,12,02,16,345,00,04,34,021,43,08,42,113,45,10,16,303,42*74
1699$GPGSV,3,2,12,11,04,125,00,13,08,027,40,15,23,225,00,17,67,163,41*74
1700$GPGSV,3,3,12,25,17,063,29,26,31,224,00,27,30,077,45,28,25,161,39*71
1701$GPRMC,181937,A,0640.9651,S,03712.4812,W,000.5,176.3,030208,,,A*74
1702$GPVTG,176.3,T,,M,000.5,N,000.9,K,A*02
1703$GPGGA,181952,0640.9670,S,03712.4826,W,1,06,01.8,00202.7,M,-012.0,M,,*68
1704$GPGSA,A,3,04,10,13,17,25,27,,,,,,,03.2,01.8,02.6*0D
1705$GPGSV,3,1,12,02,16,346,00,04,34,021,46,08,42,113,46,10,16,303,43*70
1706$GPGSV,3,2,12,11,04,125,00,13,08,027,43,15,23,225,00,17,67,163,42*74
1707$GPGSV,3,3,12,25,17,063,33,26,31,224,00,27,30,077,42,28,25,161,43*70
1708$GPRMC,181952,A,0640.9670,S,03712.4826,W,000.2,203.8,030208,,,A*7E
1709$GPVTG,203.8,T,,M,000.2,N,000.5,K,A*03
1710$GPGGA,182007,0640.9597,S,03712.4818,W,1,06,01.8,00201.9,M,-012.0,M,,*68
1711$GPGSA,A,3,04,10,13,17,25,27,,,,,,,03.2,01.8,02.6*0D
1712$GPGSV,3,1,12,02,16,346,00,04,34,021,46,08,42,113,46,10,16,303,41*72
1713$GPGSV,3,2,12,11,04,125,00,13,08,027,41,15,23,225,00,17,67,163,39*7A
1714$GPGSV,3,3,12,25,16,063,34,26,31,224,00,27,30,077,45,28,25,161,43*71
1715$GPRMC,182007,A,0640.9597,S,03712.4818,W,000.1,326.2,030208,,,A*7C
1716$GPVTG,326.2,T,,M,000.1,N,000.3,K,A*0A
1717$GPGGA,182022,0640.9605,S,03712.4818,W,1,06,01.8,00201.6,M,-012.0,M,,*68
1718$GPGSA,A,3,04,10,13,17,25,27,,,,,,,03.2,01.8,02.6*0D
1719$GPGSV,3,1,12,02,16,346,00,04,34,021,46,08,42,113,45,10,16,303,41*71
1720$GPGSV,3,2,12,11,04,125,00,13,08,027,40,15,23,225,00,17,67,163,35*77
1721$GPGSV,3,3,12,25,16,063,36,26,32,224,00,27,30,077,45,28,25,161,42*71
1722$GPRMC,182022,A,0640.9605,S,03712.4818,W,001.8,326.2,030208,,,A*7B
1723$GPVTG,326.2,T,,M,001.8,N,003.4,K,A*06
1724$GPGGA,182037,0640.9597,S,03712.4817,W,1,06,01.8,00201.9,M,-012.0,M,,*64
1725$GPGSA,A,3,04,10,13,17,25,27,,,,,,,03.2,01.8,02.6*0D
1726$GPGSV,3,1,12,02,16,346,00,04,34,021,46,08,42,113,45,10,16,304,42*75
1727$GPGSV,3,2,12,11,04,125,00,13,08,027,41,15,23,225,00,17,67,163,38*7B
1728$GPGSV,3,3,12,25,16,063,35,26,32,224,00,27,30,077,45,28,25,161,36*71
1729$GPRMC,182037,A,0640.9597,S,03712.4817,W,000.2,326.2,030208,,,A*73
1730$GPVTG,326.2,T,,M,000.2,N,000.3,K,A*09
1731$GPGGA,182052,0640.9601,S,03712.4814,W,1,06,01.8,00202.1,M,-012.0,M,,*63
1732$GPGSA,A,3,04,10,13,17,25,27,,,,,,,03.2,01.8,02.6*0D
1733$GPGSV,3,1,12,02,16,346,00,04,34,021,46,08,42,113,47,10,16,304,40*75
1734$GPGSV,3,2,12,11,04,125,00,13,08,027,41,15,23,225,00,17,67,163,41*75
1735$GPGSV,3,3,12,25,16,063,31,26,32,224,00,27,30,076,43,28,24,161,40*72
1736$GPRMC,182052,A,0640.9601,S,03712.4814,W,000.3,326.2,030208,,,A*7E
1737$GPVTG,326.2,T,,M,000.3,N,000.5,K,A*0E
1738$GPGGA,182107,0640.9598,S,03712.4811,W,1,06,01.8,00202.7,M,-012.0,M,,*62
1739$GPGSA,A,3,04,10,13,17,25,27,,,,,,,03.2,01.8,02.6*0D
1740$GPGSV,3,1,12,02,16,346,00,04,35,021,44,08,42,112,44,10,16,304,41*75
1741$GPGSV,3,2,12,11,04,126,00,13,08,027,36,15,23,226,00,17,66,163,46*73
1742$GPGSV,3,3,12,25,16,063,34,26,32,224,00,27,30,076,42,28,24,161,40*76
1743$GPRMC,182107,A,0640.9598,S,03712.4811,W,000.4,326.2,030208,,,A*7E
1744$GPVTG,326.2,T,,M,000.4,N,000.7,K,A*0B
1745$GPGGA,182122,0640.9592,S,03712.4811,W,1,06,01.8,00202.7,M,-012.0,M,,*6F
1746$GPGSA,A,3,04,10,13,17,25,27,,,,,,,03.2,01.8,02.6*0D
1747$GPGSV,3,1,12,02,16,346,00,04,35,021,47,08,42,112,42,10,16,304,41*70
1748$GPGSV,3,2,12,11,04,126,00,13,07,027,36,15,23,226,00,17,66,163,42*78
1749$GPGSV,3,3,12,25,16,063,35,26,32,224,00,27,30,076,46,28,24,160,39*7C
1750$GPRMC,182122,A,0640.9592,S,03712.4811,W,000.4,326.2,030208,,,A*73
1751$GPVTG,326.2,T,,M,000.4,N,000.7,K,A*0B
1752$GPGGA,182137,0640.9623,S,03712.4814,W,1,06,01.8,00202.5,M,-012.0,M,,*65
1753$GPGSA,A,3,04,10,13,17,25,27,,,,,,,03.2,01.8,02.6*0D
1754$GPGSV,3,1,12,02,16,346,00,04,35,022,47,08,42,112,42,10,16,304,41*73
1755$GPGSV,3,2,12,11,04,126,00,13,07,027,36,15,23,226,00,17,66,163,42*78
1756$GPGSV,3,3,12,25,16,063,35,26,32,224,00,27,30,076,46,28,24,160,40*72
1757$GPRMC,182137,A,0640.9623,S,03712.4814,W,000.4,353.4,030208,,,A*7F
1758$GPVTG,353.4,T,,M,000.4,N,000.7,K,A*0F
1759$GPGGA,182152,0640.9633,S,03712.4811,W,1,06,01.8,00202.5,M,-012.0,M,,*62
1760$GPGSA,A,3,04,10,13,17,25,27,,,,,,,03.2,01.8,02.6*0D
1761$GPGSV,3,1,12,02,16,346,00,04,35,022,47,08,42,112,42,10,16,304,40*72
1762$GPGSV,3,2,12,11,04,126,00,13,07,027,35,15,24,226,00,17,66,163,41*7F
1763$GPGSV,3,3,12,25,16,063,34,26,32,225,00,27,30,076,46,28,24,160,40*72
1764$GPRMC,182152,A,0640.9633,S,03712.4811,W,000.2,065.9,030208,,,A*75
1765$GPVTG,065.9,T,,M,000.2,N,000.4,K,A*01
1766$GPGGA,182207,0640.9623,S,03712.4812,W,1,06,01.8,00202.7,M,-012.0,M,,*61
1767$GPGSA,A,3,04,10,13,17,25,27,,,,,,,03.2,01.8,02.6*0D
1768$GPGSV,3,1,12,02,16,346,00,04,35,022,46,08,42,112,42,10,16,304,39*7D
1769$GPGSV,3,2,12,11,04,126,00,13,07,027,33,15,24,226,00,17,66,163,40*78
1770$GPGSV,3,3,12,25,16,062,35,26,32,225,00,27,29,076,46,28,24,160,40*7A
1771$GPRMC,182207,A,0640.9623,S,03712.4812,W,000.3,065.9,030208,,,A*75
1772$GPVTG,065.9,T,,M,000.3,N,000.5,K,A*01
1773$GPGGA,182222,0640.9624,S,03712.4806,W,1,06,01.8,00202.9,M,-012.0,M,,*6A
1774$GPGSA,A,3,04,10,13,17,25,27,,,,,,,03.2,01.8,02.6*0D
1775$GPGSV,3,1,12,02,17,346,00,04,35,022,46,08,43,112,42,10,16,304,40*73
1776$GPGSV,3,2,12,11,04,126,00,13,07,027,34,15,24,226,00,17,66,163,41*7E
1777$GPGSV,3,3,12,25,16,062,33,26,32,225,00,27,29,076,45,28,24,160,40*7F
1778$GPRMC,182222,A,0640.9624,S,03712.4806,W,000.3,017.9,030208,,,A*75
1779$GPVTG,017.9,T,,M,000.3,N,000.5,K,A*04
1780$GPGGA,182237,0640.9623,S,03712.4808,W,1,06,01.8,00202.7,M,-012.0,M,,*69
1781$GPGSA,A,3,04,10,13,17,25,27,,,,,,,03.2,01.8,02.6*0D
1782$GPGSV,3,1,12,02,17,346,00,04,35,022,46,08,43,111,44,10,16,304,41*77
1783$GPGSV,3,2,12,11,04,126,00,13,07,027,32,15,24,226,00,17,66,163,41*78
1784$GPGSV,3,3,12,25,16,062,33,26,32,225,00,27,29,076,46,28,24,160,39*72
1785$GPRMC,182237,A,0640.9623,S,03712.4808,W,000.8,017.9,030208,,,A*73
1786$GPVTG,017.9,T,,M,000.8,N,001.5,K,A*0E
1787$GPGGA,182252,0640.9610,S,03712.4810,W,1,06,01.8,00202.5,M,-012.0,M,,*61
1788$GPGSA,A,3,04,10,13,17,25,27,,,,,,,03.2,01.8,02.6*0D
1789$GPGSV,3,1,12,02,17,346,00,04,35,022,45,08,43,111,43,10,16,305,40*73
1790$GPGSV,3,2,12,11,04,126,00,13,07,027,30,15,24,226,00,17,66,163,41*7A
1791$GPGSV,3,3,12,25,16,062,35,26,32,225,00,27,29,075,47,28,24,160,39*76
1792$GPRMC,182252,A,0640.9610,S,03712.4810,W,000.4,358.0,030208,,,A*74
1793$GPVTG,358.0,T,,M,000.4,N,000.7,K,A*00
1794$GPGGA,182307,0640.9604,S,03712.4789,W,1,05,01.8,00202.7,M,-012.0,M,,*6B
1795$GPGSA,A,3,04,10,17,25,27,,,,,,,,03.3,01.8,02.8*00
1796$GPGSV,3,1,12,02,17,346,00,04,35,022,45,08,43,111,44,10,16,305,35*76
1797$GPGSV,3,2,12,11,04,126,00,13,07,027,28,15,24,226,00,17,65,163,42*73
1798$GPGSV,3,3,12,25,16,062,35,26,33,225,00,27,29,075,46,28,24,160,38*77
1799$GPRMC,182307,A,0640.9604,S,03712.4789,W,000.6,039.0,030208,,,A*79
1800$GPVTG,039.0,T,,M,000.6,N,001.1,K,A*01
1801$GPGGA,182322,0640.9606,S,03712.4791,W,1,06,01.8,00202.6,M,-012.0,M,,*65
1802$GPGSA,A,3,04,10,13,17,25,27,,,,,,,03.2,01.8,02.6*0D
1803$GPGSV,3,1,12,02,17,346,00,04,35,022,46,08,43,111,40,10,16,305,37*73
1804$GPGSV,3,2,12,11,04,126,00,13,07,027,27,15,24,226,00,17,65,163,43*7D
1805$GPGSV,3,3,12,25,16,062,36,26,33,225,00,27,29,075,45,28,24,160,36*79
1806$GPRMC,182322,A,0640.9606,S,03712.4791,W,000.1,029.3,030208,,,A*70
1807$GPVTG,029.3,T,,M,000.1,N,000.2,K,A*06
1808$GPGGA,182337,0640.9632,S,03712.4800,W,1,06,01.8,00202.2,M,-012.0,M,,*65
1809$GPGSA,A,3,04,10,13,17,25,27,,,,,,,03.2,01.8,02.6*0D
1810$GPGSV,3,1,12,02,17,347,00,04,35,022,49,08,43,111,32,10,16,305,49*71
1811$GPGSV,3,2,12,11,04,126,00,13,07,027,35,15,24,226,00,17,65,163,46*7B
1812$GPGSV,3,3,12,25,16,062,41,26,33,225,00,27,29,075,37,28,24,160,35*7F
1813$GPRMC,182337,A,0640.9632,S,03712.4800,W,000.5,104.8,030208,,,A*75
1814$GPVTG,104.8,T,,M,000.5,N,000.9,K,A*0C
1815$GPGGA,182352,0640.9603,S,03712.4810,W,1,06,01.8,00201.6,M,-012.0,M,,*62
1816$GPGSA,A,3,04,10,13,17,25,27,,,,,,,03.2,01.8,02.6*0D
1817$GPGSV,3,1,12,02,17,347,00,04,35,023,49,08,43,111,49,10,16,305,34*76
1818$GPGSV,3,2,12,11,04,126,00,13,06,027,38,15,24,226,00,17,65,163,49*78
1819$GPGSV,3,3,12,25,16,062,46,26,33,225,00,27,29,075,44,28,24,159,49*7D
1820$GPRMC,182352,A,0640.9603,S,03712.4810,W,000.8,352.0,030208,,,A*71
1821$GPVTG,352.0,T,,M,000.8,N,001.5,K,A*05
1822$GPGGA,182407,0640.9548,S,03712.4805,W,1,06,01.8,00201.8,M,-012.0,M,,*63
1823$GPGSA,A,3,04,10,13,17,25,27,,,,,,,03.2,01.8,02.6*0D
1824$GPGSV,3,1,12,02,17,347,00,04,35,023,42,08,43,110,47,10,16,305,41*70
1825$GPGSV,3,2,12,11,03,126,00,13,06,027,33,15,24,226,00,17,65,163,51*7D
1826$GPGSV,3,3,12,25,16,062,33,26,33,225,00,27,29,075,46,28,24,159,52*77
1827$GPRMC,182407,A,0640.9548,S,03712.4805,W,001.7,357.1,030208,,,A*74
1828$GPVTG,357.1,T,,M,001.7,N,003.1,K,A*09
1829$GPGGA,182422,0640.9494,S,03712.4813,W,1,06,01.8,00201.9,M,-012.0,M,,*62
1830$GPGSA,A,3,04,10,13,17,25,27,,,,,,,03.2,01.8,02.6*0D
1831$GPGSV,3,1,12,02,17,347,00,04,35,023,33,08,43,110,49,10,16,305,33*7D
1832$GPGSV,3,2,12,11,03,127,00,13,06,027,36,15,24,227,00,17,65,164,51*7F
1833$GPGSV,3,3,12,25,16,062,35,26,33,225,00,27,29,075,44,28,24,159,49*79
1834$GPRMC,182422,A,0640.9494,S,03712.4813,W,001.9,014.3,030208,,,A*7C
1835$GPVTG,014.3,T,,M,001.9,N,003.6,K,A*06
1836$GPGGA,182442,0640.9425,S,03712.4848,W,1,06,01.7,00199.9,M,-012.0,M,,*6D
1837$GPGSA,A,3,04,10,13,17,25,27,,,,,,,03.2,01.7,02.6*02
1838$GPGSV,3,1,12,02,17,347,00,04,36,023,35,08,43,110,50,10,16,305,32*71
1839$GPGSV,3,2,12,11,03,127,00,13,06,027,35,15,25,227,00,17,65,164,51*7D
1840$GPGSV,3,3,12,25,16,061,35,26,33,226,00,27,29,074,46,28,24,159,50*72
1841$GPRMC,182442,A,0640.9425,S,03712.4848,W,000.8,342.7,030208,,,A*7A
1842$GPVTG,342.7,T,,M,000.8,N,001.5,K,A*03
1843$GPGGA,182457,0640.9388,S,03712.4849,W,1,05,02.7,00175.1,M,-012.0,M,,*62
1844$GPGSA,A,3,04,13,17,25,27,,,,,,,,04.5,02.7,03.5*02
1845$GPGSV,3,1,12,02,17,347,00,04,36,023,45,08,43,110,51,10,16,305,29*7D
1846$GPGSV,3,2,12,11,03,127,00,13,06,027,35,15,25,227,00,17,64,164,51*7C
1847$GPGSV,3,3,12,25,15,061,42,26,33,226,00,27,29,074,47,28,24,159,52*72
1848$GPRMC,182457,A,0640.9388,S,03712.4849,W,002.2,233.1,030208,,,A*76
1849$GPVTG,233.1,T,,M,002.2,N,004.0,K,A*0A
1850$GPGGA,182512,0640.9333,S,03712.4885,W,1,06,01.7,00185.4,M,-012.0,M,,*68
1851$GPGSA,A,3,04,10,13,17,25,27,,,,,,,03.2,01.7,02.6*02
1852$GPGSV,3,1,12,02,17,347,00,04,36,023,41,08,43,110,44,10,16,306,38*7E
1853$GPGSV,3,2,12,11,03,127,00,13,06,027,32,15,25,227,00,17,64,164,43*78
1854$GPGSV,3,3,12,25,15,061,35,26,33,226,00,27,29,074,41,28,24,159,52*74
1855$GPRMC,182512,A,0640.9333,S,03712.4885,W,000.8,275.0,030208,,,A*7D
1856$GPVTG,275.0,T,,M,000.8,N,001.6,K,A*02
1857$GPGGA,182527,0640.9343,S,03712.4953,W,1,05,02.7,00188.6,M,-012.0,M,,*6C
1858$GPGSA,A,3,04,13,17,25,27,,,,,,,,04.4,02.7,03.5*03
1859$GPGSV,3,1,12,02,17,347,00,04,36,023,45,08,43,110,52,10,16,306,28*7C
1860$GPGSV,3,2,12,11,03,127,00,13,06,027,38,15,25,227,00,17,64,164,49*78
1861$GPGSV,3,3,12,25,15,061,40,26,33,226,00,27,29,074,46,28,24,159,49*7B
1862$GPRMC,182527,A,0640.9343,S,03712.4953,W,000.4,252.6,030208,,,A*79
1863$GPVTG,252.6,T,,M,000.4,N,000.8,K,A*02
1864$GPGGA,182542,0640.9371,S,03712.4913,W,1,06,01.7,00190.2,M,-012.0,M,,*67
1865$GPGSA,A,3,04,10,13,17,25,27,,,,,,,03.2,01.7,02.6*02
1866$GPGSV,3,1,12,02,18,347,00,04,36,023,43,08,43,109,48,10,16,306,34*7B
1867$GPGSV,3,2,12,11,03,127,00,13,06,027,37,15,25,227,00,17,64,164,50*7F
1868$GPGSV,3,3,12,25,15,061,34,26,33,226,00,27,29,074,41,28,24,159,50*77
1869$GPRMC,182542,A,0640.9371,S,03712.4913,W,000.4,181.8,030208,,,A*7C
1870$GPVTG,181.8,T,,M,000.4,N,000.9,K,A*00
1871$GPGGA,182557,0640.9334,S,03712.4895,W,1,05,02.7,00188.9,M,-012.0,M,,*6F
1872$GPGSA,A,3,04,13,17,25,27,,,,,,,,04.4,02.7,03.4*02
1873$GPGSV,3,1,12,02,18,347,00,04,36,023,45,08,43,109,50,10,16,306,28*79
1874$GPGSV,3,2,12,11,03,127,00,13,06,027,52,15,25,227,00,17,64,164,52*7E
1875$GPGSV,3,3,12,25,15,061,50,26,33,226,00,27,29,074,49,28,24,159,51*7C
1876$GPRMC,182557,A,0640.9334,S,03712.4895,W,000.2,181.8,030208,,,A*70
1877$GPVTG,181.8,T,,M,000.2,N,000.5,K,A*0A
1878$GPGGA,182612,0640.9328,S,03712.4880,W,1,06,01.7,00186.9,M,-012.0,M,,*6A
1879$GPGSA,A,3,04,10,13,17,25,27,,,,,,,03.1,01.7,02.6*01
1880$GPGSV,3,1,12,02,18,347,00,04,36,023,51,08,43,109,48,10,16,306,32*7E
1881$GPGSV,3,2,12,11,03,127,00,13,06,027,51,15,25,227,00,17,64,164,49*77
1882$GPGSV,3,3,12,25,15,061,47,26,34,226,00,27,29,074,51,28,24,158,42*77
1883$GPRMC,182612,A,0640.9328,S,03712.4880,W,000.4,181.8,030208,,,A*7D
1884$GPVTG,181.8,T,,M,000.4,N,000.8,K,A*01
1885$GPGGA,182627,0640.9311,S,03712.4873,W,1,06,01.7,00187.9,M,-012.0,M,,*6B
1886$GPGSA,A,3,04,10,13,17,25,27,,,,,,,03.1,01.7,02.6*01
1887$GPGSV,3,1,12,02,18,347,00,04,36,024,46,08,43,109,48,10,16,306,52*79
1888$GPGSV,3,2,12,11,03,127,00,13,05,027,51,15,25,227,00,17,64,164,41*7C
1889$GPGSV,3,3,12,25,15,061,34,26,34,226,00,27,29,074,48,28,24,158,32*7C
1890$GPRMC,182627,A,0640.9311,S,03712.4873,W,000.3,174.3,030208,,,A*7B
1891$GPVTG,174.3,T,,M,000.3,N,000.5,K,A*0A
1892$GPGGA,182642,0640.9293,S,03712.4859,W,1,05,01.9,00189.1,M,-012.0,M,,*60
1893$GPGSA,A,3,04,10,13,17,27,,,,,,,,03.5,01.9,02.9*03
1894$GPGSV,3,1,12,02,18,347,00,04,36,024,47,08,43,109,46,10,16,306,51*75
1895$GPGSV,3,2,12,11,03,127,00,13,05,027,51,15,25,227,00,17,64,164,39*73
1896$GPGSV,3,3,12,25,15,061,31,26,34,226,00,27,29,073,50,28,24,158,26*72
1897$GPRMC,182642,A,0640.9293,S,03712.4859,W,000.4,174.3,030208,,,A*7C
1898$GPVTG,174.3,T,,M,000.4,N,000.8,K,A*00
1899$GPGGA,182657,0640.9305,S,03712.4848,W,1,06,01.7,00190.0,M,-012.0,M,,*6E
1900$GPGSA,A,3,04,10,13,17,25,27,,,,,,,03.1,01.7,02.6*01
1901$GPGSV,3,1,12,02,18,347,00,04,36,024,39,08,43,109,47,10,16,306,50*7C
1902$GPGSV,3,2,12,11,03,127,00,13,05,027,46,15,25,227,00,17,63,164,44*78
1903$GPGSV,3,3,12,25,15,061,37,26,34,226,00,27,29,073,49,28,23,158,37*7B
1904$GPRMC,182657,A,0640.9305,S,03712.4848,W,000.8,171.6,030208,,,A*7A
1905$GPVTG,171.6,T,,M,000.8,N,001.6,K,A*03
1906$GPGGA,182712,0640.9348,S,03712.4839,W,1,06,01.7,00190.7,M,-012.0,M,,*66
1907$GPGSA,A,3,04,10,13,17,25,27,,,,,,,03.1,01.7,02.6*01
1908$GPGSV,3,1,12,02,18,348,00,04,36,024,48,08,43,108,36,10,16,307,50*73
1909$GPGSV,3,2,12,11,03,127,00,13,05,027,46,15,25,227,00,17,63,164,33*78
1910$GPGSV,3,3,12,25,15,060,47,26,34,227,00,27,29,073,46,28,23,158,31*75
1911$GPRMC,182712,A,0640.9348,S,03712.4839,W,000.4,169.9,030208,,,A*7F
1912$GPVTG,169.9,T,,M,000.4,N,000.8,K,A*06
1913$GPGGA,182727,0640.9310,S,03712.4827,W,1,06,01.7,00191.2,M,-012.0,M,,*66
1914$GPGSA,A,3,04,10,13,17,25,27,,,,,,,03.1,01.7,02.6*01
1915$GPGSV,3,1,12,02,18,348,00,04,36,024,47,08,43,108,51,10,16,307,36*7D
1916$GPGSV,3,2,12,11,03,127,00,13,05,027,52,15,25,228,00,17,63,164,44*72
1917$GPGSV,3,3,12,25,15,060,45,26,34,227,00,27,29,073,51,28,23,158,48*7F
1918$GPRMC,182727,A,0640.9310,S,03712.4827,W,001.0,157.8,030208,,,A*72
1919$GPVTG,157.8,T,,M,001.0,N,001.8,K,A*0E
1920$GPGGA,182742,0640.9295,S,03712.4835,W,1,05,01.7,00191.1,M,-012.0,M,,*6A
1921$GPGSA,A,3,04,10,17,25,27,,,,,,,,03.3,01.7,02.8*0F
1922$GPGSV,3,1,12,02,18,348,00,04,36,024,40,08,43,108,48,10,16,307,47*74
1923$GPGSV,3,2,12,11,03,128,00,13,05,027,00,15,25,228,00,17,63,164,48*76
1924$GPGSV,3,3,12,25,15,060,33,26,34,227,00,27,29,073,42,28,23,158,51*74
1925$GPRMC,182742,A,0640.9295,S,03712.4835,W,000.4,122.5,030208,,,A*74
1926$GPVTG,122.5,T,,M,000.4,N,000.7,K,A*0A
1927$GPGGA,182757,0640.9253,S,03712.4830,W,1,05,01.7,00191.8,M,-012.0,M,,*68
1928$GPGSA,A,3,04,10,17,25,27,,,,,,,,03.3,01.7,02.8*0F
1929$GPGSV,3,1,12,02,18,348,00,04,37,024,41,08,43,108,46,10,16,307,46*7B
1930$GPGSV,3,2,12,11,03,128,00,13,05,027,00,15,26,228,00,17,63,164,49*74
1931$GPGSV,3,3,12,25,15,060,32,26,34,227,00,27,29,073,41,28,23,158,51*76
1932$GPRMC,182757,A,0640.9253,S,03712.4830,W,000.3,041.9,030208,,,A*70
1933$GPVTG,041.9,T,,M,000.3,N,000.6,K,A*04
1934$GPGGA,182812,0640.9234,S,03712.4833,W,1,04,01.9,00193.0,M,-012.0,M,,*61
1935$GPGSA,A,3,04,10,17,27,,,,,,,,,04.2,01.9,03.7*0E
1936$GPGSV,3,1,12,02,18,348,00,04,37,024,42,08,43,108,47,10,16,307,46*79
1937$GPGSV,3,2,12,11,03,128,00,13,05,027,00,15,26,228,00,17,63,164,49*74
1938$GPGSV,3,3,12,25,15,060,00,26,34,227,00,27,29,073,40,28,23,158,48*7E
1939$GPRMC,182812,A,0640.9234,S,03712.4833,W,000.3,012.6,030208,,,A*75
1940$GPVTG,012.6,T,,M,000.3,N,000.6,K,A*0D
1941$GPGGA,182827,0640.9264,S,03712.4831,W,1,04,01.9,00194.0,M,-012.0,M,,*67
1942$GPGSA,A,3,04,10,17,27,,,,,,,,,04.2,01.9,03.7*0E
1943$GPGSV,3,1,12,02,18,348,00,04,37,024,42,08,43,108,47,10,16,307,45*7A
1944$GPGSV,3,2,12,11,03,128,00,13,05,027,00,15,26,228,00,17,63,164,48*75
1945$GPGSV,3,3,12,25,15,060,00,26,34,227,00,27,28,073,41,28,23,157,48*71
1946$GPRMC,182827,A,0640.9264,S,03712.4831,W,000.2,099.2,030208,,,A*72
1947$GPVTG,099.2,T,,M,000.2,N,000.4,K,A*09
1948$GPGGA,182842,0640.9242,S,03712.4841,W,1,04,01.9,00194.9,M,-012.0,M,,*6E
1949$GPGSA,A,3,04,10,17,27,,,,,,,,,04.2,01.9,03.7*0E
1950$GPGSV,3,1,12,02,18,348,00,04,37,025,39,08,43,107,43,10,16,307,40*79
1951$GPGSV,3,2,12,11,02,128,00,13,05,027,00,15,26,228,00,17,63,164,49*75
1952$GPGSV,3,3,12,25,15,060,00,26,34,227,00,27,28,072,36,28,23,157,39*76
1953$GPRMC,182842,A,0640.9242,S,03712.4841,W,000.2,099.2,030208,,,A*72
1954$GPVTG,099.2,T,,M,000.2,N,000.5,K,A*08
1955$GPGGA,182857,0640.9241,S,03712.4836,W,1,04,01.8,00196.0,M,-012.0,M,,*63
1956$GPGSA,A,3,04,10,17,25,,,,,,,,,03.3,01.8,02.8*05
1957$GPGSV,3,1,12,02,19,348,00,04,37,025,44,08,43,107,39,10,16,307,51*7F
1958$GPGSV,3,2,12,11,02,128,00,13,04,027,00,15,26,228,00,17,62,164,45*79
1959$GPGSV,3,3,12,25,15,060,36,26,34,227,00,27,28,072,31,28,23,157,38*75
1960$GPRMC,182857,A,0640.9241,S,03712.4836,W,000.5,146.2,030208,,,A*71
1961$GPVTG,146.2,T,,M,000.5,N,000.9,K,A*00
1962$GPGGA,182917,0640.9199,S,03712.4825,W,1,05,01.7,00196.5,M,-012.0,M,,*69
1963$GPGSA,A,3,04,10,17,25,27,,,,,,,,03.3,01.7,02.8*0F
1964$GPGSV,3,1,12,02,19,348,00,04,37,025,53,08,43,107,41,10,16,307,52*75
1965$GPGSV,3,2,12,11,02,128,00,13,04,027,00,15,26,228,00,17,62,164,43*7F
1966$GPGSV,3,3,12,25,14,060,52,26,35,227,00,27,28,072,39,28,23,157,27*71
1967$GPRMC,182917,A,0640.9199,S,03712.4825,W,000.3,042.6,030208,,,A*77
1968$GPVTG,042.6,T,,M,000.3,N,000.7,K,A*09
1969$GPGGA,182932,0640.9240,S,03712.4825,W,1,05,01.7,00196.5,M,-012.0,M,,*69
1970$GPGSA,A,3,04,10,17,25,27,,,,,,,,03.3,01.7,02.8*0F
1971$GPGSV,3,1,12,02,19,348,00,04,37,025,52,08,43,107,41,10,16,308,52*7B
1972$GPGSV,3,2,12,11,02,128,00,13,04,027,00,15,26,228,00,17,62,164,42*7E
1973$GPGSV,3,3,12,25,14,060,52,26,35,227,00,27,28,072,40,28,23,157,29*71
1974$GPRMC,182932,A,0640.9240,S,03712.4825,W,000.2,042.6,030208,,,A*76
1975$GPVTG,042.6,T,,M,000.2,N,000.4,K,A*0B
1976$GPGGA,182947,0640.9274,S,03712.4817,W,1,05,01.7,00196.1,M,-012.0,M,,*69
1977$GPGSA,A,3,04,10,17,25,27,,,,,,,,03.3,01.7,02.8*0F
1978$GPGSV,3,1,12,02,19,348,00,04,37,025,45,08,43,107,34,10,16,308,52*7F
1979$GPGSV,3,2,12,11,02,128,00,13,04,027,00,15,26,228,00,17,62,164,45*79
1980$GPGSV,3,3,12,25,14,059,39,26,35,228,00,27,28,072,39,28,23,157,36*79
1981$GPRMC,182947,A,0640.9274,S,03712.4817,W,000.1,089.2,030208,,,A*72
1982$GPVTG,089.2,T,,M,000.1,N,000.1,K,A*0E
1983$GPGGA,183002,0640.9259,S,03712.4802,W,1,05,01.7,00196.4,M,-012.0,M,,*6E
1984$GPGSA,A,3,04,10,17,25,27,,,,,,,,03.3,01.7,02.8*0F
1985$GPGSV,3,1,12,02,19,348,00,04,37,025,50,08,43,107,36,10,16,308,52*79
1986$GPGSV,3,2,12,11,02,128,00,13,04,027,00,15,26,228,00,17,62,164,39*72
1987$GPGSV,3,3,12,25,14,059,46,26,35,228,00,27,28,072,41,28,23,157,33*7B
1988$GPRMC,183002,A,0640.9259,S,03712.4802,W,000.6,021.7,030208,,,A*70
1989$GPVTG,021.7,T,,M,000.6,N,001.1,K,A*0F
1990$GPGGA,183017,0640.9321,S,03712.4798,W,1,05,01.7,00196.0,M,-012.0,M,,*6C
1991$GPGSA,A,3,04,10,17,25,27,,,,,,,,03.3,01.7,02.8*0F
1992$GPGSV,3,1,12,02,19,348,00,04,37,025,51,08,43,106,37,10,15,308,52*7B
1993$GPGSV,3,2,12,11,02,128,00,13,04,027,00,15,26,228,00,17,62,164,42*7E
1994$GPGSV,3,3,12,25,14,059,35,26,35,228,00,27,28,072,43,28,23,157,35*7B
1995$GPRMC,183017,A,0640.9321,S,03712.4798,W,000.4,133.4,030208,,,A*75
1996$GPVTG,133.4,T,,M,000.4,N,000.7,K,A*0B
1997$GPGGA,183032,0640.9323,S,03712.4817,W,1,05,01.7,00196.1,M,-012.0,M,,*60
1998$GPGSA,A,3,04,10,17,25,27,,,,,,,,03.3,01.7,02.8*0F
1999$GPGSV,3,1,12,02,19,348,00,04,37,025,48,08,43,106,39,10,15,308,46*78
2000$GPGSV,3,2,12,11,02,128,00,13,04,027,00,15,26,229,00,17,62,164,43*7E
2001$GPGSV,3,3,12,25,14,059,41,26,35,228,00,27,28,072,42,28,23,157,42*79
2002$GPRMC,183032,A,0640.9323,S,03712.4817,W,000.0,178.4,030208,,,A*73
2003$GPVTG,178.4,T,,M,000.0,N,000.1,K,A*06
2004$GPGGA,183047,0640.9327,S,03712.4834,W,1,04,01.9,00196.4,M,-012.0,M,,*6D
2005$GPGSA,A,3,04,10,17,27,,,,,,,,,04.2,01.9,03.7*0E
2006$GPGSV,3,1,12,02,19,348,00,04,37,025,41,08,43,106,38,10,15,308,52*75
2007$GPGSV,3,2,12,11,02,128,00,13,04,027,00,15,26,229,00,17,62,164,40*7D
2008$GPGSV,3,3,12,25,14,059,28,26,35,228,00,27,28,071,49,28,23,156,32*78
2009$GPRMC,183047,A,0640.9327,S,03712.4834,W,000.4,178.4,030208,,,A*70
2010$GPVTG,178.4,T,,M,000.4,N,000.8,K,A*0B
2011$GPGGA,183102,0640.9324,S,03712.4819,W,1,05,01.7,00197.1,M,-012.0,M,,*6A
2012$GPGSA,A,3,04,10,17,25,27,,,,,,,,03.3,01.7,02.8*0F
2013$GPGSV,3,1,12,02,19,349,00,04,37,026,40,08,43,106,34,10,15,308,45*7C
2014$GPGSV,3,2,12,11,02,128,00,13,04,027,00,15,27,229,00,17,61,164,44*7B
2015$GPGSV,3,3,12,25,14,059,31,26,35,228,00,27,28,071,31,28,23,156,41*7B
2016$GPRMC,183102,A,0640.9324,S,03712.4819,W,000.3,099.8,030208,,,A*79
2017$GPVTG,099.8,T,,M,000.3,N,000.6,K,A*00
2018$GPGGA,183122,0640.9446,S,03712.4863,W,1,05,01.7,00193.6,M,-012.0,M,,*65
2019$GPGSA,A,3,04,10,17,25,27,,,,,,,,03.3,01.7,02.8*0F
2020$GPGSV,3,1,12,02,19,349,00,04,38,026,47,08,43,106,41,10,15,308,47*74
2021$GPGSV,3,2,12,11,02,129,00,13,04,027,00,15,27,229,00,17,61,164,35*7C
2022$GPGSV,3,3,12,25,14,059,46,26,35,228,00,27,28,071,45,28,23,156,34*7A
2023$GPRMC,183122,A,0640.9446,S,03712.4863,W,002.0,184.3,030208,,,A*72
2024$GPVTG,184.3,T,,M,002.0,N,003.8,K,A*0A
2025$GPGGA,183137,0640.9427,S,03712.4856,W,1,05,01.7,00194.5,M,-012.0,M,,*64
2026$GPGSA,A,3,04,10,17,25,27,,,,,,,,03.3,01.7,02.8*0F
2027$GPGSV,3,1,12,02,19,349,00,04,38,026,47,08,43,105,39,10,15,309,49*77
2028$GPGSV,3,2,12,11,02,129,00,13,04,027,00,15,27,229,00,17,61,164,40*7E
2029$GPGSV,3,3,12,25,14,059,42,26,35,228,00,27,28,071,46,28,23,156,32*7B
2030$GPRMC,183137,A,0640.9427,S,03712.4856,W,001.4,167.3,030208,,,A*7D
2031$GPVTG,167.3,T,,M,001.4,N,002.6,K,A*0F
2032$GPGGA,183152,0640.9552,S,03712.4850,W,1,04,01.8,00193.9,M,-012.0,M,,*67
2033$GPGSA,A,3,04,10,17,25,,,,,,,,,03.3,01.8,02.8*05
2034$GPGSV,3,1,12,02,19,349,00,04,38,026,41,08,43,105,39,10,15,309,46*7E
2035$GPGSV,3,2,12,11,02,129,00,13,03,027,00,15,27,229,00,17,61,164,42*7B
2036$GPGSV,3,3,12,25,14,059,41,26,35,228,00,27,28,071,35,28,23,156,32*7C
2037$GPRMC,183152,A,0640.9552,S,03712.4850,W,003.6,177.8,030208,,,A*71
2038$GPVTG,177.8,T,,M,003.6,N,006.8,K,A*0F
2039$GPGGA,183207,0640.9624,S,03712.4828,W,1,05,01.7,00194.4,M,-012.0,M,,*6D
2040$GPGSA,A,3,04,10,17,25,27,,,,,,,,03.3,01.7,02.8*0F
2041$GPGSV,3,1,12,02,20,349,00,04,38,026,41,08,43,105,47,10,15,309,33*7F
2042$GPGSV,3,2,12,11,02,129,00,13,03,027,00,15,27,229,00,17,61,164,48*71
2043$GPGSV,3,3,12,25,14,059,45,26,35,229,00,27,28,071,50,28,23,156,42*7D
2044$GPRMC,183207,A,0640.9624,S,03712.4828,W,002.4,182.0,030208,,,A*7E
2045$GPVTG,182.0,T,,M,002.4,N,004.6,K,A*02
2046$GPGGA,183222,0640.9632,S,03712.4811,W,1,05,01.7,00183.4,M,-012.0,M,,*61
2047$GPGSA,A,3,04,10,17,25,27,,,,,,,,03.3,01.7,02.8*0F
2048$GPGSV,3,1,12,02,20,349,00,04,38,026,49,08,43,105,43,10,15,309,46*71
2049$GPGSV,3,2,12,11,02,129,00,13,03,027,00,15,27,229,00,17,61,164,39*77
2050$GPGSV,3,3,12,25,14,058,44,26,36,229,00,27,28,071,46,28,23,156,29*74
2051$GPRMC,183222,A,0640.9632,S,03712.4811,W,001.6,167.6,030208,,,A*78
2052$GPVTG,167.6,T,,M,001.6,N,003.1,K,A*0E
2053$GPGGA,183237,0640.9634,S,03712.4806,W,1,05,01.7,00186.3,M,-012.0,M,,*67
2054$GPGSA,A,3,04,10,17,25,27,,,,,,,,03.3,01.7,02.8*0F
2055$GPGSV,3,1,12,02,20,349,00,04,38,026,48,08,43,105,49,10,15,309,35*7E
2056$GPGSV,3,2,12,11,02,129,00,13,03,027,00,15,27,229,00,17,61,164,47*7E
2057$GPGSV,3,3,12,25,14,058,49,26,36,229,00,27,28,071,48,28,23,156,47*7F
2058$GPRMC,183237,A,0640.9634,S,03712.4806,W,003.0,173.8,030208,,,A*73
2059$GPVTG,173.8,T,,M,003.0,N,005.7,K,A*01
2060$GPGGA,183252,0640.9644,S,03712.4786,W,1,05,01.7,00188.7,M,-012.0,M,,*6E
2061$GPGSA,A,3,04,10,17,25,27,,,,,,,,03.2,01.7,02.8*0E
2062$GPGSV,3,1,12,02,20,349,00,04,38,026,51,08,43,105,36,10,15,309,48*74
2063$GPGSV,3,2,12,11,02,129,00,13,03,027,00,15,27,229,00,17,60,164,47*7F
2064$GPGSV,3,3,12,25,14,058,40,26,36,229,00,27,28,070,46,28,23,156,34*7D
2065$GPRMC,183252,A,0640.9644,S,03712.4786,W,000.9,173.8,030208,,,A*7A
2066$GPVTG,173.8,T,,M,000.9,N,001.7,K,A*0F
2067$GPGGA,183307,0640.9647,S,03712.4779,W,1,05,01.7,00188.5,M,-012.0,M,,*6E
2068$GPGSA,A,3,04,10,17,25,27,,,,,,,,03.2,01.7,02.8*0E
2069$GPGSV,3,1,12,02,20,349,00,04,38,026,49,08,43,104,48,10,15,309,36*7C
2070$GPGSV,3,2,12,11,01,129,00,13,03,027,00,15,27,229,00,17,60,164,51*7B
2071$GPGSV,3,3,12,25,14,058,48,26,36,229,00,27,28,070,46,28,23,156,40*76
2072$GPRMC,183307,A,0640.9647,S,03712.4779,W,000.6,173.8,030208,,,A*77
2073$GPVTG,173.8,T,,M,000.6,N,001.2,K,A*05
2074$GPGGA,183322,0640.9632,S,03712.4781,W,1,05,01.7,00188.2,M,-012.0,M,,*6B
2075$GPGSA,A,3,04,10,17,25,27,,,,,,,,03.2,01.7,02.8*0E
2076$GPGSV,3,1,12,02,20,349,00,04,38,027,50,08,43,104,50,10,15,309,34*7E
2077$GPGSV,3,2,12,11,01,129,00,13,03,027,00,15,27,230,00,17,60,164,52*70
2078$GPGSV,3,3,12,25,14,058,42,26,36,229,00,27,28,070,47,28,22,155,44*7B
2079$GPRMC,183322,A,0640.9632,S,03712.4781,W,001.4,124.0,030208,,,A*7C
2080$GPVTG,124.0,T,,M,001.4,N,002.7,K,A*0A
2081$GPGGA,183337,0640.9707,S,03712.4797,W,1,05,01.7,00189.6,M,-012.0,M,,*6A
2082$GPGSA,A,3,04,10,17,25,27,,,,,,,,03.2,01.7,02.7*01
2083$GPGSV,3,1,12,02,20,349,00,04,38,027,38,08,43,104,42,10,15,309,39*7E
2084$GPGSV,3,2,12,11,01,129,00,13,03,027,00,15,27,230,00,17,60,164,36*72
2085$GPGSV,3,3,12,25,13,058,26,26,36,229,00,27,28,070,26,28,22,155,00*79
2086$GPRMC,183337,A,0640.9707,S,03712.4797,W,000.1,174.4,030208,,,A*7D
2087$GPVTG,174.4,T,,M,000.1,N,000.3,K,A*09
2088$GPGGA,183442,0641.0196,S,03712.4574,W,1,05,01.7,00180.6,M,-012.0,M,,*6F
2089$GPGSA,A,3,04,10,17,25,27,,,,,,,,03.2,01.7,02.7*01
2090$GPGSV,3,1,12,02,20,350,00,04,39,027,40,08,43,103,48,10,15,310,34*70
2091$GPGSV,3,2,12,11,01,129,00,13,02,027,00,15,28,230,48,17,60,164,49*78
2092$GPGSV,3,3,12,25,13,058,41,26,36,230,00,27,27,070,47,28,22,155,47*7B
2093$GPRMC,183442,A,0641.0196,S,03712.4574,W,000.4,308.0,030208,,,A*79
2094$GPVTG,308.0,T,,M,000.4,N,000.7,K,A*05
2095$GPGGA,183457,0641.0250,S,03712.4547,W,1,05,01.7,00175.9,M,-012.0,M,,*67
2096$GPGSA,A,3,04,10,17,25,27,,,,,,,,03.2,01.7,02.7*01
2097$GPGSV,3,1,12,02,21,350,00,04,39,027,48,08,43,103,49,10,15,310,35*79
2098$GPGSV,3,2,12,11,01,130,00,13,02,027,00,15,28,230,44,17,59,164,50*7E
2099$GPGSV,3,3,12,25,13,058,36,26,36,230,00,27,27,069,45,28,22,155,48*7E
2100$GPRMC,183457,A,0641.0250,S,03712.4547,W,000.0,308.0,030208,,,A*70
2101$GPVTG,308.0,T,,M,000.0,N,000.0,K,A*06
2102$GPGGA,183512,0641.0226,S,03712.4567,W,1,05,01.7,00190.0,M,-012.0,M,,*66
2103$GPGSA,A,3,04,10,17,25,27,,,,,,,,03.2,01.7,02.7*01
2104$GPGSV,3,1,12,02,21,350,00,04,39,027,45,08,43,103,49,10,15,310,42*74
2105$GPGSV,3,2,12,11,01,130,00,13,02,027,00,15,28,230,43,17,59,164,50*79
2106$GPGSV,3,3,12,25,13,057,47,26,36,230,00,27,27,069,47,28,22,155,48*75
2107$GPRMC,183512,A,0641.0226,S,03712.4567,W,000.0,308.0,030208,,,A*73
2108$GPVTG,308.0,T,,M,000.0,N,000.0,K,A*06
2109$GPGGA,183527,0641.0221,S,03712.4584,W,1,05,01.7,00192.0,M,-012.0,M,,*68
2110$GPGSA,A,3,04,10,17,25,27,,,,,,,,03.2,01.7,02.7*01
2111$GPGSV,3,1,12,02,21,350,00,04,39,028,46,08,43,103,49,10,15,310,43*79
2112$GPGSV,3,2,12,11,01,130,00,13,02,027,00,15,28,230,44,17,59,164,50*7E
2113$GPGSV,3,3,12,25,13,057,47,26,37,230,00,27,27,069,46,28,22,155,50*7C
2114$GPRMC,183527,A,0641.0221,S,03712.4584,W,000.0,308.0,030208,,,A*7F
2115$GPVTG,308.0,T,,M,000.0,N,000.0,K,A*06
2116$GPGGA,183542,0641.0215,S,03712.4589,W,1,05,01.7,00193.8,M,-012.0,M,,*68
2117$GPGSA,A,3,04,10,17,25,27,,,,,,,,03.2,01.7,02.7*01
2118$GPGSV,3,1,12,02,21,350,00,04,39,028,48,08,43,103,47,10,15,310,38*75
2119$GPGSV,3,2,12,11,01,130,00,13,02,027,00,15,28,230,46,17,59,164,50*7C
2120$GPGSV,3,3,12,25,13,057,48,26,37,230,00,27,27,069,48,28,22,154,48*75
2121$GPRMC,183542,A,0641.0215,S,03712.4589,W,000.0,308.0,030208,,,A*76
2122$GPVTG,308.0,T,,M,000.0,N,000.0,K,A*06
2123$GPGGA,183557,0641.0214,S,03712.4595,W,1,05,01.7,00193.7,M,-012.0,M,,*6F
2124$GPGSA,A,3,04,10,17,25,27,,,,,,,,03.2,01.7,02.7*01
2125$GPGSV,3,1,12,02,21,350,00,04,39,028,50,08,43,103,48,10,15,310,46*7A
2126$GPGSV,3,2,12,11,01,130,00,13,02,027,00,15,28,230,40,17,59,164,51*7B
2127$GPGSV,3,3,12,25,13,057,46,26,37,230,00,27,27,069,45,28,22,154,51*7E
2128$GPRMC,183557,A,0641.0214,S,03712.4595,W,000.0,308.0,030208,,,A*7E
2129$GPVTG,308.0,T,,M,000.0,N,000.0,K,A*06
2130$GPGGA,183612,0641.0214,S,03712.4595,W,1,05,01.7,00192.5,M,-012.0,M,,*6E
2131$GPGSA,A,3,04,10,17,25,27,,,,,,,,03.2,01.7,02.7*01
2132$GPGSV,3,1,12,02,21,350,00,04,39,028,49,08,43,102,48,10,15,311,45*71
2133$GPGSV,3,2,12,11,01,130,00,13,02,027,00,15,28,231,41,17,59,164,50*7A
2134$GPGSV,3,3,12,25,13,057,49,26,37,230,00,27,27,069,47,28,22,154,51*73
2135$GPRMC,183612,A,0641.0214,S,03712.4595,W,000.0,308.0,030208,,,A*7C
2136$GPVTG,308.0,T,,M,000.0,N,000.0,K,A*06
2137$GPGGA,183627,0641.0213,S,03712.4601,W,1,05,01.6,00192.3,M,-012.0,M,,*66
2138$GPGSA,A,3,04,10,17,25,27,,,,,,,,03.2,01.6,02.7*00
2139$GPGSV,3,1,12,02,21,350,00,04,39,028,51,08,43,102,48,10,15,311,45*78
2140$GPGSV,3,2,12,11,01,130,00,13,02,027,00,15,28,231,39,17,59,164,50*75
2141$GPGSV,3,3,12,25,13,057,49,26,37,230,00,27,27,069,46,28,22,154,51*72
2142$GPRMC,183627,A,0641.0213,S,03712.4601,W,000.0,308.0,030208,,,A*73
2143$GPVTG,308.0,T,,M,000.0,N,000.0,K,A*06
2144$GPGGA,183642,0641.0215,S,03712.4603,W,1,05,01.6,00190.9,M,-012.0,M,,*69
2145$GPGSA,A,3,04,10,17,25,27,,,,,,,,03.2,01.6,02.7*00
2146$GPGSV,3,1,12,02,21,350,00,04,39,028,49,08,43,102,50,10,15,311,42*7F
2147$GPGSV,3,2,12,11,01,130,00,13,02,027,00,15,28,231,43,17,59,164,52*7A
2148$GPGSV,3,3,12,25,13,057,46,26,37,231,00,27,27,069,51,28,22,154,50*7B
2149$GPRMC,183642,A,0641.0215,S,03712.4603,W,000.0,308.0,030208,,,A*74
2150$GPVTG,308.0,T,,M,000.0,N,000.0,K,A*06
2151$GPGGA,183657,0641.0212,S,03712.4604,W,1,04,04.7,00192.0,M,-012.0,M,,*63
2152$GPGSA,A,3,04,17,25,27,,,,,,,,,07.8,04.7,06.2*0A
2153$GPGSV,3,1,12,02,21,350,00,04,39,028,46,08,43,102,49,10,15,311,32*7F
2154$GPGSV,3,2,12,11,01,130,00,13,02,027,00,15,28,231,42,17,58,164,52*7A
2155$GPGSV,3,3,12,25,13,057,41,26,37,231,00,27,27,068,43,28,22,154,46*79
2156$GPRMC,183657,A,0641.0212,S,03712.4604,W,000.0,308.0,030208,,,A*70
2157$GPVTG,308.0,T,,M,000.0,N,000.0,K,A*06
2158$GPGGA,183712,0641.0209,S,03712.4606,W,1,05,01.6,00192.2,M,-012.0,M,,*6C
2159$GPGSA,A,3,04,10,17,25,27,,,,,,,,03.2,01.6,02.7*00
2160$GPGSV,3,1,12,02,21,350,00,04,39,028,33,08,43,102,49,10,15,311,38*77
2161$GPGSV,3,2,12,11,00,130,00,13,01,027,00,15,28,231,42,17,58,164,52*78
2162$GPGSV,3,3,12,25,13,057,42,26,37,231,00,27,27,068,45,28,22,154,43*79
2163$GPRMC,183712,A,0641.0209,S,03712.4606,W,000.0,308.0,030208,,,A*78
2164$GPVTG,308.0,T,,M,000.0,N,000.0,K,A*06
2165$GPGGA,183727,0641.0498,S,03712.4624,W,1,05,01.6,00193.5,M,-012.0,M,,*62
2166$GPGSA,A,3,04,10,17,25,27,,,,,,,,03.2,01.6,02.7*00
2167$GPGSV,3,1,12,02,21,350,00,04,39,028,47,08,43,102,53,10,15,311,36*71
2168$GPGSV,3,2,12,11,00,130,00,13,01,027,00,15,28,231,42,17,58,164,52*78
2169$GPGSV,3,3,12,25,13,057,35,26,37,231,00,27,27,068,43,28,22,154,39*72
2170$GPRMC,183727,A,0641.0498,S,03712.4624,W,011.4,174.7,030208,,,A*7A
2171$GPVTG,174.7,T,,M,011.4,N,021.2,K,A*0D
2172$GPGGA,183742,0641.1065,S,03712.4531,W,1,05,01.6,00191.3,M,-012.0,M,,*65
2173$GPGSA,A,3,04,10,17,25,27,,,,,,,,03.2,01.6,02.7*00
2174$GPGSV,3,1,12,02,21,350,00,04,39,029,51,08,43,101,53,10,15,311,46*73
2175$GPGSV,3,2,12,11,00,130,00,13,01,027,00,15,29,231,36,17,58,164,52*7A
2176$GPGSV,3,3,12,25,13,057,36,26,37,231,00,27,27,068,46,28,22,154,39*74
2177$GPRMC,183742,A,0641.1065,S,03712.4531,W,013.1,170.2,030208,,,A*7F
2178$GPVTG,170.2,T,,M,013.1,N,024.3,K,A*0F
2179$GPGGA,183757,0641.1562,S,03712.4485,W,1,04,04.7,00189.9,M,-012.0,M,,*6B
2180$GPGSA,A,3,04,17,25,27,,,,,,,,,07.7,04.7,06.1*06
2181$GPGSV,3,1,12,02,21,350,00,04,40,029,48,08,43,101,49,10,15,311,30*7F
2182$GPGSV,3,2,12,11,00,130,00,13,01,027,00,15,29,231,42,17,58,164,55*7E
2183$GPGSV,3,3,12,25,12,056,38,26,37,231,00,27,27,068,45,28,22,153,45*75
2184$GPRMC,183757,A,0641.1562,S,03712.4485,W,010.3,185.5,030208,,,A*7B
2185$GPVTG,185.5,T,,M,010.3,N,019.2,K,A*0C
2186$GPGGA,183812,0641.2192,S,03712.4586,W,1,04,01.8,00190.6,M,-012.0,M,,*62
2187$GPGSA,A,3,04,10,17,27,,,,,,,,,04.2,01.8,03.8*00
2188$GPGSV,3,1,12,02,22,350,00,04,40,029,49,08,43,101,41,10,15,311,36*73
2189$GPGSV,3,2,12,11,00,130,00,13,01,028,00,15,29,231,36,17,58,164,55*72
2190$GPGSV,3,3,12,25,12,056,33,26,37,231,00,27,27,068,43,28,22,153,35*7F
2191$GPRMC,183812,A,0641.2192,S,03712.4586,W,013.9,194.1,030208,,,A*72
2192$GPVTG,194.1,T,,M,013.9,N,025.8,K,A*04
2193$GPGGA,183827,0641.2485,S,03712.4468,W,1,04,01.8,00207.0,M,-012.0,M,,*6D
2194$GPGSA,A,3,04,10,17,27,,,,,,,,,04.2,01.8,03.8*00
2195$GPGSV,3,1,12,02,22,350,00,04,40,029,45,08,43,101,41,10,15,312,38*72
2196$GPGSV,3,2,12,11,00,131,00,13,01,028,00,15,29,231,47,17,58,164,52*72
2197$GPGSV,3,3,12,25,12,056,31,26,37,231,00,27,27,068,45,28,22,153,46*7F
2198$GPRMC,183827,A,0641.2485,S,03712.4468,W,009.7,139.3,030208,,,A*76
2199$GPVTG,139.3,T,,M,009.7,N,018.0,K,A*02
2200$GPGGA,183842,0641.2874,S,03712.4187,W,1,05,01.6,00197.4,M,-012.0,M,,*69
2201$GPGSA,A,3,04,10,17,25,27,,,,,,,,03.2,01.6,02.7*00
2202$GPGSV,3,1,12,02,22,351,00,04,40,029,46,08,43,101,51,10,15,312,46*78
2203$GPGSV,3,2,12,11,00,131,00,13,01,028,00,15,29,232,43,17,58,164,52*75
2204$GPGSV,3,3,12,25,12,056,34,26,38,231,00,27,27,068,46,28,22,153,45*75
2205$GPRMC,183842,A,0641.2874,S,03712.4187,W,010.5,161.9,030208,,,A*7E
2206$GPVTG,161.9,T,,M,010.5,N,019.4,K,A*0A
2207$GPGGA,183857,0641.3308,S,03712.3888,W,1,05,01.6,00191.7,M,-012.0,M,,*68
2208$GPGSA,A,3,04,10,17,25,27,,,,,,,,03.2,01.6,02.7*00
2209$GPGSV,3,1,12,02,22,351,00,04,40,029,35,08,43,101,42,10,15,312,38*77
2210$GPGSV,3,2,12,11,00,131,00,13,01,028,00,15,29,232,40,17,57,164,52*79
2211$GPGSV,3,3,12,25,12,056,34,26,38,232,00,27,27,068,48,28,22,153,45*78
2212$GPRMC,183857,A,0641.3308,S,03712.3888,W,011.1,134.0,030208,,,A*76
2213$GPVTG,134.0,T,,M,011.1,N,020.5,K,A*0D
2214$GPGGA,183912,0641.3612,S,03712.3631,W,1,05,01.6,00193.7,M,-012.0,M,,*68
2215$GPGSA,A,3,04,10,17,25,27,,,,,,,,03.2,01.6,02.7*00
2216$GPGSV,3,1,12,02,22,351,00,04,40,029,44,08,43,100,52,10,15,312,45*7B
2217$GPGSV,3,2,12,11,00,131,00,13,01,028,00,15,29,232,50,17,57,164,52*78
2218$GPGSV,3,3,12,25,12,056,39,26,38,232,00,27,27,067,39,28,22,153,42*7B
2219$GPRMC,183912,A,0641.3612,S,03712.3631,W,011.0,143.3,030208,,,A*76
2220$GPVTG,143.3,T,,M,011.0,N,020.5,K,A*0F
2221$GPGGA,183927,0641.3900,S,03712.3409,W,1,05,01.6,00220.2,M,-012.0,M,,*65
2222$GPGSA,A,3,04,10,17,25,27,,,,,,,,03.2,01.6,02.7*00
2223$GPGSV,3,1,11,02,22,351,00,04,40,029,45,08,43,100,47,10,15,312,42*7A
2224$GPGSV,3,2,11,13,01,028,00,15,29,232,49,17,57,164,52,25,12,056,35*71
2225$GPGSV,3,3,11,26,38,232,00,27,27,067,46,28,22,153,44,,,,*4B
2226$GPRMC,183927,A,0641.3900,S,03712.3409,W,009.9,139.8,030208,,,A*73
2227$GPVTG,139.8,T,,M,009.9,N,018.4,K,A*03
2228$GPGGA,183942,0641.4462,S,03712.3258,W,1,05,01.6,00208.3,M,-012.0,M,,*61
2229$GPGSA,A,3,04,10,17,25,27,,,,,,,,03.2,01.6,02.7*00
2230$GPGSV,3,1,11,02,22,351,00,04,40,029,43,08,43,100,51,10,15,312,51*79
2231$GPGSV,3,2,11,13,00,028,00,15,29,232,33,17,57,164,52,25,12,056,43*7C
2232$GPGSV,3,3,11,26,38,232,00,27,26,067,47,28,22,153,47,,,,*48
2233$GPRMC,183942,A,0641.4462,S,03712.3258,W,015.2,161.1,030208,,,A*7E
2234$GPVTG,161.1,T,,M,015.2,N,028.1,K,A*07
2235$GPGGA,183957,0641.4910,S,03712.3085,W,1,05,01.6,00203.1,M,-012.0,M,,*66
2236$GPGSA,A,3,04,10,17,25,27,,,,,,,,03.2,01.6,02.7*00
2237$GPGSV,3,1,11,02,22,351,00,04,40,030,47,08,43,100,52,10,15,312,44*72
2238$GPGSV,3,2,11,13,00,028,00,15,29,232,46,17,57,164,52,25,12,056,35*7F
2239$GPGSV,3,3,11,26,38,232,00,27,26,067,46,28,22,153,46,,,,*48
2240$GPRMC,183957,A,0641.4910,S,03712.3085,W,010.2,147.5,030208,,,A*75
2241$GPVTG,147.5,T,,M,010.2,N,018.9,K,A*09
2242$GPGGA,184012,0641.5117,S,03712.2739,W,1,04,01.8,00205.9,M,-012.0,M,,*67
2243$GPGSA,A,3,04,10,17,27,,,,,,,,,04.2,01.8,03.8*00
2244$GPGSV,3,1,11,02,22,351,00,04,40,030,50,08,43,100,46,10,15,312,44*71
2245$GPGSV,3,2,11,13,00,028,00,15,29,232,51,17,57,164,52,25,12,056,31*7D
2246$GPGSV,3,3,11,26,38,232,00,27,26,067,46,28,22,153,42,,,,*4C
2247$GPRMC,184012,A,0641.5117,S,03712.2739,W,010.3,118.9,030208,,,A*72
2248$GPVTG,118.9,T,,M,010.3,N,019.1,K,A*07
2249$GPGGA,184027,0641.5534,S,03712.2417,W,1,04,01.8,00190.8,M,-012.0,M,,*65
2250$GPGSA,A,3,04,10,17,27,,,,,,,,,04.2,01.8,03.7*0F
2251$GPGSV,3,1,11,02,22,351,00,04,40,030,45,08,43,100,51,10,15,312,44*73
2252$GPGSV,3,2,11,13,00,028,00,15,29,232,45,17,57,164,51,25,12,056,29*72
2253$GPGSV,3,3,11,26,38,232,00,27,26,067,39,28,21,152,45,,,,*41
2254$GPRMC,184027,A,0641.5534,S,03712.2417,W,014.7,150.3,030208,,,A*78
2255$GPVTG,150.3,T,,M,014.7,N,027.2,K,A*0F
2256$GPGGA,184052,0641.6305,S,03712.2231,W,1,05,01.6,00179.3,M,-012.0,M,,*61
2257$GPGSA,A,3,04,10,17,25,27,,,,,,,,03.1,01.6,02.7*03
2258$GPGSV,3,1,11,02,22,351,46,04,40,030,50,08,43,099,47,10,15,313,37*76
2259$GPGSV,3,2,11,13,00,028,00,15,29,232,44,17,56,164,48,25,12,055,32*73
2260$GPGSV,3,3,11,26,38,233,48,27,26,067,40,28,21,152,46,,,,*41
2261$GPRMC,184052,A,0641.6305,S,03712.2231,W,011.2,158.3,030208,,,A*77
2262$GPVTG,158.3,T,,M,011.2,N,020.7,K,A*05
2263$GPGGA,184107,0641.6749,S,03712.1936,W,1,05,01.6,00185.2,M,-012.0,M,,*61
2264$GPGSA,A,3,04,10,17,25,27,,,,,,,,03.1,01.6,02.7*03
2265$GPGSV,3,1,10,02,23,351,38,04,40,030,47,08,43,099,51,10,15,313,35*7C
2266$GPGSV,3,2,10,15,30,232,43,17,56,164,50,25,12,055,38,26,38,233,45*7A
2267$GPGSV,3,3,10,27,26,066,34,28,21,152,42,,,,,,,,*77
2268$GPRMC,184107,A,0641.6749,S,03712.1936,W,013.4,146.9,030208,,,A*74
2269$GPVTG,146.9,T,,M,013.4,N,024.9,K,A*0E
2270$GPGGA,184122,0641.7238,S,03712.1677,W,1,05,01.6,00192.1,M,-012.0,M,,*6B
2271$GPGSA,A,3,04,10,17,25,27,,,,,,,,03.1,01.6,02.7*03
2272$GPGSV,3,1,10,02,23,351,43,04,41,030,49,08,43,099,49,10,15,313,40*74
2273$GPGSV,3,2,10,15,30,233,47,17,56,164,50,25,12,055,36,26,38,233,50*75
2274$GPGSV,3,3,10,27,26,066,35,28,21,152,46,,,,,,,,*72
2275$GPRMC,184122,A,0641.7238,S,03712.1677,W,013.2,156.2,030208,,,A*77
2276$GPVTG,156.2,T,,M,013.2,N,024.5,K,A*0E
2277$GPGGA,184137,0641.7754,S,03712.1494,W,1,04,01.8,00193.3,M,-012.0,M,,*63
2278$GPGSA,A,3,04,10,17,27,,,,,,,,,04.2,01.8,03.7*0F
2279$GPGSV,3,1,10,02,23,351,39,04,41,030,47,08,43,099,49,10,15,313,36*76
2280$GPGSV,3,2,10,15,30,233,49,17,56,164,51,25,12,055,29,26,38,233,51*75
2281$GPGSV,3,3,10,27,26,066,37,28,21,152,45,,,,,,,,*73
2282$GPRMC,184137,A,0641.7754,S,03712.1494,W,012.0,161.2,030208,,,A*74
2283$GPVTG,161.2,T,,M,012.0,N,022.2,K,A*08
2284$GPGGA,184152,0641.8226,S,03712.1380,W,1,03,02.9,00194.3,M,-012.0,M,,*6F
2285$GPGSA,A,2,04,17,27,,,,,,,,,,03.1,02.9,01.0*0C
2286$GPGSV,3,1,10,02,23,351,29,04,41,030,49,08,43,099,46,10,15,313,33*73
2287$GPGSV,3,2,10,15,30,233,48,17,56,164,54,25,12,055,34,26,38,233,51*7D
2288$GPGSV,3,3,10,27,26,066,36,28,21,152,45,,,,,,,,*72
2289$GPRMC,184152,A,0641.8226,S,03712.1380,W,009.3,186.6,030208,,,A*7E
2290$GPVTG,186.6,T,,M,009.3,N,017.3,K,A*0B
2291$GPGGA,184207,0641.8611,S,03712.1419,W,1,03,03.0,00196.0,M,-012.0,M,,*62
2292$GPGSA,A,2,04,17,27,,,,,,,,,,03.1,03.0,01.0*04
2293$GPGSV,3,1,10,02,23,351,35,04,41,031,48,08,43,098,49,10,15,313,33*70
2294$GPGSV,3,2,10,15,30,233,41,17,56,164,53,25,11,055,33,26,39,233,43*75
2295$GPGSV,3,3,10,27,26,066,40,28,21,152,41,,,,,,,,*77
2296$GPRMC,184207,A,0641.8611,S,03712.1419,W,011.7,180.2,030208,,,A*75
2297$GPVTG,180.2,T,,M,011.7,N,021.7,K,A*05
2298$GPGGA,184227,0641.9277,S,03712.1461,W,1,05,01.6,00196.8,M,-012.0,M,,*60
2299$GPGSA,A,3,04,10,17,25,27,,,,,,,,03.1,01.6,02.7*03
2300$GPGSV,3,1,10,02,23,351,37,04,41,031,49,08,43,098,51,10,15,313,36*7F
2301$GPGSV,3,2,10,15,30,233,41,17,56,164,53,25,11,055,34,26,39,233,46*77
2302$GPGSV,3,3,10,27,26,066,46,28,21,152,41,,,,,,,,*71
2303$GPRMC,184227,A,0641.9277,S,03712.1461,W,009.5,183.8,030208,,,A*7F
2304$GPVTG,183.8,T,,M,009.5,N,017.7,K,A*02
2305$GPGGA,184242,0641.9738,S,03712.1442,W,1,05,01.6,00196.8,M,-012.0,M,,*6C
2306$GPGSA,A,3,04,10,17,25,27,,,,,,,,03.1,01.6,02.7*03
2307$GPGSV,3,1,10,02,23,352,42,04,41,031,45,08,43,098,52,10,14,313,36*70
2308$GPGSV,3,2,10,15,30,233,42,17,56,164,51,25,11,055,38,26,39,233,50*7D
2309$GPGSV,3,3,10,27,26,066,39,28,21,151,44,,,,,,,,*7F
2310$GPRMC,184242,A,0641.9738,S,03712.1442,W,011.8,169.5,030208,,,A*7E
2311$GPVTG,169.5,T,,M,011.8,N,021.9,K,A*04
2312$GPGGA,184257,0642.0177,S,03712.1299,W,1,05,01.6,00196.0,M,-012.0,M,,*67
2313$GPGSA,A,3,04,10,17,25,27,,,,,,,,03.1,01.6,02.7*03
2314$GPGSV,3,1,10,02,23,352,42,04,41,031,47,08,43,098,50,10,14,314,40*76
2315$GPGSV,3,2,10,15,30,233,38,17,55,164,49,25,11,055,31,26,39,234,45*70
2316$GPGSV,3,3,10,27,26,066,34,28,21,151,47,,,,,,,,*71
2317$GPRMC,184257,A,0642.0177,S,03712.1299,W,011.5,152.8,030208,,,A*75
2318$GPVTG,152.8,T,,M,011.5,N,021.3,K,A*06
2319$GPGGA,184312,0642.0589,S,03712.1094,W,1,05,01.6,00192.4,M,-012.0,M,,*6D
2320$GPGSA,A,3,04,10,17,25,27,,,,,,,,03.1,01.6,02.6*02
2321$GPGSV,3,1,10,02,23,352,41,04,41,031,48,08,43,098,48,10,14,314,41*72
2322$GPGSV,3,2,10,15,30,233,35,17,55,164,50,25,11,055,31,26,39,234,40*70
2323$GPGSV,3,3,10,27,26,066,36,28,21,151,48,,,,,,,,*7C
2324$GPRMC,184312,A,0642.0589,S,03712.1094,W,009.6,156.5,030208,,,A*7C
2325$GPVTG,156.5,T,,M,009.6,N,017.8,K,A*0B
2326$GPGGA,184327,0642.0914,S,03712.0905,W,1,05,01.6,00178.6,M,-012.0,M,,*65
2327$GPGSA,A,3,04,10,17,25,27,,,,,,,,03.1,01.6,02.6*02
2328$GPGSV,3,1,10,02,23,352,44,04,41,031,45,08,43,097,48,10,14,314,36*75
2329$GPGSV,3,2,10,15,30,233,45,17,55,164,49,25,11,055,36,26,39,234,48*70
2330$GPGSV,3,3,10,27,26,065,34,28,21,151,47,,,,,,,,*72
2331$GPRMC,184327,A,0642.0914,S,03712.0905,W,012.4,146.2,030208,,,A*7C
2332$GPVTG,146.2,T,,M,012.4,N,023.0,K,A*0A
2333$GPGGA,184342,0642.1304,S,03712.0684,W,1,05,01.6,00191.3,M,-012.0,M,,*68
2334$GPGSA,A,3,04,10,17,25,27,,,,,,,,03.1,01.6,02.6*02
2335$GPGSV,3,1,10,02,23,352,32,04,41,031,45,08,43,097,51,10,14,314,38*72
2336$GPGSV,3,2,10,15,30,234,47,17,55,164,50,25,11,054,45,26,39,234,49*79
2337$GPGSV,3,3,10,27,26,065,36,28,21,151,45,,,,,,,,*72
2338$GPRMC,184342,A,0642.1304,S,03712.0684,W,013.0,140.3,030208,,,A*71
2339$GPVTG,140.3,T,,M,013.0,N,024.1,K,A*0E
2340$GPGGA,184402,0642.1960,S,03712.0292,W,1,05,01.6,00176.3,M,-012.0,M,,*69
2341$GPGSA,A,3,04,10,17,25,27,,,,,,,,03.1,01.6,02.6*02
2342$GPGSV,3,1,10,02,24,352,37,04,41,031,41,08,43,097,50,10,14,314,35*78
2343$GPGSV,3,2,10,15,30,234,45,17,55,164,49,25,11,054,35,26,39,234,47*7A
2344$GPGSV,3,3,10,27,26,065,34,28,21,151,48,,,,,,,,*7D
2345$GPRMC,184402,A,0642.1960,S,03712.0292,W,009.8,145.7,030208,,,A*7B
2346$GPVTG,145.7,T,,M,009.8,N,018.3,K,A*01
2347$GPGGA,184417,0642.2253,S,03712.0062,W,1,05,01.6,00200.9,M,-012.0,M,,*60
2348$GPGSA,A,3,04,10,17,25,27,,,,,,,,03.1,01.6,02.6*02
2349$GPGSV,3,1,10,02,24,352,33,04,41,032,44,08,43,097,48,10,14,314,40*71
2350$GPGSV,3,2,10,15,30,234,46,17,55,164,50,25,11,054,36,26,39,234,49*7C
2351$GPGSV,3,3,10,27,26,065,34,28,21,151,45,,,,,,,,*70
2352$GPRMC,184417,A,0642.2253,S,03712.0062,W,011.1,138.8,030208,,,A*7F
2353$GPVTG,138.8,T,,M,011.1,N,020.6,K,A*0A
2354$GPGGA,184452,0642.3570,S,03711.9611,W,1,04,01.6,00200.7,M,-012.0,M,,*61
2355$GPGSA,A,3,04,10,17,25,,,,,,,,,03.1,01.6,02.6*07
2356$GPGSV,3,1,10,02,24,352,32,04,42,032,45,08,43,097,51,10,14,314,41*7B
2357$GPGSV,3,2,10,15,31,234,44,17,55,164,52,25,11,054,37,26,39,235,49*7D
2358$GPGSV,3,3,10,27,25,065,32,28,21,151,41,,,,,,,,*71
2359$GPRMC,184452,A,0642.3570,S,03711.9611,W,015.5,178.9,030208,,,A*74
2360$GPVTG,178.9,T,,M,015.5,N,028.7,K,A*06
2361$GPGGA,184512,0642.4264,S,03711.9550,W,1,05,01.6,00194.1,M,-012.0,M,,*6E
2362$GPGSA,A,3,04,10,17,25,27,,,,,,,,03.1,01.6,02.6*02
2363$GPGSV,3,1,10,02,24,352,34,04,42,032,35,08,43,096,52,10,14,315,33*7C
2364$GPGSV,3,2,10,15,31,234,33,17,54,164,47,25,11,054,33,26,39,235,31*73
2365$GPGSV,3,3,10,27,25,065,40,28,21,150,36,,,,,,,,*75
2366$GPRMC,184512,A,0642.4264,S,03711.9550,W,005.6,181.3,030208,,,A*7C
2367$GPVTG,181.3,T,,M,005.6,N,010.3,K,A*07
2368$GPGGA,184532,0642.4753,S,03711.9516,W,1,04,05.0,00216.5,M,-012.0,M,,*61
2369$GPGSA,A,3,04,17,25,27,,,,,,,,,07.3,05.0,05.3*05
2370$GPGSV,3,1,10,02,24,352,29,04,42,032,45,08,43,096,48,10,14,315,30*7F
2371$GPGSV,3,2,10,15,31,234,42,17,54,164,52,25,11,054,33,26,40,235,46*7F
2372$GPGSV,3,3,10,27,25,064,36,28,21,150,37,,,,,,,,*74
2373$GPRMC,184532,A,0642.4753,S,03711.9516,W,014.4,182.2,030208,,,A*7D
2374$GPVTG,182.2,T,,M,014.4,N,026.8,K,A*09
2375$GPGGA,184547,0642.5555,S,03711.9494,W,1,04,05.0,00185.4,M,-012.0,M,,*65
2376$GPGSA,A,3,04,17,25,27,,,,,,,,,07.3,05.0,05.2*04
2377$GPGSV,3,1,10,02,24,352,31,04,42,032,46,08,43,096,52,10,14,315,30*7E
2378$GPGSV,3,2,10,15,31,234,38,17,54,164,50,25,11,054,41,26,40,235,45*76
2379$GPGSV,3,3,10,27,25,064,45,28,21,150,36,,,,,,,,*71
2380$GPRMC,184547,A,0642.5555,S,03711.9494,W,021.0,168.0,030208,,,A*75
2381$GPVTG,168.0,T,,M,021.0,N,039.0,K,A*0B
2382$GPGGA,184602,0642.6507,S,03711.9645,W,1,04,01.6,00185.4,M,-012.0,M,,*6F
2383$GPGSA,A,3,04,10,17,25,,,,,,,,,03.1,01.6,02.6*07
2384$GPGSV,3,1,10,02,24,352,39,04,42,032,48,08,43,096,47,10,14,315,39*75
2385$GPGSV,3,2,10,15,31,235,48,17,54,164,54,25,10,054,35,26,40,235,49*7A
2386$GPGSV,3,3,10,27,25,064,34,28,21,150,35,,,,,,,,*74
2387$GPRMC,184602,A,0642.6507,S,03711.9645,W,024.3,203.0,030208,,,A*75
2388$GPVTG,203.0,T,,M,024.3,N,045.1,K,A*09
2389$GPGGA,184627,0642.7715,S,03712.0047,W,1,04,01.6,00206.5,M,-012.0,M,,*6F
2390$GPGSA,A,3,04,10,17,25,,,,,,,,,03.1,01.6,02.6*07
2391$GPGSV,3,1,10,02,24,352,43,04,42,033,47,08,43,095,42,10,14,315,41*7F
2392$GPGSV,3,2,10,15,31,235,42,17,54,164,52,25,10,053,34,26,40,235,46*7F
2393$GPGSV,3,3,10,27,25,064,32,28,21,150,40,,,,,,,,*70
2394$GPRMC,184627,A,0642.7715,S,03712.0047,W,012.8,208.7,030208,,,A*7E
2395$GPVTG,208.7,T,,M,012.8,N,023.8,K,A*02
2396$GPGGA,184642,0642.8074,S,03712.0287,W,1,03,03.2,00206.7,M,-012.0,M,,*6E
2397$GPGSA,A,2,04,17,27,,,,,,,,,,03.4,03.2,00.9*0B
2398$GPGSV,3,1,10,02,24,353,35,04,42,033,49,08,43,095,46,10,14,315,34*77
2399$GPGSV,3,2,10,15,31,235,44,17,54,164,55,25,10,053,30,26,40,235,50*7D
2400$GPGSV,3,3,10,27,25,064,42,28,21,150,35,,,,,,,,*75
2401$GPRMC,184642,A,0642.8074,S,03712.0287,W,009.5,199.3,030208,,,A*74
2402$GPVTG,199.3,T,,M,009.5,N,017.6,K,A*03
2403$GPGGA,184657,0642.8485,S,03712.0461,W,1,04,01.7,00209.1,M,-012.0,M,,*67
2404$GPGSA,A,3,04,10,17,27,,,,,,,,,04.1,01.7,03.7*03
2405$GPGSV,3,1,10,02,25,353,31,04,42,033,49,08,43,095,47,10,14,315,38*7F
2406$GPGSV,3,2,10,15,31,235,51,17,54,164,54,25,10,053,33,26,40,236,48*71
2407$GPGSV,3,3,10,27,25,064,40,28,21,150,34,,,,,,,,*76
2408$GPRMC,184657,A,0642.8485,S,03712.0461,W,012.8,198.4,030208,,,A*75
2409$GPVTG,198.4,T,,M,012.8,N,023.7,K,A*04
2410$GPGGA,184712,0642.8898,S,03712.0785,W,1,04,05.1,00214.3,M,-012.0,M,,*62
2411$GPGSA,A,3,04,17,25,27,,,,,,,,,07.3,05.1,05.1*06
2412$GPGSV,3,1,10,02,25,353,46,04,42,033,47,08,43,095,38,10,14,315,30*71
2413$GPGSV,3,2,10,15,31,235,44,17,53,164,51,25,10,053,36,26,40,236,50*7B
2414$GPGSV,3,3,10,27,25,064,37,28,21,150,36,,,,,,,,*74
2415$GPRMC,184712,A,0642.8898,S,03712.0785,W,012.4,238.2,030208,,,A*7F
2416$GPVTG,238.2,T,,M,012.4,N,023.1,K,A*01
2417$GPGGA,184727,0642.9199,S,03712.1069,W,1,05,01.5,00200.1,M,-012.0,M,,*6F
2418$GPGSA,A,3,04,10,17,25,27,,,,,,,,03.0,01.5,02.6*00
2419$GPGSV,3,1,10,02,25,353,29,04,42,033,49,08,43,095,46,10,14,316,39*75
2420$GPGSV,3,2,10,15,31,235,51,17,53,164,55,25,10,053,40,26,40,236,48*73
2421$GPGSV,3,3,10,27,25,064,41,28,21,149,37,,,,,,,,*7C
2422$GPRMC,184727,A,0642.9199,S,03712.1069,W,008.1,197.3,030208,,,A*7D
2423$GPVTG,197.3,T,,M,008.1,N,015.1,K,A*0D
2424$GPGGA,184742,0642.9574,S,03712.1157,W,1,04,01.7,00197.4,M,-012.0,M,,*6C
2425$GPGSA,A,3,04,10,17,27,,,,,,,,,04.1,01.7,03.7*03
2426$GPGSV,3,1,10,02,25,353,35,04,42,033,50,08,43,095,45,10,14,316,35*7F
2427$GPGSV,3,2,10,15,31,235,48,17,53,164,54,25,10,053,30,26,40,236,46*73
2428$GPGSV,3,3,10,27,25,064,39,28,21,149,40,,,,,,,,*73
2429$GPRMC,184742,A,0642.9574,S,03712.1157,W,008.9,190.5,030208,,,A*7C
2430$GPVTG,190.5,T,,M,008.9,N,016.5,K,A*03
2431$GPGGA,184757,0642.9910,S,03712.1195,W,1,04,05.2,00203.2,M,-012.0,M,,*61
2432$GPGSA,A,3,04,17,25,27,,,,,,,,,07.3,05.2,05.0*04
2433$GPGSV,3,1,10,02,25,353,41,04,42,033,52,08,43,094,49,10,14,316,31*77
2434$GPGSV,3,2,10,15,31,235,45,17,53,164,50,25,10,053,35,26,40,236,45*7C
2435$GPGSV,3,3,10,27,25,063,40,28,21,149,32,,,,,,,,*7F
2436$GPRMC,184757,A,0642.9910,S,03712.1195,W,006.3,189.2,030208,,,A*73
2437$GPVTG,189.2,T,,M,006.3,N,011.7,K,A*0D
2438$GPGGA,184827,0643.0659,S,03712.1272,W,1,05,01.5,00206.0,M,-012.0,M,,*6C
2439$GPGSA,A,3,04,10,17,25,27,,,,,,,,03.0,01.5,02.6*00
2440$GPGSV,3,1,10,02,25,353,42,04,43,034,51,08,43,094,50,10,14,316,39*71
2441$GPGSV,3,2,10,15,32,236,48,17,53,164,41,25,10,053,40,26,40,236,52*75
2442$GPGSV,3,3,10,27,25,063,35,28,20,149,42,,,,,,,,*7B
2443$GPRMC,184827,A,0643.0659,S,03712.1272,W,008.9,189.6,030208,,,A*7B
2444$GPVTG,189.6,T,,M,008.9,N,016.5,K,A*08
2445$GPGGA,184842,0643.0872,S,03712.1303,W,1,05,01.5,00206.0,M,-012.0,M,,*6F
2446$GPGSA,A,3,04,10,17,25,27,,,,,,,,03.0,01.5,02.6*00
2447$GPGSV,3,1,10,02,25,353,38,04,43,034,49,08,43,094,47,10,14,316,35*7F
2448$GPGSV,3,2,10,15,32,236,46,17,53,164,52,25,10,053,33,26,40,237,49*76
2449$GPGSV,3,3,10,27,25,063,42,28,20,149,46,,,,,,,,*7F
2450$GPRMC,184842,A,0643.0872,S,03712.1303,W,008.2,122.3,030208,,,A*77
2451$GPVTG,122.3,T,,M,008.2,N,015.3,K,A*02
2452$GPGGA,184857,0643.0936,S,03712.0924,W,1,03,03.4,00206.1,M,-012.0,M,,*60
2453$GPGSA,A,2,04,17,27,,,,,,,,,,03.5,03.4,01.0*04
2454$GPGSV,3,1,10,02,25,353,41,04,43,034,52,08,43,094,48,10,14,316,34*75
2455$GPGSV,3,2,10,15,32,236,51,17,53,164,54,25,10,053,30,26,40,237,51*7C
2456$GPGSV,3,3,10,27,25,063,41,28,20,149,34,,,,,,,,*79
2457$GPRMC,184857,A,0643.0936,S,03712.0924,W,009.1,104.2,030208,,,A*7B
2458$GPVTG,104.2,T,,M,009.1,N,016.8,K,A*0D
2459$GPGGA,184912,0643.1071,S,03712.0723,W,1,04,01.7,00206.2,M,-012.0,M,,*67
2460$GPGSA,A,3,04,10,17,27,,,,,,,,,04.0,01.7,03.6*03
2461$GPGSV,3,1,10,02,25,353,33,04,43,034,46,08,43,094,51,10,14,316,34*7D
2462$GPGSV,3,2,10,15,32,236,40,17,52,164,51,25,10,053,31,26,41,237,46*7E
2463$GPGSV,3,3,10,27,25,063,40,28,20,149,33,,,,,,,,*7F
2464$GPRMC,184912,A,0643.1071,S,03712.0723,W,006.8,189.1,030208,,,A*79
2465$GPVTG,189.1,T,,M,006.8,N,012.6,K,A*07
2466$GPGGA,184927,0643.1325,S,03712.0700,W,1,04,05.3,00204.7,M,-012.0,M,,*65
2467$GPGSA,A,3,04,17,25,27,,,,,,,,,07.3,05.3,04.9*0D
2468$GPGSV,3,1,10,02,25,353,30,04,43,034,51,08,43,093,47,10,14,316,29*74
2469$GPGSV,3,2,10,15,32,236,51,17,52,164,54,25,10,052,44,26,41,237,46*78
2470$GPGSV,3,3,10,27,24,063,43,28,20,149,36,,,,,,,,*78
2471$GPRMC,184927,A,0643.1325,S,03712.0700,W,007.4,176.0,030208,,,A*70
2472$GPVTG,176.0,T,,M,007.4,N,013.7,K,A*0B
2473$GPGGA,185007,0643.1667,S,03712.0428,W,1,04,01.9,00231.2,M,-012.0,M,,*68
2474$GPGSA,A,3,04,17,26,27,,,,,,,,,04.9,01.9,04.5*05
2475$GPGSV,3,1,10,02,26,353,29,04,43,034,50,08,43,093,47,10,14,317,00*74
2476$GPGSV,3,2,10,15,32,236,44,17,52,164,51,25,09,052,31,26,41,237,40*75
2477$GPGSV,3,3,10,27,24,062,33,28,20,148,35,,,,,,,,*7C
2478$GPRMC,185007,A,0643.1667,S,03712.0428,W,006.6,109.2,030208,,,A*79
2479$GPVTG,109.2,T,,M,006.6,N,012.4,K,A*00
2480$GPGGA,185022,0643.1788,S,03712.0173,W,1,04,01.9,00229.4,M,-012.0,M,,*6B
2481$GPGSA,A,3,04,17,26,27,,,,,,,,,04.9,01.9,04.5*05
2482$GPGSV,3,1,10,02,26,353,45,04,43,035,50,08,43,093,47,10,14,317,00*7F
2483$GPGSV,3,2,10,15,32,236,52,17,52,164,53,25,09,052,30,26,41,237,51*71
2484$GPGSV,3,3,10,27,24,062,36,28,20,148,34,,,,,,,,*78
2485$GPRMC,185022,A,0643.1788,S,03712.0173,W,005.0,113.2,030208,,,A*7B
2486$GPVTG,113.2,T,,M,005.0,N,009.3,K,A*03
2487$GPGGA,185042,0643.1872,S,03711.9963,W,1,03,03.5,00226.8,M,-012.0,M,,*6E
2488$GPGSA,A,2,04,17,27,,,,,,,,,,03.6,03.5,00.9*0E
2489$GPGSV,3,1,10,02,26,354,43,04,43,035,46,08,43,093,49,10,14,317,00*77
2490$GPGSV,3,2,10,15,32,237,35,17,52,164,53,25,09,052,27,26,41,238,31*7E
2491$GPGSV,3,3,10,27,24,062,45,28,20,148,32,,,,,,,,*7A
2492$GPRMC,185042,A,0643.1872,S,03711.9963,W,000.4,111.5,030208,,,A*70
2493$GPVTG,111.5,T,,M,000.4,N,000.8,K,A*05
2494$GPGGA,185102,0643.1864,S,03712.0038,W,1,05,01.9,00214.0,M,-012.0,M,,*60
2495$GPGSA,A,3,04,17,25,26,27,,,,,,,,03.3,01.9,02.7*0B
2496$GPGSV,3,1,10,02,26,354,48,04,43,035,45,08,43,092,48,10,14,317,00*7F
2497$GPGSV,3,2,10,15,32,237,33,17,52,164,49,25,09,052,30,26,41,238,35*71
2498$GPGSV,3,3,10,27,24,062,41,28,20,148,26,,,,,,,,*7B
2499$GPRMC,185102,A,0643.1864,S,03712.0038,W,000.3,111.5,030208,,,A*78
2500$GPVTG,111.5,T,,M,000.3,N,000.5,K,A*0F
2501$GPGGA,185117,0643.1868,S,03712.0024,W,1,05,01.9,00212.8,M,-012.0,M,,*6B
2502$GPGSA,A,3,04,17,25,26,27,,,,,,,,03.3,01.9,02.7*0B
2503$GPGSV,3,1,10,02,26,354,46,04,43,035,45,08,43,092,41,10,14,317,00*78
2504$GPGSV,3,2,10,15,32,237,30,17,51,164,48,25,09,052,32,26,41,238,33*74
2505$GPGSV,3,3,10,27,24,062,38,28,20,148,27,,,,,,,,*74
2506$GPRMC,185117,A,0643.1868,S,03712.0024,W,001.5,124.9,030208,,,A*70
2507$GPVTG,124.9,T,,M,001.5,N,002.9,K,A*0C
2508$GPGGA,185132,0643.1866,S,03712.0047,W,1,04,01.9,00212.0,M,-012.0,M,,*6E
2509$GPGSA,A,3,04,17,26,27,,,,,,,,,04.9,01.9,04.5*05
2510$GPGSV,3,1,10,02,26,354,49,04,44,035,51,08,43,092,50,10,14,317,00*75
2511$GPGSV,3,2,10,15,32,237,27,17,51,164,50,25,09,052,26,26,41,238,40*7A
2512$GPGSV,3,3,10,27,24,062,40,28,20,148,34,,,,,,,,*79
2513$GPRMC,185132,A,0643.1866,S,03712.0047,W,000.4,147.7,030208,,,A*77
2514$GPVTG,147.7,T,,M,000.4,N,000.7,K,A*0B
2515$GPGGA,185152,0643.1865,S,03712.0026,W,1,04,01.9,00215.0,M,-012.0,M,,*6B
2516$GPGSA,A,3,04,17,26,27,,,,,,,,,04.8,01.9,04.4*05
2517$GPGSV,3,1,10,02,26,354,48,04,44,035,49,08,43,092,49,10,14,317,00*75
2518$GPGSV,3,2,10,15,32,237,34,17,51,164,38,25,09,052,00,26,41,238,34*71
2519$GPGSV,3,3,10,27,24,062,41,28,20,148,29,,,,,,,,*74
2520$GPRMC,185152,A,0643.1865,S,03712.0026,W,000.3,125.8,030208,,,A*79
2521$GPVTG,125.8,T,,M,000.3,N,000.6,K,A*06
2522$GPGGA,185207,0643.1833,S,03712.0065,W,1,04,01.9,00205.5,M,-012.0,M,,*68
2523$GPGSA,A,3,04,17,26,27,,,,,,,,,04.8,01.9,04.4*05
2524$GPGSV,3,1,10,02,26,354,48,04,44,036,40,08,43,092,44,10,14,318,00*7D
2525$GPGSV,3,2,10,15,33,237,33,17,51,164,43,25,09,052,00,26,41,238,36*79
2526$GPGSV,3,3,10,27,24,062,38,28,20,147,26,,,,,,,,*7A
2527$GPRMC,185207,A,0643.1833,S,03712.0065,W,000.2,289.9,030208,,,A*7B
2528$GPVTG,289.9,T,,M,000.2,N,000.5,K,A*00
2529$GPGGA,185222,0643.1848,S,03712.0043,W,1,04,01.9,00208.2,M,-012.0,M,,*6D
2530$GPGSA,A,3,04,17,26,27,,,,,,,,,04.8,01.9,04.4*05
2531$GPGSV,3,1,10,02,26,354,50,04,44,036,45,08,43,091,46,10,14,318,00*70
2532$GPGSV,3,2,10,15,33,237,32,17,51,164,42,25,09,052,00,26,41,239,40*79
2533$GPGSV,3,3,10,27,24,061,40,28,20,147,29,,,,,,,,*79
2534$GPRMC,185222,A,0643.1848,S,03712.0043,W,000.4,289.9,030208,,,A*72
2535$GPVTG,289.9,T,,M,000.4,N,000.7,K,A*04
2536$GPGGA,185237,0643.1850,S,03712.0040,W,1,04,01.9,00209.4,M,-012.0,M,,*64
2537$GPGSA,A,3,04,17,26,27,,,,,,,,,04.8,01.9,04.4*05
2538$GPGSV,3,1,10,02,27,354,52,04,44,036,44,08,43,091,47,10,14,318,00*73
2539$GPGSV,3,2,10,15,33,237,29,17,51,164,45,25,09,051,00,26,41,239,37*77
2540$GPGSV,3,3,10,27,24,061,41,28,20,147,31,,,,,,,,*71
2541$GPRMC,185237,A,0643.1850,S,03712.0040,W,000.4,289.9,030208,,,A*7C
2542$GPVTG,289.9,T,,M,000.4,N,000.8,K,A*0B
2543$GPGGA,185252,0643.1867,S,03711.9999,W,1,04,01.9,00210.3,M,-012.0,M,,*6B
2544$GPGSA,A,3,04,17,26,27,,,,,,,,,04.8,01.9,04.4*05
2545$GPGSV,3,1,10,02,27,354,46,04,44,036,42,08,43,091,47,10,14,318,00*70
2546$GPGSV,3,2,10,15,33,238,28,17,51,164,45,25,09,051,00,26,41,239,33*7D
2547$GPGSV,3,3,10,27,24,061,44,28,20,147,31,,,,,,,,*74
2548$GPRMC,185252,A,0643.1867,S,03711.9999,W,000.8,294.3,030208,,,A*76
2549$GPVTG,294.3,T,,M,000.8,N,001.5,K,A*0D
2550$GPGGA,185307,0643.1885,S,03711.9966,W,1,04,01.9,00209.8,M,-012.0,M,,*65
2551$GPGSA,A,3,04,17,26,27,,,,,,,,,04.8,01.9,04.4*05
2552$GPGSV,3,1,10,02,27,354,52,04,44,036,51,08,43,091,43,10,14,318,00*73
2553$GPGSV,3,2,10,15,33,238,35,17,51,164,43,25,09,051,00,26,42,239,34*73
2554$GPGSV,3,3,10,27,24,061,48,28,20,147,33,,,,,,,,*7A
2555$GPRMC,185307,A,0643.1885,S,03711.9966,W,001.0,053.9,030208,,,A*71
2556$GPVTG,053.9,T,,M,001.0,N,002.0,K,A*01
2557$GPGGA,185327,0643.1888,S,03712.0030,W,1,04,01.9,00191.2,M,-012.0,M,,*62
2558$GPGSA,A,3,04,17,26,27,,,,,,,,,04.8,01.9,04.4*05
2559$GPGSV,3,1,10,02,27,354,51,04,44,036,49,08,43,091,48,10,14,318,00*72
2560$GPGSV,3,2,10,15,33,238,29,17,50,164,42,25,09,051,00,26,42,239,41*7C
2561$GPGSV,3,3,10,27,24,061,43,28,20,147,27,,,,,,,,*74
2562$GPRMC,185327,A,0643.1888,S,03712.0030,W,001.5,053.9,030208,,,A*7B
2563$GPVTG,053.9,T,,M,001.5,N,002.8,K,A*0C
2564$GPGGA,185342,0643.1905,S,03712.0018,W,1,04,01.9,00191.4,M,-012.0,M,,*69
2565$GPGSA,A,3,04,17,26,27,,,,,,,,,04.8,01.9,04.4*05
2566$GPGSV,3,1,10,02,27,354,50,04,44,036,48,08,43,091,48,10,14,318,00*72
2567$GPGSV,3,2,10,15,33,238,30,17,50,164,41,25,08,051,00,26,42,239,42*75
2568$GPGSV,3,3,10,27,24,061,45,28,20,147,00,,,,,,,,*77
2569$GPRMC,185342,A,0643.1905,S,03712.0018,W,002.4,139.5,030208,,,A*75
2570$GPVTG,139.5,T,,M,002.4,N,004.5,K,A*04
2571$GPGGA,185357,0643.1911,S,03711.9984,W,1,04,01.9,00191.7,M,-012.0,M,,*6D
2572$GPGSA,A,3,04,17,26,27,,,,,,,,,04.8,01.9,04.4*05
2573$GPGSV,3,1,10,02,27,354,49,04,44,036,52,08,43,090,50,10,14,318,00*79
2574$GPGSV,3,2,10,15,33,238,28,17,50,164,46,25,08,051,00,26,42,239,40*79
2575$GPGSV,3,3,10,27,23,061,46,28,20,147,00,,,,,,,,*73
2576$GPRMC,185357,A,0643.1911,S,03711.9984,W,000.5,106.0,030208,,,A*78
2577$GPVTG,106.0,T,,M,000.5,N,001.0,K,A*0E
2578$GPGGA,185412,0643.1897,S,03711.9967,W,1,04,01.9,00191.3,M,-012.0,M,,*6D
2579$GPGSA,A,3,04,17,26,27,,,,,,,,,04.8,01.9,04.4*05
2580$GPGSV,3,1,10,02,27,354,50,04,44,037,50,08,43,090,48,10,14,319,00*7A
2581$GPGSV,3,2,10,15,33,238,00,17,50,164,49,25,08,051,00,26,42,240,41*73
2582$GPGSV,3,3,10,27,23,061,43,28,20,147,00,,,,,,,,*76
2583$GPRMC,185412,A,0643.1897,S,03711.9967,W,000.3,106.0,030208,,,A*7A
2584$GPVTG,106.0,T,,M,000.3,N,000.6,K,A*0F
2585$GPGGA,185427,0643.1886,S,03711.9981,W,1,04,01.9,00190.3,M,-012.0,M,,*62
2586$GPGSA,A,3,04,17,26,27,,,,,,,,,04.8,01.9,04.4*05
2587$GPGSV,3,1,10,02,27,355,47,04,44,037,51,08,43,090,49,10,14,319,00*7D
2588$GPGSV,3,2,10,15,33,238,00,17,50,164,45,25,08,051,00,26,42,240,39*70
2589$GPGSV,3,3,10,27,23,061,44,28,20,146,00,,,,,,,,*70
2590$GPRMC,185427,A,0643.1886,S,03711.9981,W,000.3,098.2,030208,,,A*70
2591$GPVTG,098.2,T,,M,000.3,N,000.5,K,A*08
2592$GPGGA,185442,0643.1895,S,03711.9964,W,1,04,01.9,00189.9,M,-012.0,M,,*6A
2593$GPGSA,A,3,04,17,26,27,,,,,,,,,04.8,01.9,04.4*05
2594$GPGSV,3,1,10,02,27,355,44,04,44,037,51,08,43,090,40,10,14,319,00*77
2595$GPGSV,3,2,10,15,33,238,00,17,50,164,42,25,08,051,00,26,42,240,40*79
2596$GPGSV,3,3,10,27,23,061,34,28,20,146,00,,,,,,,,*77
2597$GPRMC,185442,A,0643.1895,S,03711.9964,W,000.7,111.8,030208,,,A*74
2598$GPVTG,111.8,T,,M,000.7,N,001.4,K,A*06
2599$GPGGA,185457,0643.1886,S,03711.9974,W,1,04,01.9,00193.3,M,-012.0,M,,*6C
2600$GPGSA,A,3,04,17,26,27,,,,,,,,,04.8,01.9,04.4*05
2601$GPGSV,3,1,10,02,27,355,46,04,45,037,51,08,43,090,50,10,14,319,00*75
2602$GPGSV,3,2,10,15,33,239,00,17,50,164,39,25,08,051,00,26,42,240,35*76
2603$GPGSV,3,3,10,27,23,060,41,28,20,146,00,,,,,,,,*74
2604$GPRMC,185457,A,0643.1886,S,03711.9974,W,000.3,111.8,030208,,,A*77
2605$GPVTG,111.8,T,,M,000.3,N,000.6,K,A*01
2606$GPGGA,185517,0643.1969,S,03711.9685,W,1,04,01.9,00221.5,M,-012.0,M,,*64
2607$GPGSA,A,3,04,17,26,27,,,,,,,,,04.8,01.9,04.4*05
2608$GPGSV,3,1,10,02,28,355,44,04,45,037,52,08,42,090,46,10,14,319,00*7D
2609$GPGSV,3,2,10,15,33,239,50,17,50,164,34,25,08,051,00,26,42,240,43*7F
2610$GPGSV,3,3,10,27,23,060,41,28,20,146,00,,,,,,,,*74
2611$GPRMC,185517,A,0643.1969,S,03711.9685,W,009.8,104.3,030208,,,A*7E
2612$GPVTG,104.3,T,,M,009.8,N,018.3,K,A*00
2613$GPGGA,185532,0643.2085,S,03711.9468,W,1,03,03.9,00178.2,M,-012.0,M,,*67
2614$GPGSA,A,2,04,17,27,,,,,,,,,,04.0,03.9,00.9*03
2615$GPGSV,3,1,10,02,28,355,49,04,45,037,45,08,42,089,44,10,14,319,00*7C
2616$GPGSV,3,2,10,15,33,239,35,17,49,164,44,25,08,051,00,26,42,240,37*70
2617$GPGSV,3,3,10,27,23,060,41,28,20,146,00,,,,,,,,*74
2618$GPRMC,185532,A,0643.2085,S,03711.9468,W,003.6,103.2,030208,,,A*72
2619$GPVTG,103.2,T,,M,003.6,N,006.6,K,A*08
2620$GPGGA,185547,0643.1723,S,03711.9360,W,1,04,01.9,00190.7,M,-012.0,M,,*64
2621$GPGSA,A,3,04,17,26,27,,,,,,,,,04.8,01.9,04.4*05
2622$GPGSV,3,1,10,02,28,355,46,04,45,037,48,08,42,089,45,10,14,319,00*7F
2623$GPGSV,3,2,10,15,33,239,49,17,49,164,48,25,08,051,00,26,42,241,49*7F
2624$GPGSV,3,3,10,27,23,060,35,28,20,146,00,,,,,,,,*77
2625$GPRMC,185547,A,0643.1723,S,03711.9360,W,000.6,010.6,030208,,,A*73
2626$GPVTG,010.6,T,,M,000.6,N,001.2,K,A*0F
2627$GPGGA,185607,0643.1767,S,03711.9270,W,1,04,06.0,00195.6,M,-012.0,M,,*69
2628$GPGSA,A,3,04,17,25,27,,,,,,,,,07.4,06.0,04.3*00
2629$GPGSV,3,1,10,02,28,355,48,04,45,038,52,08,42,089,48,10,14,319,00*78
2630$GPGSV,3,2,10,15,34,239,50,17,49,164,47,25,08,050,41,26,42,241,32*77
2631$GPGSV,3,3,10,27,23,060,39,28,20,146,00,,,,,,,,*7B
2632$GPRMC,185607,A,0643.1767,S,03711.9270,W,000.3,082.5,030208,,,A*79
2633$GPVTG,082.5,T,,M,000.3,N,000.6,K,A*07
2634$GPGGA,185622,0643.1768,S,03711.9262,W,1,04,06.0,00182.0,M,-012.0,M,,*62
2635$GPGSA,A,3,04,17,25,27,,,,,,,,,07.4,06.0,04.3*00
2636$GPGSV,3,1,10,02,28,355,45,04,45,038,52,08,42,089,48,10,14,319,00*75
2637$GPGSV,3,2,10,15,34,239,49,17,49,164,50,25,08,050,38,26,42,241,29*7D
2638$GPGSV,3,3,10,27,23,060,41,28,20,146,45,,,,,,,,*75
2639$GPRMC,185622,A,0643.1768,S,03711.9262,W,000.7,082.5,030208,,,A*76
2640$GPVTG,082.5,T,,M,000.7,N,001.3,K,A*07
2641$GPGGA,185637,0643.1738,S,03711.9248,W,1,04,01.9,00183.8,M,-012.0,M,,*6C
2642$GPGSA,A,3,04,17,25,26,,,,,,,,,03.2,01.9,02.6*0E
2643$GPGSV,3,1,10,02,28,355,46,04,45,038,53,08,42,089,49,10,14,320,00*7C
2644$GPGSV,3,2,10,15,34,239,47,17,49,163,51,25,08,050,39,26,42,241,40*7B
2645$GPGSV,3,3,10,27,23,060,33,28,19,146,42,,,,,,,,*7D
2646$GPRMC,185637,A,0643.1738,S,03711.9248,W,000.1,082.5,030208,,,A*79
2647$GPVTG,082.5,T,,M,000.1,N,000.3,K,A*00
2648$GPGGA,185652,0643.1744,S,03711.9227,W,1,04,01.9,00185.7,M,-012.0,M,,*64
2649$GPGSA,A,3,04,17,25,26,,,,,,,,,03.2,01.9,02.6*0E
2650$GPGSV,3,1,10,02,28,355,44,04,45,038,53,08,42,088,50,10,13,320,00*70
2651$GPGSV,3,2,10,15,34,239,46,17,49,163,52,25,08,050,40,26,42,241,41*76
2652$GPGSV,3,3,10,27,23,060,33,28,19,145,37,,,,,,,,*7C
2653$GPRMC,185652,A,0643.1744,S,03711.9227,W,000.7,082.5,030208,,,A*7E
2654$GPVTG,082.5,T,,M,000.7,N,001.3,K,A*07
2655$GPGGA,185707,0643.1748,S,03711.9232,W,1,05,01.8,00185.9,M,-012.0,M,,*63
2656$GPGSA,A,3,04,17,25,26,27,,,,,,,,03.2,01.8,02.6*0A
2657$GPGSV,3,1,10,02,28,355,45,04,45,038,53,08,42,088,48,10,13,320,00*78
2658$GPGSV,3,2,10,15,34,240,46,17,49,163,51,25,08,050,39,26,43,241,42*77
2659$GPGSV,3,3,10,27,23,060,35,28,19,145,34,,,,,,,,*79
2660$GPRMC,185707,A,0643.1748,S,03711.9232,W,000.3,082.5,030208,,,A*73
2661$GPVTG,082.5,T,,M,000.3,N,000.5,K,A*04
2662$GPGGA,185722,0643.1749,S,03711.9237,W,1,04,01.9,00185.7,M,-012.0,M,,*6E
2663$GPGSA,A,3,04,17,25,26,,,,,,,,,03.2,01.9,02.6*0E
2664$GPGSV,3,1,10,02,28,355,43,04,45,038,53,08,42,088,49,10,13,320,00*7F
2665$GPGSV,3,2,10,15,34,240,46,17,49,163,51,25,07,050,40,26,43,242,41*76
2666$GPGSV,3,3,10,27,23,059,33,28,19,145,37,,,,,,,,*76
2667$GPRMC,185722,A,0643.1749,S,03711.9237,W,000.3,082.5,030208,,,A*70
2668$GPVTG,082.5,T,,M,000.3,N,000.6,K,A*07
2669$GPGGA,185737,0643.1754,S,03711.9235,W,1,04,01.9,00185.4,M,-012.0,M,,*67
2670$GPGSA,A,3,04,17,25,26,,,,,,,,,03.2,01.9,02.6*0E
2671$GPGSV,3,1,10,02,28,355,44,04,45,038,53,08,42,088,49,10,13,320,00*78
2672$GPGSV,3,2,10,15,34,240,47,17,48,163,51,25,07,050,39,26,43,242,43*7A
2673$GPGSV,3,3,10,27,23,059,30,28,19,145,43,,,,,,,,*76
2674$GPRMC,185737,A,0643.1754,S,03711.9235,W,000.4,082.5,030208,,,A*7D
2675$GPVTG,082.5,T,,M,000.4,N,000.8,K,A*0E
2676$GPGGA,185752,0643.1776,S,03711.9191,W,1,04,01.9,00185.5,M,-012.0,M,,*68
2677$GPGSA,A,3,04,17,25,26,,,,,,,,,03.2,01.9,02.6*0E
2678$GPGSV,3,1,10,02,29,355,43,04,45,039,53,08,42,088,48,10,13,320,00*7E
2679$GPGSV,3,2,10,15,34,240,49,17,48,163,51,25,07,050,40,26,43,242,42*7B
2680$GPGSV,3,3,10,27,23,059,32,28,19,145,41,,,,,,,,*76
2681$GPRMC,185752,A,0643.1776,S,03711.9191,W,000.4,108.1,030208,,,A*74
2682$GPVTG,108.1,T,,M,000.4,N,000.7,K,A*06
2683$GPGGA,185807,0643.1840,S,03711.9078,W,1,05,01.8,00185.8,M,-012.0,M,,*66
2684$GPGSA,A,3,04,17,25,26,27,,,,,,,,03.2,01.8,02.6*0A
2685$GPGSV,3,1,10,02,29,355,46,04,45,039,48,08,42,088,46,10,13,320,00*7F
2686$GPGSV,3,2,10,15,34,240,51,17,48,163,49,25,07,050,41,26,43,242,51*78
2687$GPGSV,3,3,10,27,23,059,42,28,19,145,34,,,,,,,,*73
2688$GPRMC,185807,A,0643.1840,S,03711.9078,W,004.0,123.3,030208,,,A*7C
2689$GPVTG,123.3,T,,M,004.0,N,007.4,K,A*09
2690$GPGGA,185827,0643.1587,S,03711.8950,W,1,04,01.8,00200.6,M,-012.0,M,,*61
2691$GPGSA,A,3,04,17,26,27,,,,,,,,,04.7,01.8,04.3*0C
2692$GPGSV,3,1,10,02,29,356,47,04,46,039,46,08,42,087,47,10,13,320,00*7E
2693$GPGSV,3,2,10,15,34,240,43,17,48,163,47,25,07,050,29,26,43,242,34*78
2694$GPGSV,3,3,10,27,22,059,42,28,19,145,33,,,,,,,,*75
2695$GPRMC,185827,A,0643.1587,S,03711.8950,W,004.5,043.6,030208,,,A*7D
2696$GPVTG,043.6,T,,M,004.5,N,008.3,K,A*06
2697$GPGGA,185842,0643.1308,S,03711.8779,W,1,05,01.8,00171.5,M,-012.0,M,,*61
2698$GPGSA,A,3,04,17,25,26,27,,,,,,,,03.1,01.8,02.6*09
2699$GPGSV,3,1,10,02,29,356,42,04,46,039,47,08,42,087,43,10,13,320,00*7E
2700$GPGSV,3,2,10,15,34,240,36,17,48,163,50,25,07,050,34,26,43,242,45*76
2701$GPGSV,3,3,10,27,22,059,35,28,19,145,50,,,,,,,,*70
2702$GPRMC,185842,A,0643.1308,S,03711.8779,W,006.3,351.9,030208,,,A*71
2703$GPVTG,351.9,T,,M,006.3,N,011.7,K,A*01
2704$GPGGA,185857,0643.1128,S,03711.8726,W,1,05,01.8,00179.0,M,-012.0,M,,*62
2705$GPGSA,A,3,04,17,25,26,27,,,,,,,,03.1,01.8,02.5*0A
2706$GPGSV,3,1,10,02,29,356,48,04,46,039,44,08,42,087,38,10,13,321,00*7A
2707$GPGSV,3,2,10,15,34,240,50,17,48,163,43,25,07,050,32,26,43,242,51*77
2708$GPGSV,3,3,10,27,22,059,37,28,19,145,31,,,,,,,,*75
2709$GPRMC,185857,A,0643.1128,S,03711.8726,W,003.5,073.0,030208,,,A*76
2710$GPVTG,073.0,T,,M,003.5,N,006.6,K,A*0F
2711$GPGGA,185922,0643.1291,S,03711.7434,W,1,04,01.8,00186.4,M,-012.0,M,,*6A
2712$GPGSA,A,3,04,17,26,27,,,,,,,,,04.6,01.8,04.2*0C
2713$GPGSV,3,1,10,02,29,356,50,04,46,039,39,08,42,087,47,10,13,321,00*71
2714$GPGSV,3,2,10,15,34,241,51,17,48,163,42,25,07,049,34,26,43,243,49*70
2715$GPGSV,3,3,10,27,22,059,30,28,19,144,34,,,,,,,,*76
2716$GPRMC,185922,A,0643.1291,S,03711.7434,W,029.6,096.3,030208,,,A*78
2717$GPVTG,096.3,T,,M,029.6,N,054.9,K,A*04
2718$GPGGA,185957,0643.1512,S,03711.5264,W,1,06,01.3,00162.5,M,-012.0,M,,*67
2719$GPGSA,A,3,04,10,17,25,26,27,,,,,,,02.7,01.3,02.4*06
2720$GPGSV,3,1,10,02,29,356,51,04,46,040,36,08,42,086,45,10,13,321,39*78
2721$GPGSV,3,2,10,15,34,241,47,17,47,163,42,25,07,049,32,26,43,243,50*76
2722$GPGSV,3,3,10,27,22,058,38,28,19,144,29,,,,,,,,*73
2723$GPRMC,185957,A,0643.1512,S,03711.5264,W,021.6,090.3,030208,,,A*79
2724$GPVTG,090.3,T,,M,021.6,N,040.1,K,A*07
2725$GPGGA,190017,0643.1534,S,03711.3761,W,1,06,01.3,00217.7,M,-012.0,M,,*6F
2726$GPGSA,A,3,04,10,17,25,26,27,,,,,,,02.7,01.3,02.3*01
2727$GPGSV,3,1,10,02,29,356,52,04,46,040,34,08,42,086,47,10,13,321,41*74
2728$GPGSV,3,2,10,15,34,241,46,17,47,163,45,25,07,049,34,26,43,243,51*77
2729$GPGSV,3,3,10,27,22,058,36,28,19,144,30,,,,,,,,*75
2730$GPRMC,190017,A,0643.1534,S,03711.3761,W,030.3,096.0,030208,,,A*72
2731$GPVTG,096.0,T,,M,030.3,N,056.2,K,A*03
2732$GPGGA,190032,0643.1671,S,03711.2501,W,1,05,01.4,00222.7,M,-012.0,M,,*6D
2733$GPGSA,A,3,04,10,17,26,27,,,,,,,,03.5,01.4,03.2*02
2734$GPGSV,3,1,10,02,30,356,49,04,46,040,49,08,42,086,47,10,13,321,36*7C
2735$GPGSV,3,2,10,15,35,241,51,17,47,163,44,25,07,049,28,26,43,243,46*7A
2736$GPGSV,3,3,10,27,22,058,40,28,19,144,32,,,,,,,,*76
2737$GPRMC,190032,A,0643.1671,S,03711.2501,W,028.8,096.5,030208,,,A*75
2738$GPVTG,096.5,T,,M,028.8,N,053.3,K,A*00
2739$GPGGA,190047,0643.1800,S,03711.1224,W,1,05,01.4,00222.2,M,-012.0,M,,*61
2740$GPGSA,A,3,04,10,17,26,27,,,,,,,,03.5,01.4,03.2*02
2741$GPGSV,3,1,10,02,30,356,52,04,46,040,42,08,42,086,49,10,13,321,36*73
2742$GPGSV,3,2,10,15,35,241,48,17,47,163,45,25,07,049,29,26,43,244,51*73
2743$GPGSV,3,3,10,27,22,058,35,28,19,144,30,,,,,,,,*76
2744$GPRMC,190047,A,0643.1800,S,03711.1224,W,033.1,095.3,030208,,,A*7A
2745$GPVTG,095.3,T,,M,033.1,N,061.3,K,A*07
2746$GPGGA,190102,0643.1813,S,03711.0346,W,1,05,01.4,00235.8,M,-012.0,M,,*6B
2747$GPGSA,A,3,04,10,17,26,27,,,,,,,,03.5,01.4,03.2*02
2748$GPGSV,3,1,10,02,30,356,52,04,46,040,43,08,42,086,50,10,13,321,41*7A
2749$GPGSV,3,2,10,15,35,242,46,17,47,163,47,25,06,049,00,26,43,244,51*76
2750$GPGSV,3,3,10,27,22,058,35,28,19,144,31,,,,,,,,*77
2751$GPRMC,190102,A,0643.1813,S,03711.0346,W,011.1,099.6,030208,,,A*75
2752$GPVTG,099.6,T,,M,011.1,N,020.7,K,A*0F
2753$GPGGA,190117,0643.1963,S,03710.9757,W,1,05,01.4,00231.4,M,-012.0,M,,*6D
2754$GPGSA,A,3,04,10,17,26,27,,,,,,,,03.5,01.4,03.1*01
2755$GPGSV,3,1,10,02,30,356,36,04,46,040,53,08,42,086,44,10,13,322,34*7D
2756$GPGSV,3,2,10,15,35,242,39,17,47,163,48,25,06,049,00,26,43,244,46*77
2757$GPGSV,3,3,10,27,22,058,34,28,19,144,33,,,,,,,,*74
2758$GPRMC,190117,A,0643.1963,S,03710.9757,W,015.3,109.1,030208,,,A*72
2759$GPVTG,109.1,T,,M,015.3,N,028.3,K,A*0A
2760$GPGGA,190132,0643.2332,S,03710.9148,W,1,05,01.4,00227.2,M,-012.0,M,,*6E
2761$GPGSA,A,3,04,10,17,26,27,,,,,,,,03.5,01.4,03.1*01
2762$GPGSV,3,1,10,02,30,356,43,04,46,041,47,08,42,085,49,10,13,322,45*73
2763$GPGSV,3,2,10,15,35,242,42,17,47,163,49,25,06,049,00,26,43,244,35*7E
2764$GPGSV,3,3,10,27,22,058,43,28,19,143,36,,,,,,,,*76
2765$GPRMC,190132,A,0643.2332,S,03710.9148,W,018.3,125.4,030208,,,A*76
2766$GPVTG,125.4,T,,M,018.3,N,033.9,K,A*0C
2767$GPGGA,190147,0643.2817,S,03710.8567,W,1,05,01.4,00228.0,M,-012.0,M,,*65
2768$GPGSA,A,3,04,10,17,26,27,,,,,,,,03.4,01.4,03.1*00
2769$GPGSV,3,1,10,02,30,356,41,04,46,041,48,08,42,085,48,10,13,322,39*74
2770$GPGSV,3,2,10,15,35,242,40,17,47,163,48,25,06,049,00,26,44,244,35*7A
2771$GPGSV,3,3,10,27,22,058,39,28,19,143,34,,,,,,,,*79
2772$GPRMC,190147,A,0643.2817,S,03710.8567,W,017.3,128.1,030208,,,A*77
2773$GPVTG,128.1,T,,M,017.3,N,032.1,K,A*02
2774$GPGGA,190202,0643.3302,S,03710.7879,W,1,05,01.4,00231.1,M,-012.0,M,,*6D
2775$GPGSA,A,3,04,10,17,26,27,,,,,,,,03.4,01.4,03.1*00
2776$GPGSV,3,1,10,02,30,356,33,04,47,041,50,08,42,085,47,10,13,322,41*79
2777$GPGSV,3,2,10,15,35,242,35,17,46,163,51,25,06,049,00,26,44,244,38*7C
2778$GPGSV,3,3,10,27,22,058,42,28,19,143,39,,,,,,,,*78
2779$GPRMC,190202,A,0643.3302,S,03710.7879,W,020.4,124.6,030208,,,A*7E
2780$GPVTG,124.6,T,,M,020.4,N,037.7,K,A*09
2781$GPGGA,190217,0643.3704,S,03710.7288,W,1,05,01.4,00232.9,M,-012.0,M,,*64
2782$GPGSA,A,3,04,10,17,26,27,,,,,,,,03.4,01.4,03.1*00
2783$GPGSV,3,1,10,02,30,356,42,04,47,041,52,08,42,085,47,10,13,322,35*7E
2784$GPGSV,3,2,10,15,35,242,41,17,46,163,48,25,06,049,00,26,44,245,40*79
2785$GPGSV,3,3,10,27,22,057,43,28,19,143,34,,,,,,,,*7B
2786$GPRMC,190217,A,0643.3704,S,03710.7288,W,013.5,125.6,030208,,,A*7C
2787$GPVTG,125.6,T,,M,013.5,N,025.0,K,A*0D
2788$GPGGA,190232,0643.3975,S,03710.6665,W,1,05,01.8,00208.4,M,-012.0,M,,*65
2789$GPGSA,A,3,04,17,25,26,27,,,,,,,,03.1,01.8,02.5*0A
2790$GPGSV,3,1,10,02,30,357,50,04,47,041,54,08,42,085,47,10,13,322,29*77
2791$GPGSV,3,2,10,15,35,242,44,17,46,163,47,25,06,048,36,26,44,245,40*77
2792$GPGSV,3,3,10,27,21,057,39,28,19,143,35,,,,,,,,*74
2793$GPRMC,190232,A,0643.3975,S,03710.6665,W,014.7,107.3,030208,,,A*75
2794$GPVTG,107.3,T,,M,014.7,N,027.4,K,A*0B
2795$GPGGA,190247,0643.4162,S,03710.6078,W,1,04,01.8,00205.6,M,-012.0,M,,*6A
2796$GPGSA,A,3,04,17,26,27,,,,,,,,,04.5,01.8,04.1*0C
2797$GPGSV,3,1,10,02,30,357,49,04,47,041,55,08,42,085,42,10,13,322,31*72
2798$GPGSV,3,2,10,15,35,242,44,17,46,163,45,25,06,048,30,26,44,245,42*71
2799$GPGSV,3,3,10,27,21,057,37,28,19,143,34,,,,,,,,*7B
2800$GPRMC,190247,A,0643.4162,S,03710.6078,W,018.1,109.4,030208,,,A*77
2801$GPVTG,109.4,T,,M,018.1,N,033.6,K,A*0F
2802$GPGGA,190302,0643.4353,S,03710.5455,W,1,03,01.8,00221.2,M,-012.0,M,,*67
2803$GPGSA,A,2,04,17,26,,,,,,,,,,02.1,01.8,01.0*0E
2804$GPGSV,3,1,10,02,30,357,49,04,47,041,55,08,42,084,45,10,13,322,34*71
2805$GPGSV,3,2,10,15,35,243,43,17,46,163,49,25,06,048,34,26,44,245,40*7D
2806$GPGSV,3,3,10,27,21,057,35,28,19,143,32,,,,,,,,*7F
2807$GPRMC,190302,A,0643.4353,S,03710.5455,W,014.7,108.2,030208,,,A*72
2808$GPVTG,108.2,T,,M,014.7,N,027.2,K,A*03
2809$GPGGA,190317,0643.4581,S,03710.4821,W,1,03,01.8,00221.4,M,-012.0,M,,*62
2810$GPGSA,A,2,04,17,26,,,,,,,,,,02.1,01.8,00.9*06
2811$GPGSV,3,1,10,02,31,357,49,04,47,042,55,08,42,084,39,10,13,322,33*7F
2812$GPGSV,3,2,10,15,35,243,37,17,46,163,47,25,06,048,33,26,44,245,44*73
2813$GPGSV,3,3,10,27,21,057,34,28,19,143,29,,,,,,,,*74
2814$GPRMC,190317,A,0643.4581,S,03710.4821,W,016.2,108.2,030208,,,A*76
2815$GPVTG,108.2,T,,M,016.2,N,030.1,K,A*01
2816$GPGGA,190332,0643.4773,S,03710.4158,W,1,03,01.8,00230.1,M,-012.0,M,,*68
2817$GPGSA,A,2,04,17,26,,,,,,,,,,02.1,01.8,00.9*06
2818$GPGSV,3,1,10,02,31,357,45,04,47,042,55,08,42,084,35,10,13,323,32*7F
2819$GPGSV,3,2,10,15,35,243,39,17,46,163,48,25,06,048,26,26,44,245,49*7B
2820$GPGSV,3,3,10,27,21,057,34,28,19,143,27,,,,,,,,*7A
2821$GPRMC,190332,A,0643.4773,S,03710.4158,W,015.0,110.1,030208,,,A*72
2822$GPVTG,110.1,T,,M,015.0,N,027.9,K,A*04
2823$GPGGA,190352,0643.5044,S,03710.3401,W,1,04,01.8,00236.1,M,-012.0,M,,*63
2824$GPGSA,A,3,04,10,17,26,,,,,,,,,04.6,01.8,04.2*08
2825$GPGSV,3,1,10,02,31,357,52,04,47,042,47,08,42,084,44,10,13,323,35*7B
2826$GPGSV,3,2,10,15,35,243,49,17,46,163,45,25,06,048,30,26,44,246,51*7C
2827$GPGSV,3,3,10,27,21,057,31,28,19,142,34,,,,,,,,*7C
2828$GPRMC,190352,A,0643.5044,S,03710.3401,W,018.2,096.3,030208,,,A*7A
2829$GPVTG,096.3,T,,M,018.2,N,033.7,K,A*0D
2830$GPGGA,190407,0643.4934,S,03710.2689,W,1,05,01.4,00261.7,M,-012.0,M,,*61
2831$GPGSA,A,3,04,10,17,26,27,,,,,,,,03.3,01.4,03.0*06
2832$GPGSV,3,1,10,02,31,357,51,04,47,042,45,08,42,084,46,10,13,323,35*78
2833$GPGSV,3,2,10,15,35,243,51,17,45,163,45,25,06,048,00,26,44,246,49*7C
2834$GPGSV,3,3,10,27,21,057,39,28,19,142,28,,,,,,,,*79
2835$GPRMC,190407,A,0643.4934,S,03710.2689,W,011.3,084.0,030208,,,A*79
2836$GPVTG,084.0,T,,M,011.3,N,020.9,K,A*09
2837$GPGGA,190427,0643.4928,S,03710.1991,W,1,04,01.8,00249.9,M,-012.0,M,,*62
2838$GPGSA,A,3,04,10,17,26,,,,,,,,,04.5,01.8,04.1*08
2839$GPGSV,3,1,10,02,31,357,47,04,47,042,48,08,42,083,47,10,13,323,34*75
2840$GPGSV,3,2,10,15,35,243,46,17,45,163,39,25,06,048,30,26,44,246,52*78
2841$GPGSV,3,3,10,27,21,057,32,28,19,142,36,,,,,,,,*7D
2842$GPRMC,190427,A,0643.4928,S,03710.1991,W,012.6,102.5,030208,,,A*7F
2843$GPVTG,102.5,T,,M,012.6,N,023.4,K,A*0B
2844$GPGGA,190442,0643.5241,S,03710.1361,W,1,03,01.8,00249.9,M,-012.0,M,,*66
2845$GPGSA,A,2,04,17,26,,,,,,,,,,02.1,01.8,00.9*06
2846$GPGSV,3,1,10,02,31,357,42,04,47,042,54,08,42,083,44,10,13,323,31*7B
2847$GPGSV,3,2,10,15,35,243,46,17,45,163,49,25,05,048,28,26,44,246,41*77
2848$GPGSV,3,3,10,27,21,056,33,28,19,142,30,,,,,,,,*7B
2849$GPRMC,190442,A,0643.5241,S,03710.1361,W,016.2,114.2,030208,,,A*7C
2850$GPVTG,114.2,T,,M,016.2,N,030.0,K,A*0D
2851$GPGGA,190502,0643.5458,S,03710.0561,W,1,05,01.4,00256.7,M,-012.0,M,,*60
2852$GPGSA,A,3,04,10,17,26,27,,,,,,,,03.3,01.4,03.0*06
2853$GPGSV,3,1,10,02,31,357,46,04,47,043,52,08,42,083,43,10,13,323,34*7A
2854$GPGSV,3,2,10,15,35,244,45,17,45,163,45,25,05,048,26,26,44,246,45*75
2855$GPGSV,3,3,10,27,21,056,33,28,19,142,29,,,,,,,,*73
2856$GPRMC,190502,A,0643.5458,S,03710.0561,W,009.0,110.1,030208,,,A*7B
2857$GPVTG,110.1,T,,M,009.0,N,016.7,K,A*05
2858$GPGGA,190517,0643.5606,S,03710.0196,W,1,05,01.4,00233.9,M,-012.0,M,,*6C
2859$GPGSA,A,3,04,10,17,26,27,,,,,,,,03.3,01.4,03.0*06
2860$GPGSV,3,1,10,02,31,357,49,04,47,043,51,08,42,083,48,10,13,323,41*7F
2861$GPGSV,3,2,10,15,36,244,44,17,45,163,45,25,05,048,31,26,44,247,51*75
2862$GPGSV,3,3,10,27,21,056,35,28,19,142,38,,,,,,,,*75
2863$GPRMC,190517,A,0643.5606,S,03710.0196,W,008.6,062.6,030208,,,A*7E
2864$GPVTG,062.6,T,,M,008.6,N,016.0,K,A*06
2865$GPGGA,190532,0643.5782,S,03709.9672,W,1,05,01.4,00253.4,M,-012.0,M,,*61
2866$GPGSA,A,3,04,10,17,26,27,,,,,,,,03.3,01.4,03.0*06
2867$GPGSV,3,1,10,02,31,357,46,04,48,043,52,08,42,083,47,10,13,323,33*76
2868$GPGSV,3,2,10,15,36,244,45,17,45,163,45,25,05,048,30,26,44,247,44*71
2869$GPGSV,3,3,10,27,21,056,33,28,19,142,36,,,,,,,,*7D
2870$GPRMC,190532,A,0643.5782,S,03709.9672,W,014.1,106.1,030208,,,A*76
2871$GPVTG,106.1,T,,M,014.1,N,026.2,K,A*09
2872$GPGGA,190547,0643.5920,S,03709.9130,W,1,04,01.7,00265.6,M,-012.0,M,,*61
2873$GPGSA,A,3,04,17,26,27,,,,,,,,,04.3,01.7,03.9*0A
2874$GPGSV,3,1,10,02,32,357,50,04,48,043,54,08,42,083,34,10,13,324,34*70
2875$GPGSV,3,2,10,15,36,244,34,17,45,163,51,25,05,048,33,26,44,247,47*72
2876$GPGSV,3,3,10,27,21,056,46,28,19,142,35,,,,,,,,*7C
2877$GPRMC,190547,A,0643.5920,S,03709.9130,W,012.1,109.6,030208,,,A*7D
2878$GPVTG,109.6,T,,M,012.1,N,022.4,K,A*05
2879$GPGGA,190602,0643.6139,S,03709.8439,W,1,04,01.7,00260.5,M,-012.0,M,,*6B
2880$GPGSA,A,3,04,17,26,27,,,,,,,,,04.3,01.7,03.9*0A
2881$GPGSV,3,1,10,02,32,357,52,04,48,043,51,08,42,082,42,10,13,324,30*73
2882$GPGSV,3,2,10,15,36,244,31,17,45,163,51,25,05,048,30,26,44,247,48*7B
2883$GPGSV,3,3,10,27,21,056,45,28,18,142,28,,,,,,,,*72
2884$GPRMC,190602,A,0643.6139,S,03709.8439,W,016.7,113.3,030208,,,A*7D
2885$GPVTG,113.3,T,,M,016.7,N,031.0,K,A*0F
2886$GPGGA,190617,0643.6475,S,03709.7922,W,1,04,01.7,00259.5,M,-012.0,M,,*60
2887$GPGSA,A,3,04,17,26,27,,,,,,,,,04.3,01.7,03.9*0A
2888$GPGSV,3,1,10,02,32,357,43,04,48,043,52,08,42,082,49,10,13,324,32*79
2889$GPGSV,3,2,10,15,36,244,40,17,44,163,49,25,05,047,27,26,44,247,45*71
2890$GPGSV,3,3,10,27,21,056,45,28,18,141,46,,,,,,,,*79
2891$GPRMC,190617,A,0643.6475,S,03709.7922,W,011.8,124.6,030208,,,A*75
2892$GPVTG,124.6,T,,M,011.8,N,021.9,K,A*0E
2893$GPGGA,190632,0643.6558,S,03709.7499,W,1,05,01.4,00259.3,M,-012.0,M,,*60
2894$GPGSA,A,3,04,10,17,26,27,,,,,,,,03.2,01.4,02.9*0F
2895$GPGSV,3,1,10,02,32,357,48,04,48,043,50,08,42,082,46,10,13,324,32*7F
2896$GPGSV,3,2,10,15,36,244,42,17,44,163,48,25,05,047,00,26,44,247,44*76
2897$GPGSV,3,3,10,27,20,056,33,28,18,141,33,,,,,,,,*7B
2898$GPRMC,190632,A,0643.6558,S,03709.7499,W,009.4,078.1,030208,,,A*7B
2899$GPVTG,078.1,T,,M,009.4,N,017.4,K,A*0C
2900$GPGGA,190647,0643.6769,S,03709.7178,W,1,05,01.4,00257.5,M,-012.0,M,,*60
2901$GPGSA,A,3,04,10,17,26,27,,,,,,,,03.2,01.4,02.9*0F
2902$GPGSV,3,1,10,02,32,358,46,04,48,044,46,08,42,082,52,10,13,324,32*7B
2903$GPGSV,3,2,10,15,36,244,46,17,44,163,49,25,05,047,00,26,44,248,47*7F
2904$GPGSV,3,3,10,27,20,056,45,28,18,141,48,,,,,,,,*76
2905$GPRMC,190647,A,0643.6769,S,03709.7178,W,007.9,140.6,030208,,,A*7D
2906$GPVTG,140.6,T,,M,007.9,N,014.6,K,A*03
2907$GPGGA,190702,0643.7197,S,03709.6739,W,1,04,01.7,00253.0,M,-012.0,M,,*67
2908$GPGSA,A,3,04,17,26,27,,,,,,,,,04.2,01.7,03.9*0B
2909$GPGSV,3,1,10,02,32,358,35,04,48,044,47,08,41,082,49,10,13,324,29*7D
2910$GPGSV,3,2,10,15,36,245,46,17,44,163,51,25,05,047,00,26,45,248,45*74
2911$GPGSV,3,3,10,27,20,056,47,28,18,141,35,,,,,,,,*7E
2912$GPRMC,190702,A,0643.7197,S,03709.6739,W,013.7,133.7,030208,,,A*77
2913$GPVTG,133.7,T,,M,013.7,N,025.4,K,A*0D
2914$GPGGA,190717,0643.7533,S,03709.6259,W,1,05,01.3,00252.4,M,-012.0,M,,*6A
2915$GPGSA,A,3,04,10,17,26,27,,,,,,,,03.2,01.3,02.9*08
2916$GPGSV,3,1,10,02,32,358,36,04,48,044,48,08,41,082,49,10,13,324,35*7C
2917$GPGSV,3,2,10,15,36,245,38,17,44,163,49,25,05,047,00,26,45,248,43*72
2918$GPGSV,3,3,10,27,20,056,35,28,18,141,37,,,,,,,,*79
2919$GPRMC,190717,A,0643.7533,S,03709.6259,W,014.9,131.8,030208,,,A*7E
2920$GPVTG,131.8,T,,M,014.9,N,027.6,K,A*09
2921$GPGGA,190732,0643.7704,S,03709.5687,W,1,05,01.3,00250.7,M,-012.0,M,,*6E
2922$GPGSA,A,3,04,10,17,26,27,,,,,,,,03.2,01.3,02.9*08
2923$GPGSV,3,1,10,02,32,358,52,04,48,044,52,08,41,081,45,10,13,324,35*7A
2924$GPGSV,3,2,10,15,36,245,33,17,44,163,49,25,05,047,00,26,45,248,47*7D
2925$GPGSV,3,3,10,27,20,055,36,28,18,141,34,,,,,,,,*7A
2926$GPRMC,190732,A,0643.7704,S,03709.5687,W,008.7,098.2,030208,,,A*70
2927$GPVTG,098.2,T,,M,008.7,N,016.1,K,A*07
2928$GPGGA,190747,0643.7777,S,03709.5147,W,1,04,01.7,00248.3,M,-012.0,M,,*6B
2929$GPGSA,A,3,04,17,26,27,,,,,,,,,04.2,01.7,03.8*0A
2930$GPGSV,3,1,10,02,32,358,52,04,48,044,51,08,41,081,45,10,13,324,30*7C
2931$GPGSV,3,2,10,15,36,245,46,17,44,163,48,25,05,047,00,26,45,248,40*79
2932$GPGSV,3,3,10,27,20,055,40,28,18,141,34,,,,,,,,*7B
2933$GPRMC,190747,A,0643.7777,S,03709.5147,W,012.8,097.2,030208,,,A*76
2934$GPVTG,097.2,T,,M,012.8,N,023.7,K,A*0C
2935$GPGGA,190802,0643.7856,S,03709.4430,W,1,05,01.3,00244.6,M,-012.0,M,,*61
2936$GPGSA,A,3,04,10,17,26,27,,,,,,,,03.2,01.3,02.9*08
2937$GPGSV,3,1,10,02,32,358,52,04,48,044,50,08,41,081,46,10,13,324,35*7B
2938$GPGSV,3,2,10,15,36,245,49,17,44,163,49,25,05,047,00,26,45,248,48*7F
2939$GPGSV,3,3,10,27,20,055,47,28,18,141,36,,,,,,,,*7E
2940$GPRMC,190802,A,0643.7856,S,03709.4430,W,018.8,094.5,030208,,,A*7E
2941$GPVTG,094.5,T,,M,018.8,N,034.8,K,A*0B
2942$GPGGA,190817,0643.7762,S,03709.3657,W,1,04,01.7,00241.9,M,-012.0,M,,*66
2943$GPGSA,A,3,04,10,17,26,,,,,,,,,04.1,01.7,03.7*02
2944$GPGSV,3,1,10,02,32,358,47,04,48,045,52,08,41,081,45,10,13,325,34*7F
2945$GPGSV,3,2,10,15,36,245,48,17,44,163,46,25,04,047,00,26,45,249,41*78
2946$GPGSV,3,3,10,27,20,055,32,28,18,141,32,,,,,,,,*78
2947$GPRMC,190817,A,0643.7762,S,03709.3657,W,017.3,075.5,030208,,,A*7D
2948$GPVTG,075.5,T,,M,017.3,N,032.1,K,A*0F
2949$GPGGA,190842,0643.7491,S,03709.2637,W,1,04,01.7,00207.9,M,-012.0,M,,*6C
2950$GPGSA,A,3,04,10,17,26,,,,,,,,,04.0,01.7,03.7*03
2951$GPGSV,3,1,10,02,33,358,43,04,48,045,52,08,41,081,45,10,13,325,34*7A
2952$GPGSV,3,2,10,15,36,246,43,17,43,163,49,25,04,047,00,26,45,249,38*76
2953$GPGSV,3,3,10,27,20,055,31,28,18,140,34,,,,,,,,*7C
2954$GPRMC,190842,A,0643.7491,S,03709.2637,W,014.3,075.4,030208,,,A*77
2955$GPVTG,075.4,T,,M,014.3,N,026.4,K,A*0D
2956$GPGGA,190857,0643.7316,S,03709.2020,W,1,05,01.3,00223.7,M,-012.0,M,,*6D
2957$GPGSA,A,3,04,10,17,26,27,,,,,,,,03.1,01.3,02.8*0A
2958$GPGSV,3,1,10,02,33,358,35,04,48,045,51,08,41,081,46,10,13,325,42*7A
2959$GPGSV,3,2,10,15,36,246,46,17,43,163,47,25,04,047,00,26,45,249,35*70
2960$GPGSV,3,3,10,27,20,055,34,28,18,140,34,,,,,,,,*79
2961$GPRMC,190857,A,0643.7316,S,03709.2020,W,013.8,075.2,030208,,,A*71
2962$GPVTG,075.2,T,,M,013.8,N,025.7,K,A*07
2963$GPGGA,190912,0643.7232,S,03709.1603,W,1,05,01.3,00218.3,M,-012.0,M,,*62
2964$GPGSA,A,3,04,10,17,26,27,,,,,,,,03.1,01.3,02.8*0A
2965$GPGSV,3,1,10,02,33,358,46,04,49,045,53,08,41,080,47,10,13,325,34*7C
2966$GPGSV,3,2,10,15,36,246,46,17,43,163,43,25,04,047,00,26,45,249,40*76
2967$GPGSV,3,3,10,27,20,055,38,28,18,140,30,,,,,,,,*71
2968$GPRMC,190912,A,0643.7232,S,03709.1603,W,008.4,077.3,030208,,,A*77
2969$GPVTG,077.3,T,,M,008.4,N,015.5,K,A*03
2970$GPGGA,190927,0643.7072,S,03709.1168,W,1,05,01.3,00235.6,M,-012.0,M,,*62
2971$GPGSA,A,3,04,10,17,26,27,,,,,,,,03.1,01.3,02.8*0A
2972$GPGSV,3,1,10,02,33,358,47,04,49,045,51,08,41,080,46,10,13,325,39*73
2973$GPGSV,3,2,10,15,36,246,47,17,43,163,51,25,04,047,00,26,45,249,49*7D
2974$GPGSV,3,3,10,27,20,055,42,28,18,140,41,,,,,,,,*7A
2975$GPRMC,190927,A,0643.7072,S,03709.1168,W,012.4,093.7,030208,,,A*78
2976$GPVTG,093.7,T,,M,012.4,N,023.0,K,A*06
2977$GPGGA,190942,0643.7049,S,03709.0656,W,1,05,01.3,00242.0,M,-012.0,M,,*64
2978$GPGSA,A,3,04,10,17,26,27,,,,,,,,03.1,01.3,02.8*0A
2979$GPGSV,3,1,10,02,33,358,51,04,49,045,51,08,41,080,44,10,13,325,36*79
2980$GPGSV,3,2,10,15,36,246,50,17,43,163,49,25,04,047,00,26,45,250,46*75
2981$GPGSV,3,3,10,27,20,055,41,28,18,140,34,,,,,,,,*7B
2982$GPRMC,190942,A,0643.7049,S,03709.0656,W,010.8,104.2,030208,,,A*7C
2983$GPVTG,104.2,T,,M,010.8,N,020.1,K,A*00
2984$GPGGA,190957,0643.7498,S,03709.0292,W,1,04,01.6,00237.1,M,-012.0,M,,*63
2985$GPGSA,A,3,04,10,17,26,,,,,,,,,03.9,01.6,03.5*0E
2986$GPGSV,3,1,10,02,33,358,47,04,49,046,53,08,41,080,43,10,13,325,41*78
2987$GPGSV,3,2,10,15,36,246,45,17,43,162,48,25,04,046,00,26,45,250,49*7F
2988$GPGSV,3,3,10,27,20,055,33,28,18,140,40,,,,,,,,*7D
2989$GPRMC,190957,A,0643.7498,S,03709.0292,W,013.0,162.8,030208,,,A*7D
2990$GPVTG,162.8,T,,M,013.0,N,024.0,K,A*04
2991$GPGGA,191012,0643.7749,S,03709.0225,W,1,05,01.3,00236.5,M,-012.0,M,,*68
2992$GPGSA,A,3,04,10,17,26,27,,,,,,,,03.1,01.3,02.8*0A
2993$GPGSV,3,1,10,02,33,358,38,04,49,046,43,08,41,080,50,10,13,325,39*7C
2994$GPGSV,3,2,10,15,37,246,36,17,43,162,46,25,04,046,00,26,45,250,48*75
2995$GPGSV,3,3,10,27,20,054,35,28,18,140,37,,,,,,,,*7A
2996$GPRMC,191012,A,0643.7749,S,03709.0225,W,007.6,165.0,030208,,,A*7B
2997$GPVTG,165.0,T,,M,007.6,N,014.0,K,A*0B
2998$GPGGA,191027,0643.8052,S,03708.9881,W,1,05,01.3,00233.0,M,-011.9,M,,*6A
2999$GPGSA,A,3,04,10,17,26,27,,,,,,,,03.1,01.3,02.8*0A
3000$GPGSV,3,1,10,02,33,358,50,04,49,046,52,08,41,080,46,10,13,325,35*79
3001$GPGSV,3,2,10,15,37,246,50,17,43,162,47,25,04,046,00,26,45,250,50*7D
3002$GPGSV,3,3,10,27,20,054,42,28,18,140,42,,,,,,,,*78
3003$GPRMC,191027,A,0643.8052,S,03708.9881,W,011.4,116.1,030208,,,A*73
3004$GPVTG,116.1,T,,M,011.4,N,021.2,K,A*0F
3005$GPGGA,191042,0643.8221,S,03708.9342,W,1,05,01.3,00232.4,M,-011.9,M,,*6E
3006$GPGSA,A,3,04,10,17,26,27,,,,,,,,03.1,01.3,02.8*0A
3007$GPGSV,3,1,10,02,33,359,46,04,49,046,48,08,41,079,36,10,13,326,36*75
3008$GPGSV,3,2,10,15,37,247,50,17,42,162,50,25,04,046,00,26,45,250,46*7C
3009$GPGSV,3,3,10,27,19,054,35,28,18,139,33,,,,,,,,*7A
3010$GPRMC,191042,A,0643.8221,S,03708.9342,W,015.2,107.7,030208,,,A*76
3011$GPVTG,107.7,T,,M,015.2,N,028.3,K,A*03
3012$GPGGA,191057,0643.8382,S,03708.8814,W,1,05,01.3,00231.8,M,-011.9,M,,*64
3013$GPGSA,A,3,04,10,17,26,27,,,,,,,,03.1,01.3,02.7*05
3014$GPGSV,3,1,10,02,34,359,51,04,49,046,47,08,41,079,38,10,13,326,35*76
3015$GPGSV,3,2,10,15,37,247,50,17,42,162,50,25,04,046,00,26,45,250,51*7A
3016$GPGSV,3,3,10,27,19,054,35,28,18,139,31,,,,,,,,*78
3017$GPRMC,191057,A,0643.8382,S,03708.8814,W,012.5,110.8,030208,,,A*7A
3018$GPVTG,110.8,T,,M,012.5,N,023.1,K,A*03
3019$GPGGA,191112,0643.8486,S,03708.8324,W,1,05,01.3,00232.5,M,-011.9,M,,*61
3020$GPGSA,A,3,04,10,17,26,27,,,,,,,,03.0,01.3,02.7*04
3021$GPGSV,3,1,10,02,34,359,42,04,49,046,47,08,41,079,40,10,13,326,32*7C
3022$GPGSV,3,2,10,15,37,247,50,17,42,162,49,25,04,046,00,26,45,251,47*74
3023$GPGSV,3,3,10,27,19,054,34,28,18,139,41,,,,,,,,*7E
3024$GPRMC,191112,A,0643.8486,S,03708.8324,W,010.3,105.0,030208,,,A*79
3025$GPVTG,105.0,T,,M,010.3,N,019.1,K,A*02
3026$GPGGA,191127,0643.8553,S,03708.7828,W,1,05,01.3,00235.1,M,-011.9,M,,*65
3027$GPGSA,A,3,04,10,17,26,27,,,,,,,,03.0,01.3,02.7*04
3028$GPGSV,3,1,10,02,34,359,33,04,49,047,48,08,41,079,41,10,13,326,37*70
3029$GPGSV,3,2,10,15,37,247,46,17,42,162,51,25,04,046,00,26,45,251,48*75
3030$GPGSV,3,3,10,27,19,054,34,28,18,139,41,,,,,,,,*7E
3031$GPRMC,191127,A,0643.8553,S,03708.7828,W,016.4,096.5,030208,,,A*71
3032$GPVTG,096.5,T,,M,016.4,N,030.3,K,A*04
3033$GPGGA,191142,0643.8738,S,03708.7181,W,1,05,01.3,00236.8,M,-011.9,M,,*69
3034$GPGSA,A,3,04,10,17,26,27,,,,,,,,03.0,01.3,02.7*04
3035$GPGSV,3,1,10,02,34,359,41,04,49,047,50,08,41,079,47,10,13,326,35*78
3036$GPGSV,3,2,10,15,37,247,49,17,42,162,44,25,03,046,00,26,45,251,49*78
3037$GPGSV,3,3,10,27,19,054,48,28,18,139,45,,,,,,,,*71
3038$GPRMC,191142,A,0643.8738,S,03708.7181,W,016.0,119.8,030208,,,A*78
3039$GPVTG,119.8,T,,M,016.0,N,029.7,K,A*07
3040$GPGGA,191157,0643.9204,S,03708.6580,W,1,05,01.3,00237.0,M,-011.9,M,,*6B
3041$GPGSA,A,3,04,10,17,26,27,,,,,,,,03.0,01.3,02.7*04
3042$GPGSV,3,1,10,02,34,359,42,04,49,047,49,08,41,079,47,10,13,326,34*72
3043$GPGSV,3,2,10,15,37,247,51,17,42,162,45,25,03,046,00,26,45,251,49*70
3044$GPGSV,3,3,10,27,19,054,46,28,18,139,44,,,,,,,,*7E
3045$GPRMC,191157,A,0643.9204,S,03708.6580,W,019.8,119.7,030208,,,A*7B
3046$GPVTG,119.7,T,,M,019.8,N,036.6,K,A*00
3047$GPGGA,191212,0643.9514,S,03708.5881,W,1,04,01.7,00237.4,M,-011.9,M,,*61
3048$GPGSA,A,3,04,17,26,27,,,,,,,,,04.0,01.7,03.6*06
3049$GPGSV,3,1,10,02,34,359,45,04,49,047,51,08,41,078,37,10,13,326,32*7C
3050$GPGSV,3,2,10,15,37,247,49,17,42,162,49,25,03,046,00,26,45,251,46*7A
3051$GPGSV,3,3,10,27,19,054,36,28,18,139,34,,,,,,,,*7E
3052$GPRMC,191212,A,0643.9514,S,03708.5881,W,014.7,109.7,030208,,,A*73
3053$GPVTG,109.7,T,,M,014.7,N,027.2,K,A*07
3054$GPGGA,191227,0643.9745,S,03708.5234,W,1,04,01.7,00236.7,M,-011.9,M,,*67
3055$GPGSA,A,3,04,17,26,27,,,,,,,,,03.9,01.7,03.6*08
3056$GPGSV,3,1,10,02,34,359,43,04,49,047,51,08,41,078,40,10,13,326,30*78
3057$GPGSV,3,2,10,15,37,248,50,17,42,162,50,25,03,046,00,26,45,251,46*75
3058$GPGSV,3,3,10,27,19,054,41,28,18,139,35,,,,,,,,*7F
3059$GPRMC,191227,A,0643.9745,S,03708.5234,W,014.7,112.6,030208,,,A*7C
3060$GPVTG,112.6,T,,M,014.7,N,027.3,K,A*0D
3061$GPGGA,191242,0643.9971,S,03708.4808,W,1,05,01.3,00237.5,M,-011.9,M,,*6F
3062$GPGSA,A,3,04,10,17,26,27,,,,,,,,03.0,01.3,02.7*04
3063$GPGSV,3,1,10,02,34,359,45,04,49,047,51,08,41,078,38,10,13,326,38*79
3064$GPGSV,3,2,10,15,37,248,49,17,42,162,49,25,03,046,00,26,45,252,49*79
3065$GPGSV,3,3,10,27,19,054,46,28,18,139,41,,,,,,,,*7B
3066$GPRMC,191242,A,0643.9971,S,03708.4808,W,014.0,114.4,030208,,,A*71
3067$GPVTG,114.4,T,,M,014.0,N,026.0,K,A*0C
3068$GPGGA,191257,0644.0160,S,03708.4335,W,1,05,01.3,00238.4,M,-011.9,M,,*66
3069$GPGSA,A,3,04,10,17,26,27,,,,,,,,03.0,01.3,02.7*04
3070$GPGSV,3,1,10,02,34,359,35,04,50,047,52,08,41,078,48,10,13,327,34*7F
3071$GPGSV,3,2,10,15,37,248,50,17,41,162,47,25,03,046,00,26,46,252,46*70
3072$GPGSV,3,3,10,27,19,053,46,28,18,139,43,,,,,,,,*7E
3073$GPRMC,191257,A,0644.0160,S,03708.4335,W,010.5,114.2,030208,,,A*71
3074$GPVTG,114.2,T,,M,010.5,N,019.5,K,A*02
3075$GPGGA,191312,0644.0443,S,03708.3818,W,1,05,01.3,00238.4,M,-011.9,M,,*61
3076$GPGSA,A,3,04,10,17,26,27,,,,,,,,03.0,01.3,02.7*04
3077$GPGSV,3,1,10,02,34,359,34,04,50,048,50,08,41,078,47,10,13,327,32*7A
3078$GPGSV,3,2,10,15,37,248,49,17,41,162,38,25,03,046,00,26,46,252,48*7E
3079$GPGSV,3,3,10,27,19,053,39,28,18,138,42,,,,,,,,*76
3080$GPRMC,191312,A,0644.0443,S,03708.3818,W,013.8,120.4,030208,,,A*79
3081$GPVTG,120.4,T,,M,013.8,N,025.7,K,A*00
3082$GPGGA,191327,0644.0838,S,03708.3387,W,1,05,01.3,00238.6,M,-011.9,M,,*68
3083$GPGSA,A,3,04,10,17,26,27,,,,,,,,03.0,01.3,02.6*05
3084$GPGSV,3,1,10,02,35,359,33,04,50,048,49,08,41,078,51,10,13,327,33*72
3085$GPGSV,3,2,10,15,37,248,47,17,41,162,44,25,03,046,00,26,46,252,50*72
3086$GPGSV,3,3,10,27,19,053,45,28,18,138,36,,,,,,,,*7E
3087$GPRMC,191327,A,0644.0838,S,03708.3387,W,012.4,133.9,030208,,,A*70
3088$GPVTG,133.9,T,,M,012.4,N,023.1,K,A*02
3089$GPGGA,191342,0644.1173,S,03708.3059,W,1,05,01.3,00238.7,M,-011.9,M,,*6D
3090$GPGSA,A,3,04,10,17,26,27,,,,,,,,03.0,01.3,02.6*05
3091$GPGSV,3,1,10,02,35,359,32,04,50,048,48,08,41,078,51,10,13,327,33*72
3092$GPGSV,3,2,10,15,37,248,49,17,41,162,42,25,03,045,00,26,46,252,50*79
3093$GPGSV,3,3,10,27,19,053,47,28,18,138,35,,,,,,,,*7F
3094$GPRMC,191342,A,0644.1173,S,03708.3059,W,008.3,131.2,030208,,,A*71
3095$GPVTG,131.2,T,,M,008.3,N,015.4,K,A*07
3096$GPGGA,191357,0644.1460,S,03708.2705,W,1,05,01.3,00238.4,M,-011.9,M,,*62
3097$GPGSA,A,3,04,10,17,26,27,,,,,,,,02.9,01.3,02.6*0D
3098$GPGSV,3,1,10,02,35,359,34,04,50,048,52,08,41,077,46,10,13,327,35*70
3099$GPGSV,3,2,10,15,37,248,48,17,41,162,46,25,03,045,00,26,46,253,48*74
3100$GPGSV,3,3,10,27,19,053,43,28,18,138,42,,,,,,,,*7B
3101$GPRMC,191357,A,0644.1460,S,03708.2705,W,013.4,118.6,030208,,,A*7F
3102$GPVTG,118.6,T,,M,013.4,N,024.9,K,A*0A
3103$GPGGA,191412,0644.1628,S,03708.2325,W,1,04,01.6,00239.0,M,-011.9,M,,*6D
3104$GPGSA,A,3,04,17,26,27,,,,,,,,,03.8,01.6,03.5*0B
3105$GPGSV,3,1,10,02,35,359,45,04,50,048,49,08,41,077,47,10,13,327,29*70
3106$GPGSV,3,2,10,15,37,249,50,17,41,162,47,25,03,045,00,26,46,253,50*74
3107$GPGSV,3,3,10,27,19,053,43,28,18,138,39,,,,,,,,*77
3108$GPRMC,191412,A,0644.1628,S,03708.2325,W,007.0,114.4,030208,,,A*7E
3109$GPVTG,114.4,T,,M,007.0,N,012.9,K,A*00
3110$GPGGA,191427,0644.1731,S,03708.2035,W,1,05,01.3,00239.4,M,-011.9,M,,*60
3111$GPGSA,A,3,04,10,17,26,27,,,,,,,,02.9,01.3,02.6*0D
3112$GPGSV,3,1,10,02,35,359,38,04,50,048,50,08,41,077,48,10,13,327,34*71
3113$GPGSV,3,2,10,15,37,249,46,17,41,162,49,25,03,045,00,26,46,253,47*7B
3114$GPGSV,3,3,10,27,18,053,36,28,18,138,34,,,,,,,,*79
3115$GPRMC,191427,A,0644.1731,S,03708.2035,W,010.3,107.7,030208,,,A*77
3116$GPVTG,107.7,T,,M,010.3,N,019.2,K,A*04
3117$GPGGA,191442,0644.2060,S,03708.1589,W,1,05,01.3,00239.9,M,-011.9,M,,*6F
3118$GPGSA,A,3,04,10,17,26,27,,,,,,,,02.9,01.3,02.6*0D
3119$GPGSV,3,1,10,02,35,359,33,04,50,049,48,08,41,077,51,10,13,327,34*7A
3120$GPGSV,3,2,10,15,37,249,48,17,41,162,50,25,03,045,00,26,46,253,51*7A
3121$GPGSV,3,3,10,27,18,053,41,28,18,138,41,,,,,,,,*7B
3122$GPRMC,191442,A,0644.2060,S,03708.1589,W,013.0,135.3,030208,,,A*70
3123$GPVTG,135.3,T,,M,013.0,N,024.1,K,A*0C
3124$GPGGA,191457,0644.2380,S,03708.1230,W,1,05,01.3,00240.4,M,-011.9,M,,*60
3125$GPGSA,A,3,04,10,17,26,27,,,,,,,,02.9,01.3,02.6*0D
3126$GPGSV,3,1,10,02,35,000,30,04,50,049,49,08,41,077,51,10,13,327,33*70
3127$GPGSV,3,2,10,15,37,249,49,17,41,162,49,25,03,045,00,26,46,253,51*73
3128$GPGSV,3,3,10,27,18,053,40,28,18,138,42,,,,,,,,*79
3129$GPRMC,191457,A,0644.2380,S,03708.1230,W,009.8,137.2,030208,,,A*7C
3130$GPVTG,137.2,T,,M,009.8,N,018.3,K,A*01
3131$GPGGA,191512,0644.2574,S,03708.1030,W,1,05,01.3,00240.1,M,-011.9,M,,*6A
3132$GPGSA,A,3,04,10,17,26,27,,,,,,,,02.9,01.3,02.6*0D
3133$GPGSV,3,1,10,02,35,000,44,04,50,049,53,08,40,077,51,10,13,328,34*71
3134$GPGSV,3,2,10,15,37,249,51,17,40,162,45,25,02,045,00,26,46,253,50*77
3135$GPGSV,3,3,10,27,18,053,39,28,18,138,46,,,,,,,,*73
3136$GPRMC,191512,A,0644.2574,S,03708.1030,W,008.2,145.8,030208,,,A*77
3137$GPVTG,145.8,T,,M,008.2,N,015.2,K,A*09
3138$GPGGA,191527,0644.2886,S,03708.0778,W,1,05,01.3,00239.0,M,-011.9,M,,*69
3139$GPGSA,A,3,04,10,17,26,27,,,,,,,,02.9,01.3,02.6*0D
3140$GPGSV,3,1,10,02,35,000,32,04,50,049,48,08,40,076,52,10,13,328,34*78
3141$GPGSV,3,2,10,15,37,249,49,17,40,162,45,25,02,045,00,26,46,254,50*79
3142$GPGSV,3,3,10,27,18,053,42,28,18,137,39,,,,,,,,*78
3143$GPRMC,191527,A,0644.2886,S,03708.0778,W,012.0,134.9,030208,,,A*75
3144$GPVTG,134.9,T,,M,012.0,N,022.2,K,A*03
3145$GPGGA,191542,0644.3258,S,03708.0390,W,1,04,01.6,00237.9,M,-011.9,M,,*63
3146$GPGSA,A,3,04,17,26,27,,,,,,,,,03.8,01.6,03.4*0A
3147$GPGSV,3,1,10,02,35,000,35,04,50,049,52,08,40,076,52,10,13,328,32*72
3148$GPGSV,3,2,10,15,37,249,47,17,40,162,47,25,02,045,00,26,46,254,49*7D
3149$GPGSV,3,3,10,27,18,052,43,28,18,137,46,,,,,,,,*70
3150$GPRMC,191542,A,0644.3258,S,03708.0390,W,013.2,139.2,030208,,,A*79
3151$GPVTG,139.2,T,,M,013.2,N,024.5,K,A*07
3152$GPGGA,191557,0644.3621,S,03707.9993,W,1,04,01.6,00237.6,M,-011.9,M,,*6D
3153$GPGSA,A,3,04,17,26,27,,,,,,,,,03.8,01.6,03.4*0A
3154$GPGSV,3,1,10,02,36,000,45,04,50,049,53,08,40,076,51,10,13,328,29*7E
3155$GPGSV,3,2,10,15,37,250,49,17,40,162,46,25,02,045,00,26,46,254,49*7A
3156$GPGSV,3,3,10,27,18,052,49,28,18,137,33,,,,,,,,*78
3157$GPRMC,191557,A,0644.3621,S,03707.9993,W,007.2,137.0,030208,,,A*71
3158$GPVTG,137.0,T,,M,007.2,N,013.5,K,A*0A
3159$GPGGA,191612,0644.3934,S,03707.9801,W,1,05,01.3,00237.9,M,-011.9,M,,*65
3160$GPGSA,A,3,04,10,17,26,27,,,,,,,,02.9,01.3,02.6*0D
3161$GPGSV,3,1,10,02,36,000,30,04,50,050,52,08,40,076,51,10,13,328,34*79
3162$GPGSV,3,2,10,15,38,250,49,17,40,162,40,25,02,045,00,26,46,254,50*7B
3163$GPGSV,3,3,10,27,18,052,45,28,18,137,45,,,,,,,,*75
3164$GPRMC,191612,A,0644.3934,S,03707.9801,W,014.6,121.2,030208,,,A*71
3165$GPVTG,121.2,T,,M,014.6,N,027.1,K,A*0A
3166$GPGGA,191627,0644.4515,S,03707.9510,W,1,05,01.3,00237.8,M,-011.9,M,,*67
3167$GPGSA,A,3,04,10,17,26,27,,,,,,,,02.9,01.3,02.5*0E
3168$GPGSV,3,1,10,02,36,000,39,04,50,050,52,08,40,076,47,10,12,328,34*76
3169$GPGSV,3,2,10,15,38,250,45,17,40,162,50,25,02,045,00,26,46,254,45*72
3170$GPGSV,3,3,10,27,18,052,41,28,18,137,42,,,,,,,,*76
3171$GPRMC,191627,A,0644.4515,S,03707.9510,W,014.9,161.5,030208,,,A*7E
3172$GPVTG,161.5,T,,M,014.9,N,027.7,K,A*00
3173$GPGGA,191642,0644.4941,S,03707.9520,W,1,04,01.5,00237.8,M,-011.9,M,,*6D
3174$GPGSA,A,3,04,10,17,26,,,,,,,,,03.4,01.5,03.1*04
3175$GPGSV,3,1,11,02,36,000,47,04,51,050,37,08,40,076,34,09,00,215,00*7B
3176$GPGSV,3,2,11,10,12,328,39,15,38,250,43,17,40,162,52,25,02,045,00*72
3177$GPGSV,3,3,11,26,46,254,46,27,18,052,29,28,18,137,36,,,,*4D
3178$GPRMC,191642,A,0644.4941,S,03707.9520,W,009.9,217.1,030208,,,A*79
3179$GPVTG,217.1,T,,M,009.9,N,018.3,K,A*02
3180$GPGGA,191657,0644.5178,S,03707.9864,W,1,05,01.3,00238.0,M,-011.9,M,,*67
3181$GPGSA,A,3,04,10,17,26,27,,,,,,,,02.8,01.3,02.5*0F
3182$GPGSV,3,1,11,02,36,000,50,04,51,050,44,08,40,076,36,09,00,215,00*7B
3183$GPGSV,3,2,11,10,12,328,35,15,38,250,46,17,40,162,51,25,02,045,00*78
3184$GPGSV,3,3,11,26,46,255,47,27,18,052,34,28,18,137,41,,,,*41
3185$GPRMC,191657,A,0644.5178,S,03707.9864,W,005.8,245.9,030208,,,A*71
3186$GPVTG,245.9,T,,M,005.8,N,010.7,K,A*0C
3187$GPGGA,191712,0644.5230,S,03707.9920,W,1,05,01.3,00238.2,M,-011.9,M,,*6B
3188$GPGSA,A,3,04,10,17,26,27,,,,,,,,02.8,01.3,02.5*0F
3189$GPGSV,3,1,11,02,36,000,41,04,51,050,36,08,40,075,46,09,00,215,00*7A
3190$GPGSV,3,2,11,10,12,328,36,15,38,250,47,17,40,162,45,25,02,045,00*7F
3191$GPGSV,3,3,11,26,46,255,47,27,18,052,33,28,17,137,39,,,,*46
3192$GPRMC,191712,A,0644.5230,S,03707.9920,W,000.5,240.6,030208,,,A*7D
3193$GPVTG,240.6,T,,M,000.5,N,001.0,K,A*09
3194$GPGGA,191727,0644.5237,S,03707.9940,W,1,05,01.3,00241.2,M,-011.9,M,,*62
3195$GPGSA,A,3,04,10,17,26,27,,,,,,,,02.8,01.3,02.5*0F
3196$GPGSV,3,1,11,02,36,000,46,04,51,050,42,08,40,075,42,09,00,215,00*7A
3197$GPGSV,3,2,11,10,12,328,39,15,38,250,44,17,40,162,46,25,02,045,00*70
3198$GPGSV,3,3,11,26,46,255,45,27,18,052,31,28,17,137,39,,,,*46
3199$GPRMC,191727,A,0644.5237,S,03707.9940,W,000.8,240.6,030208,,,A*77
3200$GPVTG,240.6,T,,M,000.8,N,001.5,K,A*01
3201$GPGGA,191742,0644.5278,S,03707.9978,W,1,04,01.6,00242.3,M,-011.9,M,,*67
3202$GPGSA,A,3,04,17,26,27,,,,,,,,,03.7,01.6,03.3*02
3203$GPGSV,3,1,11,02,36,000,45,04,51,051,45,08,40,075,42,09,00,215,00*7F
3204$GPGSV,3,2,11,10,12,329,31,15,38,251,46,17,39,162,51,25,02,045,00*72
3205$GPGSV,3,3,11,26,46,255,47,27,18,052,34,28,17,136,43,,,,*4D
3206$GPRMC,191742,A,0644.5278,S,03707.9978,W,000.1,235.2,030208,,,A*7B
3207$GPVTG,235.2,T,,M,000.1,N,000.2,K,A*08
3208$GPGGA,191757,0644.5391,S,03708.0136,W,1,04,01.5,00239.8,M,-011.9,M,,*65
3209$GPGSA,A,3,04,10,17,26,,,,,,,,,03.4,01.5,03.0*05
3210$GPGSV,3,1,11,02,36,000,42,04,51,051,46,08,40,075,40,09,00,215,00*79
3211$GPGSV,3,2,11,10,12,329,34,15,38,251,49,17,39,162,49,25,02,044,00*70
3212$GPGSV,3,3,11,26,46,255,52,27,18,052,31,28,17,136,41,,,,*4E
3213$GPRMC,191757,A,0644.5391,S,03708.0136,W,011.0,238.8,030208,,,A*7B
3214$GPVTG,238.8,T,,M,011.0,N,020.5,K,A*0B
3215$GPGGA,191812,0644.5657,S,03708.0643,W,1,04,01.6,00234.3,M,-011.9,M,,*64
3216$GPGSA,A,3,04,17,26,27,,,,,,,,,03.6,01.6,03.2*02
3217$GPGSV,3,1,11,02,36,000,47,04,51,051,47,08,40,075,38,09,00,215,00*72
3218$GPGSV,3,2,11,10,12,329,28,15,38,251,46,17,39,162,52,25,02,044,00*78
3219$GPGSV,3,3,11,26,46,256,45,27,17,052,42,28,17,136,47,,,,*46
3220$GPRMC,191812,A,0644.5657,S,03708.0643,W,015.3,252.8,030208,,,A*74
3221$GPVTG,252.8,T,,M,015.3,N,028.4,K,A*09
3222$GPGGA,191827,0644.5892,S,03708.1126,W,1,05,01.2,00245.6,M,-011.9,M,,*66
3223$GPGSA,A,3,04,10,17,26,27,,,,,,,,02.8,01.2,02.5*0E
3224$GPGSV,3,1,11,02,37,000,50,04,51,051,46,08,40,075,35,09,01,215,00*78
3225$GPGSV,3,2,11,10,12,329,34,15,38,251,46,17,39,162,35,25,02,044,00*74
3226$GPGSV,3,3,11,26,46,256,46,27,17,052,31,28,17,136,47,,,,*41
3227$GPRMC,191827,A,0644.5892,S,03708.1126,W,006.5,215.8,030208,,,A*77
3228$GPVTG,215.8,T,,M,006.5,N,012.0,K,A*03
3229$GPGGA,191842,0644.6192,S,03708.0951,W,1,05,01.2,00222.2,M,-011.9,M,,*63
3230$GPGSA,A,3,04,10,17,26,27,,,,,,,,02.8,01.2,02.5*0E
3231$GPGSV,3,1,11,02,37,001,35,04,51,051,49,08,40,074,52,09,01,215,00*75
3232$GPGSV,3,2,11,10,12,329,35,15,38,251,45,17,39,162,46,25,01,044,00*71
3233$GPGSV,3,3,11,26,46,256,45,27,17,051,40,28,17,136,39,,,,*4E
3234$GPRMC,191842,A,0644.6192,S,03708.0951,W,010.4,141.5,030208,,,A*7E
3235$GPVTG,141.5,T,,M,010.4,N,019.3,K,A*02
3236$GPGGA,191857,0644.6534,S,03708.0579,W,1,04,01.6,00225.0,M,-011.9,M,,*69
3237$GPGSA,A,3,04,17,26,27,,,,,,,,,03.6,01.6,03.2*02
3238$GPGSV,3,1,11,02,37,001,52,04,51,051,52,08,40,074,51,09,01,215,00*7D
3239$GPGSV,3,2,11,10,12,329,31,15,38,251,40,17,39,162,48,25,01,044,00*7E
3240$GPGSV,3,3,11,26,46,256,47,27,17,051,47,28,17,136,43,,,,*46
3241$GPRMC,191857,A,0644.6534,S,03708.0579,W,014.7,118.1,030208,,,A*7B
3242$GPVTG,118.1,T,,M,014.7,N,027.3,K,A*00
3243$GPGGA,191912,0644.7028,S,03708.0133,W,1,04,01.6,00224.0,M,-011.9,M,,*6B
3244$GPGSA,A,3,04,17,26,27,,,,,,,,,03.6,01.6,03.2*02
3245$GPGSV,3,1,11,02,37,001,46,04,51,052,52,08,40,074,48,09,01,215,00*73
3246$GPGSV,3,2,11,10,12,329,33,15,38,251,47,17,39,161,45,25,01,044,00*75
3247$GPGSV,3,3,11,26,46,256,47,27,17,051,38,28,17,136,42,,,,*4F
3248$GPRMC,191912,A,0644.7028,S,03708.0133,W,011.8,142.8,030208,,,A*74
3249$GPVTG,142.8,T,,M,011.8,N,021.9,K,A*00
3250$GPGGA,191927,0644.7500,S,03707.9790,W,1,05,01.2,00226.0,M,-011.9,M,,*6C
3251$GPGSA,A,3,04,10,17,26,27,,,,,,,,02.8,01.2,02.4*0F
3252$GPGSV,3,1,11,02,37,001,48,04,51,052,51,08,40,074,38,09,01,215,00*79
3253$GPGSV,3,2,11,10,12,329,34,15,38,252,49,17,39,161,46,25,01,044,00*7C
3254$GPGSV,3,3,11,26,46,257,45,27,17,051,35,28,17,136,40,,,,*43
3255$GPRMC,191927,A,0644.7500,S,03707.9790,W,014.0,143.6,030208,,,A*76
3256$GPVTG,143.6,T,,M,014.0,N,026.0,K,A*0C
3257$GPGGA,191942,0644.8008,S,03707.9450,W,1,05,01.2,00227.5,M,-011.9,M,,*66
3258$GPGSA,A,3,04,10,17,26,27,,,,,,,,02.8,01.2,02.4*0F
3259$GPGSV,3,1,11,02,37,001,46,04,51,052,51,08,40,074,41,09,01,215,00*79
3260$GPGSV,3,2,11,10,12,329,32,15,38,252,50,17,39,161,48,25,01,044,00*7C
3261$GPGSV,3,3,11,26,46,257,48,27,17,051,33,28,17,136,36,,,,*49
3262$GPRMC,191942,A,0644.8008,S,03707.9450,W,014.0,145.2,030208,,,A*7A
3263$GPVTG,145.2,T,,M,014.0,N,026.0,K,A*0E
3264$GPGGA,191957,0644.8286,S,03707.9053,W,1,05,01.2,00229.2,M,-011.9,M,,*68
3265$GPGSA,A,3,04,10,17,26,27,,,,,,,,02.7,01.2,02.4*00
3266$GPGSV,3,1,11,02,37,001,52,04,51,052,53,08,40,074,51,09,01,215,00*7F
3267$GPGSV,3,2,11,10,12,330,35,15,38,252,47,17,38,161,47,25,01,044,00*7B
3268$GPGSV,3,3,11,26,46,257,47,27,17,051,44,28,17,135,42,,,,*46
3269$GPRMC,191957,A,0644.8286,S,03707.9053,W,012.0,115.3,030208,,,A*7F
3270$GPVTG,115.3,T,,M,012.0,N,022.2,K,A*0A
3271$GPGGA,192012,0644.8816,S,03707.8686,W,1,04,01.6,00228.6,M,-011.9,M,,*6F
3272$GPGSA,A,3,04,17,26,27,,,,,,,,,03.5,01.6,03.1*02
3273$GPGSV,3,1,11,02,37,001,44,04,51,052,51,08,40,074,50,09,01,214,00*7A
3274$GPGSV,3,2,11,10,12,330,31,15,38,252,49,17,38,161,40,25,01,044,00*76
3275$GPGSV,3,3,11,26,46,257,49,27,17,051,45,28,17,135,31,,,,*4D
3276$GPRMC,192012,A,0644.8816,S,03707.8686,W,016.2,155.1,030208,,,A*78
3277$GPVTG,155.1,T,,M,016.2,N,030.0,K,A*0B
3278$GPGGA,192027,0644.9264,S,03707.8395,W,1,05,01.2,00227.1,M,-011.9,M,,*6D
3279$GPGSA,A,3,04,10,17,26,27,,,,,,,,02.7,01.2,02.4*00
3280$GPGSV,3,1,11,02,37,001,45,04,51,052,47,08,40,073,46,09,01,214,00*7C
3281$GPGSV,3,2,11,10,12,330,34,15,38,252,51,17,38,161,44,25,01,044,00*7E
3282$GPGSV,3,3,11,26,46,257,49,27,17,051,35,28,17,135,37,,,,*4C
3283$GPRMC,192027,A,0644.9264,S,03707.8395,W,011.7,144.3,030208,,,A*77
3284$GPVTG,144.3,T,,M,011.7,N,021.7,K,A*0C
3285$GPGGA,192042,0644.9908,S,03707.8135,W,1,05,01.2,00227.4,M,-011.9,M,,*62
3286$GPGSA,A,3,04,10,17,26,27,,,,,,,,02.7,01.2,02.4*00
3287$GPGSV,3,1,11,02,37,001,45,04,51,053,50,08,40,073,51,09,01,214,00*7D
3288$GPGSV,3,2,11,10,12,330,45,15,38,252,47,17,38,161,47,25,01,044,00*7C
3289$GPGSV,3,3,11,26,46,257,50,27,17,051,45,28,17,135,35,,,,*41
3290$GPRMC,192042,A,0644.9908,S,03707.8135,W,020.3,163.8,030208,,,A*75
3291$GPVTG,163.8,T,,M,020.3,N,037.6,K,A*02
3292$GPGGA,192057,0645.0542,S,03707.7934,W,1,05,01.2,00229.1,M,-011.9,M,,*61
3293$GPGSA,A,3,04,10,17,26,27,,,,,,,,02.7,01.2,02.4*00
3294$GPGSV,3,1,11,02,38,001,34,04,52,053,52,08,40,073,53,09,01,214,00*77
3295$GPGSV,3,2,11,10,12,330,34,15,38,253,48,17,38,161,46,25,01,044,00*75
3296$GPGSV,3,3,11,26,46,258,50,27,17,051,45,28,17,135,35,,,,*4E
3297$GPRMC,192057,A,0645.0542,S,03707.7934,W,013.5,150.3,030208,,,A*70
3298$GPVTG,150.3,T,,M,013.5,N,025.0,K,A*0A
3299$GPGGA,192112,0645.0743,S,03707.7828,W,1,05,01.2,00228.9,M,-011.9,M,,*67
3300$GPGSA,A,3,04,10,17,26,27,,,,,,,,02.7,01.2,02.4*00
3301$GPGSV,3,1,11,02,38,001,49,04,52,053,50,08,40,073,51,09,01,214,00*7D
3302$GPGSV,3,2,11,10,12,330,48,15,38,253,42,17,38,161,51,25,01,044,00*72
3303$GPGSV,3,3,11,26,47,258,45,27,17,051,35,28,17,135,37,,,,*4E
3304$GPRMC,192112,A,0645.0743,S,03707.7828,W,000.1,151.4,030208,,,A*7F
3305$GPVTG,151.4,T,,M,000.1,N,000.2,K,A*0F
3306$GPGGA,192127,0645.0753,S,03707.7838,W,1,05,01.2,00229.3,M,-011.9,M,,*6A
3307$GPGSA,A,3,04,10,17,26,27,,,,,,,,02.7,01.2,02.4*00
3308$GPGSV,3,1,11,02,38,001,50,04,52,053,52,08,39,073,51,09,01,214,00*79
3309$GPGSV,3,2,11,10,12,330,43,15,38,253,34,17,38,161,52,25,01,044,00*7B
3310$GPGSV,3,3,11,26,47,258,46,27,17,051,42,28,17,135,44,,,,*49
3311$GPRMC,192127,A,0645.0753,S,03707.7838,W,000.4,151.4,030208,,,A*7C
3312$GPVTG,151.4,T,,M,000.4,N,000.7,K,A*0F
3313$GPGGA,192142,0645.0776,S,03707.7813,W,1,04,01.5,00230.0,M,-011.9,M,,*6A
3314$GPGSA,A,3,04,10,17,26,,,,,,,,,03.2,01.5,02.8*0A
3315$GPGSV,3,1,11,02,38,001,35,04,52,053,57,08,39,073,36,09,02,214,00*7D
3316$GPGSV,3,2,11,10,12,330,40,15,38,253,41,17,38,161,45,25,01,044,00*7C
3317$GPGSV,3,3,11,26,47,258,46,27,16,050,36,28,17,135,32,,,,*4B
3318$GPRMC,192142,A,0645.0776,S,03707.7813,W,000.3,131.1,030208,,,A*75
3319$GPVTG,131.1,T,,M,000.3,N,000.6,K,A*0A
3320$GPGGA,192157,0645.0810,S,03707.7793,W,1,03,01.7,00230.9,M,-011.9,M,,*6A
3321$GPGSA,A,2,04,17,26,,,,,,,,,,01.9,01.7,00.9*02
3322$GPGSV,3,1,11,02,38,001,36,04,52,054,55,08,39,072,33,09,02,214,00*7F
3323$GPGSV,3,2,11,10,12,330,33,15,38,253,40,17,38,161,42,25,00,043,00*78
3324$GPGSV,3,3,11,26,47,258,46,27,16,050,35,28,17,135,34,,,,*4E
3325$GPRMC,192157,A,0645.0810,S,03707.7793,W,002.6,147.5,030208,,,A*7B
3326$GPVTG,147.5,T,,M,002.6,N,004.9,K,A*03
3327$GPGGA,192212,0645.1078,S,03707.7535,W,1,05,01.2,00233.0,M,-011.9,M,,*68
3328$GPGSA,A,3,04,10,17,26,27,,,,,,,,02.7,01.2,02.4*00
3329$GPGSV,3,1,11,02,38,001,45,04,52,054,49,08,39,072,40,09,02,214,00*72
3330$GPGSV,3,2,11,10,12,330,42,15,38,253,38,17,37,161,43,25,00,043,00*7F
3331$GPGSV,3,3,11,26,47,259,41,27,16,050,32,28,17,135,34,,,,*4F
3332$GPRMC,192212,A,0645.1078,S,03707.7535,W,012.7,131.4,030208,,,A*70
3333$GPVTG,131.4,T,,M,012.7,N,023.5,K,A*0A
3334$GPGGA,192227,0645.1492,S,03707.7130,W,1,05,01.2,00232.6,M,-011.9,M,,*68
3335$GPGSA,A,3,04,10,17,26,27,,,,,,,,02.7,01.2,02.4*00
3336$GPGSV,3,1,11,02,38,001,39,04,52,054,55,08,39,072,46,09,02,214,00*72
3337$GPGSV,3,2,11,10,12,331,45,15,38,253,41,17,37,161,47,25,00,043,00*73
3338$GPGSV,3,3,11,26,47,259,47,27,16,050,38,28,17,134,44,,,,*45
3339$GPRMC,192227,A,0645.1492,S,03707.7130,W,014.4,164.8,030208,,,A*7E
3340$GPVTG,164.8,T,,M,014.4,N,026.7,K,A*04
3341$GPGGA,192242,0645.2023,S,03707.6958,W,1,04,01.6,00232.6,M,-011.9,M,,*64
3342$GPGSA,A,3,04,17,26,27,,,,,,,,,03.4,01.6,03.0*02
3343$GPGSV,3,1,11,02,38,002,38,04,52,054,52,08,39,072,39,09,02,214,00*7F
3344$GPGSV,3,2,11,10,12,331,31,15,38,254,47,17,37,161,48,25,00,043,00*7E
3345$GPGSV,3,3,11,26,47,259,50,27,16,050,45,28,17,134,42,,,,*4F
3346$GPRMC,192242,A,0645.2023,S,03707.6958,W,010.5,159.1,030208,,,A*75
3347$GPVTG,159.1,T,,M,010.5,N,019.5,K,A*08
3348$GPGGA,192257,0645.2462,S,03707.6817,W,1,05,01.2,00232.9,M,-011.9,M,,*61
3349$GPGSA,A,3,04,10,17,26,27,,,,,,,,02.7,01.2,02.3*07
3350$GPGSV,3,1,11,02,38,002,41,04,52,054,55,08,39,072,44,09,02,214,00*7C
3351$GPGSV,3,2,11,10,12,331,45,15,39,254,45,17,37,161,45,25,00,043,00*73
3352$GPGSV,3,3,11,26,47,259,48,27,16,050,42,28,17,134,42,,,,*41
3353$GPRMC,192257,A,0645.2462,S,03707.6817,W,011.0,163.0,030208,,,A*76
3354$GPVTG,163.0,T,,M,011.0,N,020.4,K,A*0F
3355$GPGGA,192312,0645.2918,S,03707.6693,W,1,05,01.2,00233.7,M,-011.9,M,,*6C
3356$GPGSA,A,3,04,10,17,26,27,,,,,,,,02.7,01.2,02.3*07
3357$GPGSV,3,1,11,02,39,002,47,04,52,054,55,08,39,072,46,09,02,214,00*79
3358$GPGSV,3,2,11,10,12,331,35,15,39,254,46,17,37,161,43,25,00,043,00*71
3359$GPGSV,3,3,11,26,47,259,48,27,16,050,46,28,17,134,39,,,,*49
3360$GPRMC,192312,A,0645.2918,S,03707.6693,W,012.0,159.2,030208,,,A*7C
3361$GPVTG,159.2,T,,M,012.0,N,022.2,K,A*03
3362$GPGGA,192327,0645.3593,S,03707.6530,W,1,05,01.2,00234.0,M,-011.9,M,,*6E
3363$GPGSA,A,3,04,10,17,26,27,,,,,,,,02.7,01.2,02.3*07
3364$GPGSV,3,1,11,02,39,002,47,04,52,055,51,08,39,072,52,09,02,214,00*79
3365$GPGSV,3,2,11,10,12,331,34,15,39,254,48,17,37,161,49,25,00,043,00*74
3366$GPGSV,3,3,11,26,47,260,50,27,16,050,46,28,17,134,39,,,,*4A
3367$GPRMC,192327,A,0645.3593,S,03707.6530,W,018.8,162.1,030208,,,A*77
3368$GPVTG,162.1,T,,M,018.8,N,034.9,K,A*06
3369$GPGGA,192342,0645.4290,S,03707.6352,W,1,05,01.2,00235.8,M,-011.9,M,,*65
3370$GPGSA,A,3,04,10,17,26,27,,,,,,,,02.6,01.2,02.3*06
3371$GPGSV,3,1,10,02,39,002,47,04,52,055,43,08,39,071,51,09,02,214,00*7B
3372$GPGSV,3,2,10,10,12,331,35,15,39,254,46,17,37,161,49,26,47,260,48*75
3373$GPGSV,3,3,10,27,16,050,35,28,17,134,42,,,,,,,,*75
3374$GPRMC,192342,A,0645.4290,S,03707.6352,W,015.7,173.4,030208,,,A*72
3375$GPVTG,173.4,T,,M,015.7,N,029.1,K,A*05
3376$GPGGA,192357,0645.4813,S,03707.6309,W,1,04,01.4,00237.6,M,-011.9,M,,*65
3377$GPGSA,A,3,04,10,17,26,,,,,,,,,03.1,01.4,02.7*07
3378$GPGSV,3,1,10,02,39,002,45,04,52,055,54,08,39,071,48,09,02,214,00*77
3379$GPGSV,3,2,10,10,12,331,47,15,39,254,42,17,37,161,50,26,47,260,46*72
3380$GPGSV,3,3,10,27,16,050,36,28,17,134,36,,,,,,,,*75
3381$GPRMC,192357,A,0645.4813,S,03707.6309,W,012.1,167.1,030208,,,A*78
3382$GPVTG,167.1,T,,M,012.1,N,022.5,K,A*0B
3383$GPGGA,192412,0645.5365,S,03707.6198,W,1,05,01.2,00239.9,M,-011.9,M,,*64
3384$GPGSA,A,3,04,10,17,26,27,,,,,,,,02.6,01.2,02.3*06
3385$GPGSV,3,1,10,02,39,002,45,04,52,055,55,08,39,071,48,09,02,214,00*76
3386$GPGSV,3,2,10,10,12,331,39,15,39,255,43,17,37,161,43,26,47,260,48*77
3387$GPGSV,3,3,10,27,16,050,48,28,17,134,34,,,,,,,,*7E
3388$GPRMC,192412,A,0645.5365,S,03707.6198,W,015.9,154.4,030208,,,A*75
3389$GPVTG,154.4,T,,M,015.9,N,029.5,K,A*0A
3390$GPGGA,192427,0645.5797,S,03707.6049,W,1,05,01.2,00240.8,M,-011.9,M,,*69
3391$GPGSA,A,3,04,10,17,26,27,,,,,,,,02.6,01.2,02.3*06
3392$GPGSV,3,1,10,02,39,002,45,04,52,055,52,08,39,071,50,09,02,214,00*78
3393$GPGSV,3,2,10,10,12,331,41,15,39,255,43,17,37,161,48,26,47,260,45*7E
3394$GPGSV,3,3,10,27,16,050,34,28,17,134,43,,,,,,,,*75
3395$GPRMC,192427,A,0645.5797,S,03707.6049,W,014.1,170.6,030208,,,A*7A
3396$GPVTG,170.6,T,,M,014.1,N,026.1,K,A*0C
3397$GPGGA,192442,0645.6115,S,03707.5647,W,1,05,01.2,00241.8,M,-011.9,M,,*6F
3398$GPGSA,A,3,04,10,17,26,27,,,,,,,,02.6,01.2,02.3*06
3399$GPGSV,3,1,10,02,39,002,51,04,52,055,51,08,39,071,39,09,03,214,00*70
3400$GPGSV,3,2,10,10,12,331,36,15,39,255,39,17,36,161,42,26,47,260,41*7C
3401$GPGSV,3,3,10,27,16,049,48,28,17,133,33,,,,,,,,*76
3402$GPRMC,192442,A,0645.6115,S,03707.5647,W,008.8,107.0,030208,,,A*7F
3403$GPVTG,107.0,T,,M,008.8,N,016.3,K,A*0F
3404$GPGGA,192457,0645.6193,S,03707.5531,W,1,05,01.2,00246.1,M,-011.9,M,,*69
3405$GPGSA,A,3,04,10,17,26,27,,,,,,,,02.6,01.2,02.3*06
3406$GPGSV,3,1,10,02,39,002,52,04,52,056,50,08,39,071,45,09,03,214,00*7A
3407$GPGSV,3,2,10,10,12,332,32,15,39,255,45,17,36,161,42,26,47,261,46*76
3408$GPGSV,3,3,10,27,16,049,49,28,17,133,34,,,,,,,,*70
3409$GPRMC,192457,A,0645.6193,S,03707.5531,W,000.2,128.5,030208,,,A*7D
3410$GPVTG,128.5,T,,M,000.2,N,000.5,K,A*04
Note: See TracBrowser for help on using the repository browser.